<?xml version="1.0" encoding="UTF-8"?>
<gpx version="1.1" creator="RoadTrp.org" xmlns="http://www.topografix.com/GPX/1/1">
<trk><name>Poe-Lake-Bldr-Deer — Enterprise South Nature Park — July 25, 2026</name><trkseg>
<trkpt lat="35.078423" lon="-85.125616"><ele>252.1</ele><time>2026-07-25T19:31:05Z</time></trkpt>
<trkpt lat="35.07846" lon="-85.125608"><ele>251.2</ele><time>2026-07-25T19:31:08Z</time></trkpt>
<trkpt lat="35.078483" lon="-85.125587"><ele>251.2</ele><time>2026-07-25T19:31:11Z</time></trkpt>
<trkpt lat="35.078506" lon="-85.125556"><ele>250.5</ele><time>2026-07-25T19:31:15Z</time></trkpt>
<trkpt lat="35.078527" lon="-85.125538"><ele>249.9</ele><time>2026-07-25T19:31:18Z</time></trkpt>
<trkpt lat="35.078522" lon="-85.125541"><ele>249.9</ele><time>2026-07-25T19:31:19Z</time></trkpt>
<trkpt lat="35.078509" lon="-85.125542"><ele>248.1</ele><time>2026-07-25T19:32:03Z</time></trkpt>
<trkpt lat="35.078506" lon="-85.125533"><ele>247.8</ele><time>2026-07-25T19:32:04Z</time></trkpt>
<trkpt lat="35.07848" lon="-85.125507"><ele>248.4</ele><time>2026-07-25T19:32:07Z</time></trkpt>
<trkpt lat="35.078469" lon="-85.125475"><ele>247.8</ele><time>2026-07-25T19:32:09Z</time></trkpt>
<trkpt lat="35.078453" lon="-85.125439"><ele>247.5</ele><time>2026-07-25T19:32:11Z</time></trkpt>
<trkpt lat="35.078443" lon="-85.125405"><ele>245.7</ele><time>2026-07-25T19:32:13Z</time></trkpt>
<trkpt lat="35.078427" lon="-85.125372"><ele>247.2</ele><time>2026-07-25T19:32:15Z</time></trkpt>
<trkpt lat="35.078425" lon="-85.125336"><ele>247.8</ele><time>2026-07-25T19:32:17Z</time></trkpt>
<trkpt lat="35.078415" lon="-85.125296"><ele>246.9</ele><time>2026-07-25T19:32:20Z</time></trkpt>
<trkpt lat="35.078399" lon="-85.125256"><ele>248.4</ele><time>2026-07-25T19:32:23Z</time></trkpt>
<trkpt lat="35.078383" lon="-85.125216"><ele>246.6</ele><time>2026-07-25T19:32:26Z</time></trkpt>
<trkpt lat="35.078387" lon="-85.125172"><ele>245.7</ele><time>2026-07-25T19:32:29Z</time></trkpt>
<trkpt lat="35.078405" lon="-85.125134"><ele>247.2</ele><time>2026-07-25T19:32:32Z</time></trkpt>
<trkpt lat="35.078416" lon="-85.125096"><ele>246.6</ele><time>2026-07-25T19:32:35Z</time></trkpt>
<trkpt lat="35.078407" lon="-85.125062"><ele>246.3</ele><time>2026-07-25T19:32:37Z</time></trkpt>
<trkpt lat="35.078402" lon="-85.125026"><ele>246.9</ele><time>2026-07-25T19:32:39Z</time></trkpt>
<trkpt lat="35.078402" lon="-85.12499"><ele>247.8</ele><time>2026-07-25T19:32:41Z</time></trkpt>
<trkpt lat="35.078378" lon="-85.124957"><ele>246.6</ele><time>2026-07-25T19:32:43Z</time></trkpt>
<trkpt lat="35.078358" lon="-85.124922"><ele>246.9</ele><time>2026-07-25T19:32:45Z</time></trkpt>
<trkpt lat="35.07835" lon="-85.124882"><ele>249.0</ele><time>2026-07-25T19:32:47Z</time></trkpt>
<trkpt lat="35.07834" lon="-85.124836"><ele>250.5</ele><time>2026-07-25T19:32:50Z</time></trkpt>
<trkpt lat="35.078327" lon="-85.124795"><ele>252.7</ele><time>2026-07-25T19:32:53Z</time></trkpt>
<trkpt lat="35.078329" lon="-85.124752"><ele>254.2</ele><time>2026-07-25T19:32:56Z</time></trkpt>
<trkpt lat="35.078343" lon="-85.124712"><ele>252.7</ele><time>2026-07-25T19:33:00Z</time></trkpt>
<trkpt lat="35.078355" lon="-85.124681"><ele>252.7</ele><time>2026-07-25T19:33:03Z</time></trkpt>
<trkpt lat="35.078381" lon="-85.124661"><ele>253.3</ele><time>2026-07-25T19:33:06Z</time></trkpt>
<trkpt lat="35.078407" lon="-85.124646"><ele>250.5</ele><time>2026-07-25T19:33:09Z</time></trkpt>
<trkpt lat="35.078436" lon="-85.124632"><ele>250.2</ele><time>2026-07-25T19:33:12Z</time></trkpt>
<trkpt lat="35.078473" lon="-85.124626"><ele>250.5</ele><time>2026-07-25T19:33:15Z</time></trkpt>
<trkpt lat="35.078502" lon="-85.124646"><ele>249.9</ele><time>2026-07-25T19:33:17Z</time></trkpt>
<trkpt lat="35.078497" lon="-85.124662"><ele>249.0</ele><time>2026-07-25T19:33:18Z</time></trkpt>
<trkpt lat="35.078498" lon="-85.124662"><ele>248.7</ele><time>2026-07-25T19:33:21Z</time></trkpt>
<trkpt lat="35.078505" lon="-85.124653"><ele>249.0</ele><time>2026-07-25T19:33:22Z</time></trkpt>
<trkpt lat="35.078517" lon="-85.124611"><ele>249.9</ele><time>2026-07-25T19:33:25Z</time></trkpt>
<trkpt lat="35.078544" lon="-85.124583"><ele>249.0</ele><time>2026-07-25T19:33:28Z</time></trkpt>
<trkpt lat="35.07857" lon="-85.124566"><ele>248.7</ele><time>2026-07-25T19:33:31Z</time></trkpt>
<trkpt lat="35.078607" lon="-85.124579"><ele>249.3</ele><time>2026-07-25T19:33:34Z</time></trkpt>
<trkpt lat="35.078641" lon="-85.124566"><ele>250.5</ele><time>2026-07-25T19:33:37Z</time></trkpt>
<trkpt lat="35.078674" lon="-85.124557"><ele>249.6</ele><time>2026-07-25T19:33:40Z</time></trkpt>
<trkpt lat="35.07871" lon="-85.124547"><ele>249.9</ele><time>2026-07-25T19:33:43Z</time></trkpt>
<trkpt lat="35.078743" lon="-85.124524"><ele>249.3</ele><time>2026-07-25T19:33:46Z</time></trkpt>
<trkpt lat="35.078766" lon="-85.124498"><ele>250.9</ele><time>2026-07-25T19:33:49Z</time></trkpt>
<trkpt lat="35.078791" lon="-85.124472"><ele>250.5</ele><time>2026-07-25T19:33:52Z</time></trkpt>
<trkpt lat="35.078817" lon="-85.124444"><ele>249.3</ele><time>2026-07-25T19:33:55Z</time></trkpt>
<trkpt lat="35.078835" lon="-85.124412"><ele>248.4</ele><time>2026-07-25T19:33:57Z</time></trkpt>
<trkpt lat="35.078857" lon="-85.124368"><ele>248.1</ele><time>2026-07-25T19:34:00Z</time></trkpt>
<trkpt lat="35.078869" lon="-85.124337"><ele>249.3</ele><time>2026-07-25T19:34:02Z</time></trkpt>
<trkpt lat="35.078891" lon="-85.1243"><ele>250.5</ele><time>2026-07-25T19:34:05Z</time></trkpt>
<trkpt lat="35.078905" lon="-85.124263"><ele>251.2</ele><time>2026-07-25T19:34:08Z</time></trkpt>
<trkpt lat="35.07892" lon="-85.124224"><ele>253.3</ele><time>2026-07-25T19:34:11Z</time></trkpt>
<trkpt lat="35.078933" lon="-85.124194"><ele>253.0</ele><time>2026-07-25T19:34:14Z</time></trkpt>
<trkpt lat="35.078946" lon="-85.124161"><ele>254.8</ele><time>2026-07-25T19:34:17Z</time></trkpt>
<trkpt lat="35.078952" lon="-85.124117"><ele>254.8</ele><time>2026-07-25T19:34:20Z</time></trkpt>
<trkpt lat="35.078961" lon="-85.124073"><ele>254.8</ele><time>2026-07-25T19:34:23Z</time></trkpt>
<trkpt lat="35.078965" lon="-85.124026"><ele>255.1</ele><time>2026-07-25T19:34:26Z</time></trkpt>
<trkpt lat="35.078972" lon="-85.123986"><ele>253.9</ele><time>2026-07-25T19:34:29Z</time></trkpt>
<trkpt lat="35.078985" lon="-85.123943"><ele>254.8</ele><time>2026-07-25T19:34:32Z</time></trkpt>
<trkpt lat="35.078998" lon="-85.123902"><ele>254.2</ele><time>2026-07-25T19:34:35Z</time></trkpt>
<trkpt lat="35.07901" lon="-85.123855"><ele>254.5</ele><time>2026-07-25T19:34:38Z</time></trkpt>
<trkpt lat="35.079017" lon="-85.123809"><ele>254.8</ele><time>2026-07-25T19:34:41Z</time></trkpt>
<trkpt lat="35.079028" lon="-85.123766"><ele>256.0</ele><time>2026-07-25T19:34:44Z</time></trkpt>
<trkpt lat="35.079045" lon="-85.123726"><ele>255.7</ele><time>2026-07-25T19:34:47Z</time></trkpt>
<trkpt lat="35.079039" lon="-85.123683"><ele>253.6</ele><time>2026-07-25T19:34:50Z</time></trkpt>
<trkpt lat="35.07903" lon="-85.123644"><ele>254.2</ele><time>2026-07-25T19:34:53Z</time></trkpt>
<trkpt lat="35.079038" lon="-85.123605"><ele>254.8</ele><time>2026-07-25T19:34:56Z</time></trkpt>
<trkpt lat="35.079046" lon="-85.123567"><ele>256.3</ele><time>2026-07-25T19:34:59Z</time></trkpt>
<trkpt lat="35.079058" lon="-85.123528"><ele>256.6</ele><time>2026-07-25T19:35:02Z</time></trkpt>
<trkpt lat="35.079075" lon="-85.123493"><ele>257.9</ele><time>2026-07-25T19:35:05Z</time></trkpt>
<trkpt lat="35.079091" lon="-85.123453"><ele>258.8</ele><time>2026-07-25T19:35:08Z</time></trkpt>
<trkpt lat="35.079104" lon="-85.123408"><ele>258.8</ele><time>2026-07-25T19:35:11Z</time></trkpt>
<trkpt lat="35.079116" lon="-85.123369"><ele>259.7</ele><time>2026-07-25T19:35:14Z</time></trkpt>
<trkpt lat="35.079125" lon="-85.123328"><ele>259.1</ele><time>2026-07-25T19:35:17Z</time></trkpt>
<trkpt lat="35.079143" lon="-85.123289"><ele>258.8</ele><time>2026-07-25T19:35:20Z</time></trkpt>
<trkpt lat="35.079162" lon="-85.123263"><ele>258.2</ele><time>2026-07-25T19:35:22Z</time></trkpt>
<trkpt lat="35.079171" lon="-85.123231"><ele>259.1</ele><time>2026-07-25T19:35:24Z</time></trkpt>
<trkpt lat="35.079183" lon="-85.123186"><ele>259.1</ele><time>2026-07-25T19:35:27Z</time></trkpt>
<trkpt lat="35.079193" lon="-85.123155"><ele>260.0</ele><time>2026-07-25T19:35:29Z</time></trkpt>
<trkpt lat="35.079196" lon="-85.12312"><ele>259.7</ele><time>2026-07-25T19:35:31Z</time></trkpt>
<trkpt lat="35.07921" lon="-85.123091"><ele>260.9</ele><time>2026-07-25T19:35:33Z</time></trkpt>
<trkpt lat="35.079228" lon="-85.12305"><ele>260.9</ele><time>2026-07-25T19:35:36Z</time></trkpt>
<trkpt lat="35.079238" lon="-85.123004"><ele>262.1</ele><time>2026-07-25T19:35:39Z</time></trkpt>
<trkpt lat="35.079251" lon="-85.122958"><ele>263.7</ele><time>2026-07-25T19:35:42Z</time></trkpt>
<trkpt lat="35.07926" lon="-85.122925"><ele>264.6</ele><time>2026-07-25T19:35:44Z</time></trkpt>
<trkpt lat="35.079252" lon="-85.122881"><ele>263.0</ele><time>2026-07-25T19:35:46Z</time></trkpt>
<trkpt lat="35.079249" lon="-85.122846"><ele>263.7</ele><time>2026-07-25T19:35:48Z</time></trkpt>
<trkpt lat="35.079253" lon="-85.122812"><ele>264.0</ele><time>2026-07-25T19:35:50Z</time></trkpt>
<trkpt lat="35.079252" lon="-85.122766"><ele>265.5</ele><time>2026-07-25T19:35:53Z</time></trkpt>
<trkpt lat="35.079266" lon="-85.122732"><ele>266.4</ele><time>2026-07-25T19:35:55Z</time></trkpt>
<trkpt lat="35.079267" lon="-85.122686"><ele>264.6</ele><time>2026-07-25T19:35:58Z</time></trkpt>
<trkpt lat="35.079264" lon="-85.122653"><ele>262.7</ele><time>2026-07-25T19:36:00Z</time></trkpt>
<trkpt lat="35.079256" lon="-85.122605"><ele>262.7</ele><time>2026-07-25T19:36:03Z</time></trkpt>
<trkpt lat="35.079253" lon="-85.122565"><ele>261.8</ele><time>2026-07-25T19:36:05Z</time></trkpt>
<trkpt lat="35.079254" lon="-85.122515"><ele>260.9</ele><time>2026-07-25T19:36:08Z</time></trkpt>
<trkpt lat="35.07925" lon="-85.12248"><ele>259.4</ele><time>2026-07-25T19:36:10Z</time></trkpt>
<trkpt lat="35.079244" lon="-85.122445"><ele>260.0</ele><time>2026-07-25T19:36:12Z</time></trkpt>
<trkpt lat="35.079246" lon="-85.12241"><ele>261.2</ele><time>2026-07-25T19:36:14Z</time></trkpt>
<trkpt lat="35.079251" lon="-85.122373"><ele>260.9</ele><time>2026-07-25T19:36:16Z</time></trkpt>
<trkpt lat="35.079257" lon="-85.12233"><ele>260.9</ele><time>2026-07-25T19:36:19Z</time></trkpt>
<trkpt lat="35.079269" lon="-85.122291"><ele>261.8</ele><time>2026-07-25T19:36:22Z</time></trkpt>
<trkpt lat="35.079283" lon="-85.12225"><ele>261.5</ele><time>2026-07-25T19:36:25Z</time></trkpt>
<trkpt lat="35.079311" lon="-85.122214"><ele>261.2</ele><time>2026-07-25T19:36:28Z</time></trkpt>
<trkpt lat="35.079322" lon="-85.122172"><ele>261.5</ele><time>2026-07-25T19:36:31Z</time></trkpt>
<trkpt lat="35.079343" lon="-85.122133"><ele>262.4</ele><time>2026-07-25T19:36:34Z</time></trkpt>
<trkpt lat="35.079351" lon="-85.122088"><ele>261.5</ele><time>2026-07-25T19:36:37Z</time></trkpt>
<trkpt lat="35.079363" lon="-85.122057"><ele>260.0</ele><time>2026-07-25T19:36:39Z</time></trkpt>
<trkpt lat="35.079375" lon="-85.122027"><ele>260.0</ele><time>2026-07-25T19:36:41Z</time></trkpt>
<trkpt lat="35.079396" lon="-85.121987"><ele>260.6</ele><time>2026-07-25T19:36:44Z</time></trkpt>
<trkpt lat="35.079404" lon="-85.121939"><ele>260.0</ele><time>2026-07-25T19:36:47Z</time></trkpt>
<trkpt lat="35.079404" lon="-85.121905"><ele>260.6</ele><time>2026-07-25T19:36:49Z</time></trkpt>
<trkpt lat="35.079404" lon="-85.121861"><ele>260.3</ele><time>2026-07-25T19:36:52Z</time></trkpt>
<trkpt lat="35.079415" lon="-85.121815"><ele>260.6</ele><time>2026-07-25T19:36:55Z</time></trkpt>
<trkpt lat="35.079414" lon="-85.121768"><ele>261.2</ele><time>2026-07-25T19:36:58Z</time></trkpt>
<trkpt lat="35.079428" lon="-85.121725"><ele>260.9</ele><time>2026-07-25T19:37:01Z</time></trkpt>
<trkpt lat="35.079445" lon="-85.121685"><ele>261.5</ele><time>2026-07-25T19:37:04Z</time></trkpt>
<trkpt lat="35.079469" lon="-85.121653"><ele>261.2</ele><time>2026-07-25T19:37:07Z</time></trkpt>
<trkpt lat="35.079499" lon="-85.121626"><ele>260.0</ele><time>2026-07-25T19:37:10Z</time></trkpt>
<trkpt lat="35.079529" lon="-85.121606"><ele>259.7</ele><time>2026-07-25T19:37:13Z</time></trkpt>
<trkpt lat="35.079557" lon="-85.121579"><ele>259.7</ele><time>2026-07-25T19:37:16Z</time></trkpt>
<trkpt lat="35.079587" lon="-85.12155"><ele>261.2</ele><time>2026-07-25T19:37:19Z</time></trkpt>
<trkpt lat="35.079613" lon="-85.121535"><ele>263.7</ele><time>2026-07-25T19:37:21Z</time></trkpt>
<trkpt lat="35.079648" lon="-85.121509"><ele>263.0</ele><time>2026-07-25T19:37:24Z</time></trkpt>
<trkpt lat="35.079684" lon="-85.12149"><ele>260.9</ele><time>2026-07-25T19:37:27Z</time></trkpt>
<trkpt lat="35.079718" lon="-85.121471"><ele>260.0</ele><time>2026-07-25T19:37:30Z</time></trkpt>
<trkpt lat="35.079751" lon="-85.121447"><ele>260.6</ele><time>2026-07-25T19:37:33Z</time></trkpt>
<trkpt lat="35.079788" lon="-85.121428"><ele>261.5</ele><time>2026-07-25T19:37:36Z</time></trkpt>
<trkpt lat="35.079818" lon="-85.121396"><ele>262.7</ele><time>2026-07-25T19:37:39Z</time></trkpt>
<trkpt lat="35.079843" lon="-85.121378"><ele>261.2</ele><time>2026-07-25T19:37:41Z</time></trkpt>
<trkpt lat="35.079866" lon="-85.121357"><ele>261.2</ele><time>2026-07-25T19:37:43Z</time></trkpt>
<trkpt lat="35.079902" lon="-85.121343"><ele>261.2</ele><time>2026-07-25T19:37:46Z</time></trkpt>
<trkpt lat="35.079936" lon="-85.121334"><ele>262.1</ele><time>2026-07-25T19:37:49Z</time></trkpt>
<trkpt lat="35.079969" lon="-85.12131"><ele>261.2</ele><time>2026-07-25T19:37:52Z</time></trkpt>
<trkpt lat="35.079998" lon="-85.121283"><ele>262.4</ele><time>2026-07-25T19:37:55Z</time></trkpt>
<trkpt lat="35.08003" lon="-85.121255"><ele>262.7</ele><time>2026-07-25T19:37:58Z</time></trkpt>
<trkpt lat="35.080061" lon="-85.121227"><ele>263.7</ele><time>2026-07-25T19:38:01Z</time></trkpt>
<trkpt lat="35.080084" lon="-85.121207"><ele>263.3</ele><time>2026-07-25T19:38:03Z</time></trkpt>
<trkpt lat="35.08012" lon="-85.121185"><ele>263.0</ele><time>2026-07-25T19:38:06Z</time></trkpt>
<trkpt lat="35.080155" lon="-85.121159"><ele>264.3</ele><time>2026-07-25T19:38:09Z</time></trkpt>
<trkpt lat="35.080179" lon="-85.121139"><ele>264.0</ele><time>2026-07-25T19:38:11Z</time></trkpt>
<trkpt lat="35.0802" lon="-85.121103"><ele>264.0</ele><time>2026-07-25T19:38:14Z</time></trkpt>
<trkpt lat="35.08022" lon="-85.121064"><ele>264.6</ele><time>2026-07-25T19:38:17Z</time></trkpt>
<trkpt lat="35.080242" lon="-85.121027"><ele>263.0</ele><time>2026-07-25T19:38:20Z</time></trkpt>
<trkpt lat="35.080275" lon="-85.121002"><ele>261.8</ele><time>2026-07-25T19:38:23Z</time></trkpt>
<trkpt lat="35.080309" lon="-85.120979"><ele>260.6</ele><time>2026-07-25T19:38:26Z</time></trkpt>
<trkpt lat="35.080341" lon="-85.120953"><ele>259.4</ele><time>2026-07-25T19:38:29Z</time></trkpt>
<trkpt lat="35.080367" lon="-85.12094"><ele>258.5</ele><time>2026-07-25T19:38:31Z</time></trkpt>
<trkpt lat="35.080399" lon="-85.120917"><ele>257.3</ele><time>2026-07-25T19:38:34Z</time></trkpt>
<trkpt lat="35.08043" lon="-85.120891"><ele>257.3</ele><time>2026-07-25T19:38:37Z</time></trkpt>
<trkpt lat="35.080454" lon="-85.12085"><ele>256.6</ele><time>2026-07-25T19:38:40Z</time></trkpt>
<trkpt lat="35.080459" lon="-85.120813"><ele>256.0</ele><time>2026-07-25T19:38:42Z</time></trkpt>
<trkpt lat="35.080458" lon="-85.120775"><ele>256.9</ele><time>2026-07-25T19:38:44Z</time></trkpt>
<trkpt lat="35.08045" lon="-85.120726"><ele>257.3</ele><time>2026-07-25T19:38:47Z</time></trkpt>
<trkpt lat="35.080438" lon="-85.120695"><ele>258.8</ele><time>2026-07-25T19:38:49Z</time></trkpt>
<trkpt lat="35.080423" lon="-85.120649"><ele>259.1</ele><time>2026-07-25T19:38:52Z</time></trkpt>
<trkpt lat="35.080415" lon="-85.120616"><ele>259.7</ele><time>2026-07-25T19:38:54Z</time></trkpt>
<trkpt lat="35.080413" lon="-85.120565"><ele>260.0</ele><time>2026-07-25T19:38:57Z</time></trkpt>
<trkpt lat="35.080437" lon="-85.120533"><ele>260.0</ele><time>2026-07-25T19:39:00Z</time></trkpt>
<trkpt lat="35.080465" lon="-85.120535"><ele>260.0</ele><time>2026-07-25T19:39:02Z</time></trkpt>
<trkpt lat="35.080501" lon="-85.120521"><ele>260.0</ele><time>2026-07-25T19:39:05Z</time></trkpt>
<trkpt lat="35.080537" lon="-85.120501"><ele>259.1</ele><time>2026-07-25T19:39:08Z</time></trkpt>
<trkpt lat="35.080572" lon="-85.120481"><ele>259.4</ele><time>2026-07-25T19:39:11Z</time></trkpt>
<trkpt lat="35.080599" lon="-85.120448"><ele>259.7</ele><time>2026-07-25T19:39:14Z</time></trkpt>
<trkpt lat="35.080626" lon="-85.120416"><ele>259.7</ele><time>2026-07-25T19:39:17Z</time></trkpt>
<trkpt lat="35.080658" lon="-85.120388"><ele>258.8</ele><time>2026-07-25T19:39:20Z</time></trkpt>
<trkpt lat="35.080685" lon="-85.120358"><ele>258.8</ele><time>2026-07-25T19:39:23Z</time></trkpt>
<trkpt lat="35.080716" lon="-85.120329"><ele>259.4</ele><time>2026-07-25T19:39:26Z</time></trkpt>
<trkpt lat="35.080747" lon="-85.120309"><ele>260.3</ele><time>2026-07-25T19:39:29Z</time></trkpt>
<trkpt lat="35.080768" lon="-85.120273"><ele>259.1</ele><time>2026-07-25T19:39:32Z</time></trkpt>
<trkpt lat="35.080791" lon="-85.120252"><ele>259.1</ele><time>2026-07-25T19:39:34Z</time></trkpt>
<trkpt lat="35.080823" lon="-85.120226"><ele>257.9</ele><time>2026-07-25T19:39:37Z</time></trkpt>
<trkpt lat="35.080855" lon="-85.120199"><ele>259.1</ele><time>2026-07-25T19:39:40Z</time></trkpt>
<trkpt lat="35.080881" lon="-85.120187"><ele>258.8</ele><time>2026-07-25T19:39:42Z</time></trkpt>
<trkpt lat="35.080911" lon="-85.120159"><ele>259.7</ele><time>2026-07-25T19:39:45Z</time></trkpt>
<trkpt lat="35.080938" lon="-85.120125"><ele>260.6</ele><time>2026-07-25T19:39:48Z</time></trkpt>
<trkpt lat="35.080962" lon="-85.120093"><ele>263.3</ele><time>2026-07-25T19:39:51Z</time></trkpt>
<trkpt lat="35.080975" lon="-85.120063"><ele>263.7</ele><time>2026-07-25T19:39:53Z</time></trkpt>
<trkpt lat="35.080999" lon="-85.120045"><ele>264.3</ele><time>2026-07-25T19:39:55Z</time></trkpt>
<trkpt lat="35.08102" lon="-85.12002"><ele>261.2</ele><time>2026-07-25T19:39:57Z</time></trkpt>
<trkpt lat="35.081039" lon="-85.119977"><ele>262.4</ele><time>2026-07-25T19:40:00Z</time></trkpt>
<trkpt lat="35.081058" lon="-85.119937"><ele>260.3</ele><time>2026-07-25T19:40:03Z</time></trkpt>
<trkpt lat="35.081067" lon="-85.119902"><ele>257.6</ele><time>2026-07-25T19:40:05Z</time></trkpt>
<trkpt lat="35.081074" lon="-85.119869"><ele>257.6</ele><time>2026-07-25T19:40:07Z</time></trkpt>
<trkpt lat="35.081096" lon="-85.119832"><ele>259.4</ele><time>2026-07-25T19:40:10Z</time></trkpt>
<trkpt lat="35.081123" lon="-85.119824"><ele>258.5</ele><time>2026-07-25T19:40:12Z</time></trkpt>
<trkpt lat="35.081162" lon="-85.119813"><ele>258.2</ele><time>2026-07-25T19:40:15Z</time></trkpt>
<trkpt lat="35.081189" lon="-85.119786"><ele>256.6</ele><time>2026-07-25T19:40:18Z</time></trkpt>
<trkpt lat="35.081217" lon="-85.119761"><ele>259.1</ele><time>2026-07-25T19:40:21Z</time></trkpt>
<trkpt lat="35.081247" lon="-85.119737"><ele>259.1</ele><time>2026-07-25T19:40:24Z</time></trkpt>
<trkpt lat="35.081267" lon="-85.119708"><ele>259.7</ele><time>2026-07-25T19:40:27Z</time></trkpt>
<trkpt lat="35.0813" lon="-85.11968"><ele>258.8</ele><time>2026-07-25T19:40:30Z</time></trkpt>
<trkpt lat="35.081328" lon="-85.119663"><ele>260.0</ele><time>2026-07-25T19:40:32Z</time></trkpt>
<trkpt lat="35.081358" lon="-85.119633"><ele>261.8</ele><time>2026-07-25T19:40:35Z</time></trkpt>
<trkpt lat="35.081384" lon="-85.119601"><ele>260.6</ele><time>2026-07-25T19:40:38Z</time></trkpt>
<trkpt lat="35.081409" lon="-85.119567"><ele>259.4</ele><time>2026-07-25T19:40:41Z</time></trkpt>
<trkpt lat="35.081428" lon="-85.119527"><ele>259.4</ele><time>2026-07-25T19:40:44Z</time></trkpt>
<trkpt lat="35.081449" lon="-85.119484"><ele>260.6</ele><time>2026-07-25T19:40:47Z</time></trkpt>
<trkpt lat="35.081474" lon="-85.119447"><ele>262.1</ele><time>2026-07-25T19:40:50Z</time></trkpt>
<trkpt lat="35.0815" lon="-85.119425"><ele>262.7</ele><time>2026-07-25T19:40:53Z</time></trkpt>
<trkpt lat="35.081528" lon="-85.119395"><ele>265.5</ele><time>2026-07-25T19:40:56Z</time></trkpt>
<trkpt lat="35.081558" lon="-85.119362"><ele>268.2</ele><time>2026-07-25T19:40:59Z</time></trkpt>
<trkpt lat="35.08158" lon="-85.119343"><ele>268.2</ele><time>2026-07-25T19:41:01Z</time></trkpt>
<trkpt lat="35.081602" lon="-85.119299"><ele>267.3</ele><time>2026-07-25T19:41:04Z</time></trkpt>
<trkpt lat="35.081627" lon="-85.119261"><ele>267.3</ele><time>2026-07-25T19:41:07Z</time></trkpt>
<trkpt lat="35.081654" lon="-85.11923"><ele>267.3</ele><time>2026-07-25T19:41:10Z</time></trkpt>
<trkpt lat="35.081686" lon="-85.119208"><ele>267.3</ele><time>2026-07-25T19:41:13Z</time></trkpt>
<trkpt lat="35.081716" lon="-85.11918"><ele>267.6</ele><time>2026-07-25T19:41:16Z</time></trkpt>
<trkpt lat="35.081751" lon="-85.119157"><ele>266.4</ele><time>2026-07-25T19:41:19Z</time></trkpt>
<trkpt lat="35.081784" lon="-85.11913"><ele>265.8</ele><time>2026-07-25T19:41:22Z</time></trkpt>
<trkpt lat="35.081807" lon="-85.119093"><ele>265.2</ele><time>2026-07-25T19:41:25Z</time></trkpt>
<trkpt lat="35.081829" lon="-85.119062"><ele>262.4</ele><time>2026-07-25T19:41:28Z</time></trkpt>
<trkpt lat="35.081851" lon="-85.119026"><ele>262.1</ele><time>2026-07-25T19:41:31Z</time></trkpt>
<trkpt lat="35.081877" lon="-85.118997"><ele>262.4</ele><time>2026-07-25T19:41:34Z</time></trkpt>
<trkpt lat="35.081897" lon="-85.118956"><ele>263.7</ele><time>2026-07-25T19:41:37Z</time></trkpt>
<trkpt lat="35.081916" lon="-85.118911"><ele>263.7</ele><time>2026-07-25T19:41:40Z</time></trkpt>
<trkpt lat="35.081925" lon="-85.118878"><ele>264.0</ele><time>2026-07-25T19:41:42Z</time></trkpt>
<trkpt lat="35.081937" lon="-85.11883"><ele>264.0</ele><time>2026-07-25T19:41:45Z</time></trkpt>
<trkpt lat="35.081946" lon="-85.118797"><ele>263.3</ele><time>2026-07-25T19:41:47Z</time></trkpt>
<trkpt lat="35.081955" lon="-85.118765"><ele>263.3</ele><time>2026-07-25T19:41:49Z</time></trkpt>
<trkpt lat="35.081973" lon="-85.118725"><ele>264.6</ele><time>2026-07-25T19:41:52Z</time></trkpt>
<trkpt lat="35.082004" lon="-85.118697"><ele>265.5</ele><time>2026-07-25T19:41:55Z</time></trkpt>
<trkpt lat="35.082029" lon="-85.118666"><ele>264.9</ele><time>2026-07-25T19:41:58Z</time></trkpt>
<trkpt lat="35.082056" lon="-85.118638"><ele>264.0</ele><time>2026-07-25T19:42:01Z</time></trkpt>
<trkpt lat="35.082085" lon="-85.118612"><ele>264.3</ele><time>2026-07-25T19:42:04Z</time></trkpt>
<trkpt lat="35.082116" lon="-85.118582"><ele>264.6</ele><time>2026-07-25T19:42:07Z</time></trkpt>
<trkpt lat="35.08215" lon="-85.118561"><ele>263.3</ele><time>2026-07-25T19:42:10Z</time></trkpt>
<trkpt lat="35.082189" lon="-85.118544"><ele>264.0</ele><time>2026-07-25T19:42:13Z</time></trkpt>
<trkpt lat="35.082215" lon="-85.118526"><ele>262.1</ele><time>2026-07-25T19:42:15Z</time></trkpt>
<trkpt lat="35.08224" lon="-85.118488"><ele>262.4</ele><time>2026-07-25T19:42:18Z</time></trkpt>
<trkpt lat="35.082256" lon="-85.118451"><ele>263.7</ele><time>2026-07-25T19:42:21Z</time></trkpt>
<trkpt lat="35.082276" lon="-85.118419"><ele>265.8</ele><time>2026-07-25T19:42:24Z</time></trkpt>
<trkpt lat="35.082303" lon="-85.118392"><ele>265.5</ele><time>2026-07-25T19:42:27Z</time></trkpt>
<trkpt lat="35.082333" lon="-85.118376"><ele>265.5</ele><time>2026-07-25T19:42:30Z</time></trkpt>
<trkpt lat="35.082366" lon="-85.118354"><ele>266.1</ele><time>2026-07-25T19:42:33Z</time></trkpt>
<trkpt lat="35.082403" lon="-85.118333"><ele>265.5</ele><time>2026-07-25T19:42:36Z</time></trkpt>
<trkpt lat="35.082422" lon="-85.118304"><ele>264.6</ele><time>2026-07-25T19:42:38Z</time></trkpt>
<trkpt lat="35.082439" lon="-85.118274"><ele>264.6</ele><time>2026-07-25T19:42:40Z</time></trkpt>
<trkpt lat="35.082456" lon="-85.118244"><ele>262.1</ele><time>2026-07-25T19:42:42Z</time></trkpt>
<trkpt lat="35.082482" lon="-85.118207"><ele>263.0</ele><time>2026-07-25T19:42:45Z</time></trkpt>
<trkpt lat="35.082498" lon="-85.118175"><ele>262.4</ele><time>2026-07-25T19:42:47Z</time></trkpt>
<trkpt lat="35.082517" lon="-85.118149"><ele>263.0</ele><time>2026-07-25T19:42:49Z</time></trkpt>
<trkpt lat="35.082548" lon="-85.118123"><ele>264.0</ele><time>2026-07-25T19:42:52Z</time></trkpt>
<trkpt lat="35.082584" lon="-85.118103"><ele>263.7</ele><time>2026-07-25T19:42:55Z</time></trkpt>
<trkpt lat="35.082622" lon="-85.118089"><ele>264.9</ele><time>2026-07-25T19:42:58Z</time></trkpt>
<trkpt lat="35.082657" lon="-85.118073"><ele>265.2</ele><time>2026-07-25T19:43:01Z</time></trkpt>
<trkpt lat="35.082689" lon="-85.118045"><ele>265.8</ele><time>2026-07-25T19:43:04Z</time></trkpt>
<trkpt lat="35.082721" lon="-85.118019"><ele>266.1</ele><time>2026-07-25T19:43:07Z</time></trkpt>
<trkpt lat="35.082754" lon="-85.11799"><ele>266.4</ele><time>2026-07-25T19:43:10Z</time></trkpt>
<trkpt lat="35.082778" lon="-85.117969"><ele>267.6</ele><time>2026-07-25T19:43:12Z</time></trkpt>
<trkpt lat="35.082803" lon="-85.117956"><ele>267.9</ele><time>2026-07-25T19:43:14Z</time></trkpt>
<trkpt lat="35.082833" lon="-85.117945"><ele>267.3</ele><time>2026-07-25T19:43:16Z</time></trkpt>
<trkpt lat="35.082857" lon="-85.117927"><ele>267.9</ele><time>2026-07-25T19:43:18Z</time></trkpt>
<trkpt lat="35.082889" lon="-85.117897"><ele>269.4</ele><time>2026-07-25T19:43:21Z</time></trkpt>
<trkpt lat="35.082924" lon="-85.117878"><ele>269.1</ele><time>2026-07-25T19:43:24Z</time></trkpt>
<trkpt lat="35.08295" lon="-85.117863"><ele>269.1</ele><time>2026-07-25T19:43:26Z</time></trkpt>
<trkpt lat="35.082978" lon="-85.117838"><ele>269.4</ele><time>2026-07-25T19:43:29Z</time></trkpt>
<trkpt lat="35.083008" lon="-85.11782"><ele>271.3</ele><time>2026-07-25T19:43:32Z</time></trkpt>
<trkpt lat="35.083041" lon="-85.1178"><ele>271.6</ele><time>2026-07-25T19:43:35Z</time></trkpt>
<trkpt lat="35.083075" lon="-85.117777"><ele>273.1</ele><time>2026-07-25T19:43:38Z</time></trkpt>
<trkpt lat="35.083115" lon="-85.11777"><ele>272.5</ele><time>2026-07-25T19:43:41Z</time></trkpt>
<trkpt lat="35.083148" lon="-85.117786"><ele>268.5</ele><time>2026-07-25T19:43:44Z</time></trkpt>
<trkpt lat="35.083177" lon="-85.117807"><ele>266.7</ele><time>2026-07-25T19:43:47Z</time></trkpt>
<trkpt lat="35.083207" lon="-85.117836"><ele>269.1</ele><time>2026-07-25T19:43:50Z</time></trkpt>
<trkpt lat="35.083244" lon="-85.117844"><ele>269.4</ele><time>2026-07-25T19:43:53Z</time></trkpt>
<trkpt lat="35.08327" lon="-85.117831"><ele>267.0</ele><time>2026-07-25T19:43:55Z</time></trkpt>
<trkpt lat="35.083291" lon="-85.11781"><ele>268.5</ele><time>2026-07-25T19:43:57Z</time></trkpt>
<trkpt lat="35.083317" lon="-85.117774"><ele>265.8</ele><time>2026-07-25T19:44:00Z</time></trkpt>
<trkpt lat="35.083337" lon="-85.117749"><ele>265.8</ele><time>2026-07-25T19:44:02Z</time></trkpt>
<trkpt lat="35.083353" lon="-85.11772"><ele>265.8</ele><time>2026-07-25T19:44:04Z</time></trkpt>
<trkpt lat="35.083377" lon="-85.11768"><ele>266.1</ele><time>2026-07-25T19:44:07Z</time></trkpt>
<trkpt lat="35.083388" lon="-85.117646"><ele>266.4</ele><time>2026-07-25T19:44:09Z</time></trkpt>
<trkpt lat="35.0834" lon="-85.117613"><ele>265.5</ele><time>2026-07-25T19:44:11Z</time></trkpt>
<trkpt lat="35.083408" lon="-85.117577"><ele>265.5</ele><time>2026-07-25T19:44:13Z</time></trkpt>
<trkpt lat="35.083436" lon="-85.117551"><ele>265.2</ele><time>2026-07-25T19:44:15Z</time></trkpt>
<trkpt lat="35.083473" lon="-85.117552"><ele>264.3</ele><time>2026-07-25T19:44:17Z</time></trkpt>
<trkpt lat="35.083513" lon="-85.117551"><ele>265.5</ele><time>2026-07-25T19:44:20Z</time></trkpt>
<trkpt lat="35.083548" lon="-85.11755"><ele>267.6</ele><time>2026-07-25T19:44:23Z</time></trkpt>
<trkpt lat="35.083579" lon="-85.117555"><ele>268.5</ele><time>2026-07-25T19:44:25Z</time></trkpt>
<trkpt lat="35.083615" lon="-85.11754"><ele>268.2</ele><time>2026-07-25T19:44:28Z</time></trkpt>
<trkpt lat="35.08363" lon="-85.11751"><ele>268.2</ele><time>2026-07-25T19:44:30Z</time></trkpt>
<trkpt lat="35.083657" lon="-85.117474"><ele>269.4</ele><time>2026-07-25T19:44:33Z</time></trkpt>
<trkpt lat="35.083692" lon="-85.117451"><ele>270.4</ele><time>2026-07-25T19:44:36Z</time></trkpt>
<trkpt lat="35.083731" lon="-85.117453"><ele>267.9</ele><time>2026-07-25T19:44:39Z</time></trkpt>
<trkpt lat="35.083769" lon="-85.117447"><ele>268.5</ele><time>2026-07-25T19:44:42Z</time></trkpt>
<trkpt lat="35.083806" lon="-85.117461"><ele>268.8</ele><time>2026-07-25T19:44:45Z</time></trkpt>
<trkpt lat="35.083843" lon="-85.117473"><ele>269.7</ele><time>2026-07-25T19:44:48Z</time></trkpt>
<trkpt lat="35.083884" lon="-85.117467"><ele>269.7</ele><time>2026-07-25T19:44:51Z</time></trkpt>
<trkpt lat="35.083916" lon="-85.117477"><ele>269.4</ele><time>2026-07-25T19:44:53Z</time></trkpt>
<trkpt lat="35.083954" lon="-85.117481"><ele>270.1</ele><time>2026-07-25T19:44:56Z</time></trkpt>
<trkpt lat="35.083983" lon="-85.117458"><ele>272.8</ele><time>2026-07-25T19:44:59Z</time></trkpt>
<trkpt lat="35.083997" lon="-85.117428"><ele>272.8</ele><time>2026-07-25T19:45:01Z</time></trkpt>
<trkpt lat="35.084021" lon="-85.117396"><ele>271.0</ele><time>2026-07-25T19:45:04Z</time></trkpt>
<trkpt lat="35.084033" lon="-85.117358"><ele>270.4</ele><time>2026-07-25T19:45:07Z</time></trkpt>
<trkpt lat="35.084052" lon="-85.117317"><ele>268.5</ele><time>2026-07-25T19:45:10Z</time></trkpt>
<trkpt lat="35.084082" lon="-85.117296"><ele>269.1</ele><time>2026-07-25T19:45:13Z</time></trkpt>
<trkpt lat="35.084114" lon="-85.117291"><ele>268.2</ele><time>2026-07-25T19:45:17Z</time></trkpt>
<trkpt lat="35.084129" lon="-85.117326"><ele>268.2</ele><time>2026-07-25T19:45:20Z</time></trkpt>
<trkpt lat="35.084133" lon="-85.11734"><ele>268.2</ele><time>2026-07-25T19:45:21Z</time></trkpt>
<trkpt lat="35.084129" lon="-85.117355"><ele>267.9</ele><time>2026-07-25T19:45:22Z</time></trkpt>
<trkpt lat="35.084124" lon="-85.117365"><ele>267.9</ele><time>2026-07-25T19:45:25Z</time></trkpt>
<trkpt lat="35.084128" lon="-85.117375"><ele>267.9</ele><time>2026-07-25T19:45:26Z</time></trkpt>
<trkpt lat="35.084133" lon="-85.117417"><ele>266.1</ele><time>2026-07-25T19:45:29Z</time></trkpt>
<trkpt lat="35.084142" lon="-85.117451"><ele>264.6</ele><time>2026-07-25T19:45:32Z</time></trkpt>
<trkpt lat="35.084146" lon="-85.117462"><ele>264.3</ele><time>2026-07-25T19:45:33Z</time></trkpt>
<trkpt lat="35.084145" lon="-85.11746"><ele>264.6</ele><time>2026-07-25T19:45:34Z</time></trkpt>
<trkpt lat="35.084156" lon="-85.11746"><ele>264.0</ele><time>2026-07-25T19:45:52Z</time></trkpt>
<trkpt lat="35.084139" lon="-85.117471"><ele>265.5</ele><time>2026-07-25T19:45:53Z</time></trkpt>
<trkpt lat="35.084118" lon="-85.117416"><ele>263.3</ele><time>2026-07-25T19:45:55Z</time></trkpt>
<trkpt lat="35.08411" lon="-85.117362"><ele>274.6</ele><time>2026-07-25T19:45:57Z</time></trkpt>
<trkpt lat="35.084129" lon="-85.117311"><ele>268.8</ele><time>2026-07-25T19:45:59Z</time></trkpt>
<trkpt lat="35.084153" lon="-85.117272"><ele>269.1</ele><time>2026-07-25T19:46:02Z</time></trkpt>
<trkpt lat="35.084178" lon="-85.117257"><ele>265.8</ele><time>2026-07-25T19:46:04Z</time></trkpt>
<trkpt lat="35.084203" lon="-85.117242"><ele>263.0</ele><time>2026-07-25T19:46:06Z</time></trkpt>
<trkpt lat="35.084239" lon="-85.117223"><ele>264.6</ele><time>2026-07-25T19:46:09Z</time></trkpt>
<trkpt lat="35.084268" lon="-85.117225"><ele>266.4</ele><time>2026-07-25T19:46:12Z</time></trkpt>
<trkpt lat="35.084298" lon="-85.117231"><ele>267.9</ele><time>2026-07-25T19:46:15Z</time></trkpt>
<trkpt lat="35.084329" lon="-85.117229"><ele>268.8</ele><time>2026-07-25T19:46:18Z</time></trkpt>
<trkpt lat="35.084369" lon="-85.117216"><ele>267.3</ele><time>2026-07-25T19:46:20Z</time></trkpt>
<trkpt lat="35.084403" lon="-85.117198"><ele>268.2</ele><time>2026-07-25T19:46:22Z</time></trkpt>
<trkpt lat="35.084434" lon="-85.117182"><ele>269.4</ele><time>2026-07-25T19:46:24Z</time></trkpt>
<trkpt lat="35.084456" lon="-85.11716"><ele>270.1</ele><time>2026-07-25T19:46:26Z</time></trkpt>
<trkpt lat="35.084479" lon="-85.117141"><ele>270.4</ele><time>2026-07-25T19:46:28Z</time></trkpt>
<trkpt lat="35.084512" lon="-85.117111"><ele>271.3</ele><time>2026-07-25T19:46:31Z</time></trkpt>
<trkpt lat="35.084537" lon="-85.117092"><ele>270.7</ele><time>2026-07-25T19:46:33Z</time></trkpt>
<trkpt lat="35.084565" lon="-85.117078"><ele>270.7</ele><time>2026-07-25T19:46:35Z</time></trkpt>
<trkpt lat="35.084596" lon="-85.117072"><ele>270.4</ele><time>2026-07-25T19:46:37Z</time></trkpt>
<trkpt lat="35.084622" lon="-85.117056"><ele>271.0</ele><time>2026-07-25T19:46:39Z</time></trkpt>
<trkpt lat="35.08466" lon="-85.11705"><ele>271.9</ele><time>2026-07-25T19:46:42Z</time></trkpt>
<trkpt lat="35.084689" lon="-85.117049"><ele>271.3</ele><time>2026-07-25T19:46:45Z</time></trkpt>
<trkpt lat="35.084723" lon="-85.117052"><ele>271.6</ele><time>2026-07-25T19:46:48Z</time></trkpt>
<trkpt lat="35.084754" lon="-85.117073"><ele>271.9</ele><time>2026-07-25T19:46:51Z</time></trkpt>
<trkpt lat="35.084786" lon="-85.117086"><ele>273.1</ele><time>2026-07-25T19:46:54Z</time></trkpt>
<trkpt lat="35.084824" lon="-85.117089"><ele>272.5</ele><time>2026-07-25T19:46:57Z</time></trkpt>
<trkpt lat="35.084856" lon="-85.117088"><ele>271.9</ele><time>2026-07-25T19:46:59Z</time></trkpt>
<trkpt lat="35.084883" lon="-85.117065"><ele>269.1</ele><time>2026-07-25T19:47:01Z</time></trkpt>
<trkpt lat="35.084907" lon="-85.117045"><ele>270.4</ele><time>2026-07-25T19:47:03Z</time></trkpt>
<trkpt lat="35.084933" lon="-85.117022"><ele>269.7</ele><time>2026-07-25T19:47:05Z</time></trkpt>
<trkpt lat="35.084954" lon="-85.116996"><ele>270.1</ele><time>2026-07-25T19:47:07Z</time></trkpt>
<trkpt lat="35.08498" lon="-85.116975"><ele>270.7</ele><time>2026-07-25T19:47:09Z</time></trkpt>
<trkpt lat="35.085006" lon="-85.116959"><ele>273.1</ele><time>2026-07-25T19:47:11Z</time></trkpt>
<trkpt lat="35.085033" lon="-85.116956"><ele>271.9</ele><time>2026-07-25T19:47:14Z</time></trkpt>
<trkpt lat="35.085065" lon="-85.116965"><ele>275.2</ele><time>2026-07-25T19:47:17Z</time></trkpt>
<trkpt lat="35.085095" lon="-85.116974"><ele>273.7</ele><time>2026-07-25T19:47:21Z</time></trkpt>
<trkpt lat="35.085126" lon="-85.116967"><ele>274.0</ele><time>2026-07-25T19:47:24Z</time></trkpt>
<trkpt lat="35.085161" lon="-85.116943"><ele>271.3</ele><time>2026-07-25T19:47:27Z</time></trkpt>
<trkpt lat="35.085182" lon="-85.116921"><ele>270.4</ele><time>2026-07-25T19:47:29Z</time></trkpt>
<trkpt lat="35.085206" lon="-85.116886"><ele>271.9</ele><time>2026-07-25T19:47:32Z</time></trkpt>
<trkpt lat="35.085236" lon="-85.11686"><ele>270.4</ele><time>2026-07-25T19:47:35Z</time></trkpt>
<trkpt lat="35.085269" lon="-85.116835"><ele>272.2</ele><time>2026-07-25T19:47:38Z</time></trkpt>
<trkpt lat="35.085299" lon="-85.116812"><ele>271.9</ele><time>2026-07-25T19:47:41Z</time></trkpt>
<trkpt lat="35.085325" lon="-85.116782"><ele>272.2</ele><time>2026-07-25T19:47:44Z</time></trkpt>
<trkpt lat="35.085358" lon="-85.116763"><ele>273.7</ele><time>2026-07-25T19:47:47Z</time></trkpt>
<trkpt lat="35.085382" lon="-85.116729"><ele>271.3</ele><time>2026-07-25T19:47:50Z</time></trkpt>
<trkpt lat="35.085402" lon="-85.116702"><ele>269.4</ele><time>2026-07-25T19:47:52Z</time></trkpt>
<trkpt lat="35.085432" lon="-85.116675"><ele>270.7</ele><time>2026-07-25T19:47:55Z</time></trkpt>
<trkpt lat="35.085465" lon="-85.116671"><ele>273.4</ele><time>2026-07-25T19:47:57Z</time></trkpt>
<trkpt lat="35.085495" lon="-85.116676"><ele>274.3</ele><time>2026-07-25T19:47:59Z</time></trkpt>
<trkpt lat="35.085524" lon="-85.116681"><ele>273.4</ele><time>2026-07-25T19:48:01Z</time></trkpt>
<trkpt lat="35.085553" lon="-85.116685"><ele>273.1</ele><time>2026-07-25T19:48:03Z</time></trkpt>
<trkpt lat="35.085589" lon="-85.116697"><ele>274.6</ele><time>2026-07-25T19:48:06Z</time></trkpt>
<trkpt lat="35.085621" lon="-85.116711"><ele>276.1</ele><time>2026-07-25T19:48:09Z</time></trkpt>
<trkpt lat="35.085659" lon="-85.116696"><ele>272.8</ele><time>2026-07-25T19:48:12Z</time></trkpt>
<trkpt lat="35.085683" lon="-85.11668"><ele>272.8</ele><time>2026-07-25T19:48:14Z</time></trkpt>
<trkpt lat="35.085713" lon="-85.116646"><ele>273.4</ele><time>2026-07-25T19:48:17Z</time></trkpt>
<trkpt lat="35.085743" lon="-85.116613"><ele>272.5</ele><time>2026-07-25T19:48:20Z</time></trkpt>
<trkpt lat="35.08577" lon="-85.116575"><ele>270.4</ele><time>2026-07-25T19:48:23Z</time></trkpt>
<trkpt lat="35.085758" lon="-85.116525"><ele>270.7</ele><time>2026-07-25T19:48:25Z</time></trkpt>
<trkpt lat="35.085783" lon="-85.116504"><ele>266.7</ele><time>2026-07-25T19:48:27Z</time></trkpt>
<trkpt lat="35.085815" lon="-85.116485"><ele>266.1</ele><time>2026-07-25T19:48:30Z</time></trkpt>
<trkpt lat="35.08585" lon="-85.11647"><ele>267.0</ele><time>2026-07-25T19:48:33Z</time></trkpt>
<trkpt lat="35.085886" lon="-85.116457"><ele>266.7</ele><time>2026-07-25T19:48:36Z</time></trkpt>
<trkpt lat="35.085922" lon="-85.11647"><ele>267.0</ele><time>2026-07-25T19:48:39Z</time></trkpt>
<trkpt lat="35.085941" lon="-85.116496"><ele>267.6</ele><time>2026-07-25T19:48:41Z</time></trkpt>
<trkpt lat="35.085956" lon="-85.116529"><ele>269.4</ele><time>2026-07-25T19:48:43Z</time></trkpt>
<trkpt lat="35.08597" lon="-85.116569"><ele>267.3</ele><time>2026-07-25T19:48:46Z</time></trkpt>
<trkpt lat="35.086002" lon="-85.1166"><ele>269.4</ele><time>2026-07-25T19:48:49Z</time></trkpt>
<trkpt lat="35.086035" lon="-85.116604"><ele>271.9</ele><time>2026-07-25T19:48:52Z</time></trkpt>
<trkpt lat="35.086066" lon="-85.116608"><ele>273.4</ele><time>2026-07-25T19:48:55Z</time></trkpt>
<trkpt lat="35.0861" lon="-85.11661"><ele>276.1</ele><time>2026-07-25T19:48:58Z</time></trkpt>
<trkpt lat="35.086132" lon="-85.116635"><ele>277.4</ele><time>2026-07-25T19:49:01Z</time></trkpt>
<trkpt lat="35.086167" lon="-85.11665"><ele>278.9</ele><time>2026-07-25T19:49:04Z</time></trkpt>
<trkpt lat="35.0862" lon="-85.116674"><ele>281.6</ele><time>2026-07-25T19:49:07Z</time></trkpt>
<trkpt lat="35.086229" lon="-85.116705"><ele>282.2</ele><time>2026-07-25T19:49:10Z</time></trkpt>
<trkpt lat="35.086258" lon="-85.116705"><ele>280.1</ele><time>2026-07-25T19:49:12Z</time></trkpt>
<trkpt lat="35.086286" lon="-85.116692"><ele>279.2</ele><time>2026-07-25T19:49:14Z</time></trkpt>
<trkpt lat="35.086311" lon="-85.116674"><ele>278.6</ele><time>2026-07-25T19:49:16Z</time></trkpt>
<trkpt lat="35.086331" lon="-85.11665"><ele>278.9</ele><time>2026-07-25T19:49:18Z</time></trkpt>
<trkpt lat="35.086348" lon="-85.116619"><ele>275.8</ele><time>2026-07-25T19:49:20Z</time></trkpt>
<trkpt lat="35.086365" lon="-85.116587"><ele>278.3</ele><time>2026-07-25T19:49:22Z</time></trkpt>
<trkpt lat="35.086383" lon="-85.116559"><ele>278.6</ele><time>2026-07-25T19:49:24Z</time></trkpt>
<trkpt lat="35.086408" lon="-85.116539"><ele>278.0</ele><time>2026-07-25T19:49:26Z</time></trkpt>
<trkpt lat="35.086438" lon="-85.116509"><ele>278.6</ele><time>2026-07-25T19:49:29Z</time></trkpt>
<trkpt lat="35.086449" lon="-85.116503"><ele>279.2</ele><time>2026-07-25T19:49:30Z</time></trkpt>
<trkpt lat="35.086446" lon="-85.116485"><ele>277.7</ele><time>2026-07-25T19:49:31Z</time></trkpt>
<trkpt lat="35.086443" lon="-85.116474"><ele>277.7</ele><time>2026-07-25T19:49:32Z</time></trkpt>
<trkpt lat="35.086444" lon="-85.11647"><ele>277.4</ele><time>2026-07-25T19:49:33Z</time></trkpt>
<trkpt lat="35.086446" lon="-85.116421"><ele>277.1</ele><time>2026-07-25T19:49:36Z</time></trkpt>
<trkpt lat="35.086466" lon="-85.116394"><ele>277.1</ele><time>2026-07-25T19:49:38Z</time></trkpt>
<trkpt lat="35.0865" lon="-85.116377"><ele>277.7</ele><time>2026-07-25T19:49:41Z</time></trkpt>
<trkpt lat="35.086529" lon="-85.11637"><ele>278.0</ele><time>2026-07-25T19:49:43Z</time></trkpt>
<trkpt lat="35.086568" lon="-85.116365"><ele>276.5</ele><time>2026-07-25T19:49:46Z</time></trkpt>
<trkpt lat="35.086603" lon="-85.116351"><ele>277.1</ele><time>2026-07-25T19:49:49Z</time></trkpt>
<trkpt lat="35.086637" lon="-85.116346"><ele>277.1</ele><time>2026-07-25T19:49:52Z</time></trkpt>
<trkpt lat="35.086673" lon="-85.116343"><ele>277.1</ele><time>2026-07-25T19:49:55Z</time></trkpt>
<trkpt lat="35.086703" lon="-85.116327"><ele>279.5</ele><time>2026-07-25T19:49:58Z</time></trkpt>
<trkpt lat="35.08674" lon="-85.116317"><ele>278.9</ele><time>2026-07-25T19:50:01Z</time></trkpt>
<trkpt lat="35.086778" lon="-85.116317"><ele>278.3</ele><time>2026-07-25T19:50:04Z</time></trkpt>
<trkpt lat="35.086816" lon="-85.116313"><ele>276.8</ele><time>2026-07-25T19:50:07Z</time></trkpt>
<trkpt lat="35.086851" lon="-85.116302"><ele>276.8</ele><time>2026-07-25T19:50:10Z</time></trkpt>
<trkpt lat="35.086886" lon="-85.116294"><ele>278.0</ele><time>2026-07-25T19:50:13Z</time></trkpt>
<trkpt lat="35.086921" lon="-85.116271"><ele>279.2</ele><time>2026-07-25T19:50:16Z</time></trkpt>
<trkpt lat="35.086953" lon="-85.116248"><ele>278.3</ele><time>2026-07-25T19:50:19Z</time></trkpt>
<trkpt lat="35.086984" lon="-85.116223"><ele>277.7</ele><time>2026-07-25T19:50:22Z</time></trkpt>
<trkpt lat="35.087019" lon="-85.116195"><ele>277.7</ele><time>2026-07-25T19:50:25Z</time></trkpt>
<trkpt lat="35.087047" lon="-85.116178"><ele>278.9</ele><time>2026-07-25T19:50:27Z</time></trkpt>
<trkpt lat="35.087081" lon="-85.11616"><ele>278.9</ele><time>2026-07-25T19:50:30Z</time></trkpt>
<trkpt lat="35.087117" lon="-85.116138"><ele>278.9</ele><time>2026-07-25T19:50:33Z</time></trkpt>
<trkpt lat="35.087152" lon="-85.116125"><ele>279.5</ele><time>2026-07-25T19:50:36Z</time></trkpt>
<trkpt lat="35.087186" lon="-85.11611"><ele>279.8</ele><time>2026-07-25T19:50:39Z</time></trkpt>
<trkpt lat="35.087217" lon="-85.116092"><ele>280.7</ele><time>2026-07-25T19:50:42Z</time></trkpt>
<trkpt lat="35.087247" lon="-85.116072"><ele>281.0</ele><time>2026-07-25T19:50:45Z</time></trkpt>
<trkpt lat="35.087276" lon="-85.116046"><ele>282.9</ele><time>2026-07-25T19:50:48Z</time></trkpt>
<trkpt lat="35.087311" lon="-85.116022"><ele>283.2</ele><time>2026-07-25T19:50:51Z</time></trkpt>
<trkpt lat="35.087345" lon="-85.116006"><ele>281.9</ele><time>2026-07-25T19:50:54Z</time></trkpt>
<trkpt lat="35.087376" lon="-85.115987"><ele>281.6</ele><time>2026-07-25T19:50:57Z</time></trkpt>
<trkpt lat="35.087406" lon="-85.115968"><ele>282.2</ele><time>2026-07-25T19:51:00Z</time></trkpt>
<trkpt lat="35.087435" lon="-85.115934"><ele>279.2</ele><time>2026-07-25T19:51:03Z</time></trkpt>
<trkpt lat="35.087459" lon="-85.115898"><ele>279.2</ele><time>2026-07-25T19:51:06Z</time></trkpt>
<trkpt lat="35.087488" lon="-85.115871"><ele>279.2</ele><time>2026-07-25T19:51:09Z</time></trkpt>
<trkpt lat="35.087518" lon="-85.115843"><ele>280.4</ele><time>2026-07-25T19:51:12Z</time></trkpt>
<trkpt lat="35.087548" lon="-85.115818"><ele>279.2</ele><time>2026-07-25T19:51:15Z</time></trkpt>
<trkpt lat="35.087577" lon="-85.115791"><ele>279.8</ele><time>2026-07-25T19:51:18Z</time></trkpt>
<trkpt lat="35.087599" lon="-85.115757"><ele>278.6</ele><time>2026-07-25T19:51:21Z</time></trkpt>
<trkpt lat="35.087599" lon="-85.115723"><ele>277.4</ele><time>2026-07-25T19:51:23Z</time></trkpt>
<trkpt lat="35.08761" lon="-85.115677"><ele>277.1</ele><time>2026-07-25T19:51:26Z</time></trkpt>
<trkpt lat="35.087622" lon="-85.115646"><ele>277.4</ele><time>2026-07-25T19:51:28Z</time></trkpt>
<trkpt lat="35.087643" lon="-85.115615"><ele>278.3</ele><time>2026-07-25T19:51:30Z</time></trkpt>
<trkpt lat="35.087654" lon="-85.11558"><ele>278.0</ele><time>2026-07-25T19:51:32Z</time></trkpt>
<trkpt lat="35.087669" lon="-85.115534"><ele>277.7</ele><time>2026-07-25T19:51:35Z</time></trkpt>
<trkpt lat="35.087694" lon="-85.11551"><ele>278.6</ele><time>2026-07-25T19:51:37Z</time></trkpt>
<trkpt lat="35.087718" lon="-85.11549"><ele>279.2</ele><time>2026-07-25T19:51:39Z</time></trkpt>
<trkpt lat="35.087748" lon="-85.11546"><ele>281.6</ele><time>2026-07-25T19:51:42Z</time></trkpt>
<trkpt lat="35.08776" lon="-85.115417"><ele>284.4</ele><time>2026-07-25T19:51:45Z</time></trkpt>
<trkpt lat="35.087776" lon="-85.115381"><ele>286.2</ele><time>2026-07-25T19:51:48Z</time></trkpt>
<trkpt lat="35.087777" lon="-85.115332"><ele>288.0</ele><time>2026-07-25T19:51:51Z</time></trkpt>
<trkpt lat="35.087766" lon="-85.1153"><ele>288.3</ele><time>2026-07-25T19:51:53Z</time></trkpt>
<trkpt lat="35.087766" lon="-85.115258"><ele>287.1</ele><time>2026-07-25T19:51:57Z</time></trkpt>
<trkpt lat="35.087777" lon="-85.115225"><ele>286.2</ele><time>2026-07-25T19:51:59Z</time></trkpt>
<trkpt lat="35.087796" lon="-85.115198"><ele>286.5</ele><time>2026-07-25T19:52:01Z</time></trkpt>
<trkpt lat="35.087842" lon="-85.115194"><ele>285.9</ele><time>2026-07-25T19:52:03Z</time></trkpt>
<trkpt lat="35.087887" lon="-85.115197"><ele>286.2</ele><time>2026-07-25T19:52:05Z</time></trkpt>
<trkpt lat="35.087916" lon="-85.115188"><ele>288.0</ele><time>2026-07-25T19:52:07Z</time></trkpt>
<trkpt lat="35.087947" lon="-85.115163"><ele>285.3</ele><time>2026-07-25T19:52:10Z</time></trkpt>
<trkpt lat="35.087956" lon="-85.115116"><ele>285.0</ele><time>2026-07-25T19:52:13Z</time></trkpt>
<trkpt lat="35.087959" lon="-85.115081"><ele>285.3</ele><time>2026-07-25T19:52:15Z</time></trkpt>
<trkpt lat="35.087956" lon="-85.115034"><ele>282.5</ele><time>2026-07-25T19:52:18Z</time></trkpt>
<trkpt lat="35.087965" lon="-85.114986"><ele>283.5</ele><time>2026-07-25T19:52:21Z</time></trkpt>
<trkpt lat="35.087957" lon="-85.114953"><ele>283.5</ele><time>2026-07-25T19:52:23Z</time></trkpt>
<trkpt lat="35.087946" lon="-85.114906"><ele>282.9</ele><time>2026-07-25T19:52:26Z</time></trkpt>
<trkpt lat="35.087925" lon="-85.114878"><ele>281.3</ele><time>2026-07-25T19:52:28Z</time></trkpt>
<trkpt lat="35.087909" lon="-85.114832"><ele>281.6</ele><time>2026-07-25T19:52:31Z</time></trkpt>
<trkpt lat="35.087911" lon="-85.114785"><ele>280.4</ele><time>2026-07-25T19:52:34Z</time></trkpt>
<trkpt lat="35.087908" lon="-85.114741"><ele>279.8</ele><time>2026-07-25T19:52:37Z</time></trkpt>
<trkpt lat="35.087906" lon="-85.114695"><ele>280.7</ele><time>2026-07-25T19:52:40Z</time></trkpt>
<trkpt lat="35.087906" lon="-85.114651"><ele>281.0</ele><time>2026-07-25T19:52:43Z</time></trkpt>
<trkpt lat="35.087923" lon="-85.114613"><ele>280.1</ele><time>2026-07-25T19:52:46Z</time></trkpt>
<trkpt lat="35.087942" lon="-85.114584"><ele>280.4</ele><time>2026-07-25T19:52:49Z</time></trkpt>
<trkpt lat="35.087969" lon="-85.11455"><ele>281.0</ele><time>2026-07-25T19:52:52Z</time></trkpt>
<trkpt lat="35.087988" lon="-85.114509"><ele>281.6</ele><time>2026-07-25T19:52:55Z</time></trkpt>
<trkpt lat="35.088009" lon="-85.114478"><ele>282.2</ele><time>2026-07-25T19:52:58Z</time></trkpt>
<trkpt lat="35.088036" lon="-85.114448"><ele>281.0</ele><time>2026-07-25T19:53:01Z</time></trkpt>
<trkpt lat="35.088054" lon="-85.114422"><ele>278.6</ele><time>2026-07-25T19:53:03Z</time></trkpt>
<trkpt lat="35.088049" lon="-85.114373"><ele>278.9</ele><time>2026-07-25T19:53:06Z</time></trkpt>
<trkpt lat="35.088039" lon="-85.114327"><ele>278.6</ele><time>2026-07-25T19:53:09Z</time></trkpt>
<trkpt lat="35.088039" lon="-85.114285"><ele>277.7</ele><time>2026-07-25T19:53:12Z</time></trkpt>
<trkpt lat="35.088047" lon="-85.114244"><ele>277.7</ele><time>2026-07-25T19:53:15Z</time></trkpt>
<trkpt lat="35.08805" lon="-85.114202"><ele>279.5</ele><time>2026-07-25T19:53:18Z</time></trkpt>
<trkpt lat="35.088051" lon="-85.114157"><ele>280.4</ele><time>2026-07-25T19:53:21Z</time></trkpt>
<trkpt lat="35.08805" lon="-85.114116"><ele>281.3</ele><time>2026-07-25T19:53:24Z</time></trkpt>
<trkpt lat="35.088061" lon="-85.114072"><ele>280.4</ele><time>2026-07-25T19:53:27Z</time></trkpt>
<trkpt lat="35.08806" lon="-85.114024"><ele>281.3</ele><time>2026-07-25T19:53:30Z</time></trkpt>
<trkpt lat="35.088051" lon="-85.113978"><ele>280.4</ele><time>2026-07-25T19:53:33Z</time></trkpt>
<trkpt lat="35.088037" lon="-85.113932"><ele>280.7</ele><time>2026-07-25T19:53:36Z</time></trkpt>
<trkpt lat="35.088029" lon="-85.113888"><ele>279.2</ele><time>2026-07-25T19:53:39Z</time></trkpt>
<trkpt lat="35.088025" lon="-85.113844"><ele>280.1</ele><time>2026-07-25T19:53:42Z</time></trkpt>
<trkpt lat="35.088018" lon="-85.113811"><ele>279.2</ele><time>2026-07-25T19:53:44Z</time></trkpt>
<trkpt lat="35.088005" lon="-85.113765"><ele>279.5</ele><time>2026-07-25T19:53:47Z</time></trkpt>
<trkpt lat="35.087999" lon="-85.113719"><ele>280.1</ele><time>2026-07-25T19:53:50Z</time></trkpt>
<trkpt lat="35.087983" lon="-85.113673"><ele>281.9</ele><time>2026-07-25T19:53:53Z</time></trkpt>
<trkpt lat="35.087962" lon="-85.113647"><ele>280.7</ele><time>2026-07-25T19:53:55Z</time></trkpt>
<trkpt lat="35.087928" lon="-85.113631"><ele>281.9</ele><time>2026-07-25T19:53:57Z</time></trkpt>
<trkpt lat="35.087898" lon="-85.113619"><ele>279.8</ele><time>2026-07-25T19:53:59Z</time></trkpt>
<trkpt lat="35.087869" lon="-85.113612"><ele>279.8</ele><time>2026-07-25T19:54:01Z</time></trkpt>
<trkpt lat="35.087841" lon="-85.113601"><ele>281.6</ele><time>2026-07-25T19:54:03Z</time></trkpt>
<trkpt lat="35.087812" lon="-85.113569"><ele>280.4</ele><time>2026-07-25T19:54:06Z</time></trkpt>
<trkpt lat="35.087793" lon="-85.113525"><ele>281.0</ele><time>2026-07-25T19:54:09Z</time></trkpt>
<trkpt lat="35.087781" lon="-85.113492"><ele>282.2</ele><time>2026-07-25T19:54:11Z</time></trkpt>
<trkpt lat="35.08778" lon="-85.113448"><ele>282.2</ele><time>2026-07-25T19:54:14Z</time></trkpt>
<trkpt lat="35.087781" lon="-85.113402"><ele>281.6</ele><time>2026-07-25T19:54:17Z</time></trkpt>
<trkpt lat="35.087774" lon="-85.113357"><ele>282.5</ele><time>2026-07-25T19:54:20Z</time></trkpt>
<trkpt lat="35.087777" lon="-85.11331"><ele>282.2</ele><time>2026-07-25T19:54:23Z</time></trkpt>
<trkpt lat="35.087788" lon="-85.113267"><ele>282.9</ele><time>2026-07-25T19:54:26Z</time></trkpt>
<trkpt lat="35.087816" lon="-85.113267"><ele>283.8</ele><time>2026-07-25T19:54:28Z</time></trkpt>
<trkpt lat="35.087827" lon="-85.113302"><ele>280.7</ele><time>2026-07-25T19:54:30Z</time></trkpt>
<trkpt lat="35.087841" lon="-85.113348"><ele>280.7</ele><time>2026-07-25T19:54:33Z</time></trkpt>
<trkpt lat="35.087864" lon="-85.113385"><ele>281.9</ele><time>2026-07-25T19:54:36Z</time></trkpt>
<trkpt lat="35.087891" lon="-85.113419"><ele>282.9</ele><time>2026-07-25T19:54:39Z</time></trkpt>
<trkpt lat="35.08793" lon="-85.113423"><ele>286.5</ele><time>2026-07-25T19:54:42Z</time></trkpt>
<trkpt lat="35.087951" lon="-85.1134"><ele>285.9</ele><time>2026-07-25T19:54:44Z</time></trkpt>
<trkpt lat="35.087952" lon="-85.113362"><ele>287.1</ele><time>2026-07-25T19:54:46Z</time></trkpt>
<trkpt lat="35.087947" lon="-85.113314"><ele>286.8</ele><time>2026-07-25T19:54:49Z</time></trkpt>
<trkpt lat="35.087943" lon="-85.113268"><ele>286.8</ele><time>2026-07-25T19:54:52Z</time></trkpt>
<trkpt lat="35.087947" lon="-85.113222"><ele>286.8</ele><time>2026-07-25T19:54:55Z</time></trkpt>
<trkpt lat="35.08796" lon="-85.113185"><ele>289.6</ele><time>2026-07-25T19:54:58Z</time></trkpt>
<trkpt lat="35.088002" lon="-85.11317"><ele>292.3</ele><time>2026-07-25T19:55:01Z</time></trkpt>
<trkpt lat="35.088039" lon="-85.113172"><ele>292.3</ele><time>2026-07-25T19:55:04Z</time></trkpt>
<trkpt lat="35.088077" lon="-85.113182"><ele>292.9</ele><time>2026-07-25T19:55:07Z</time></trkpt>
<trkpt lat="35.088111" lon="-85.113191"><ele>294.1</ele><time>2026-07-25T19:55:10Z</time></trkpt>
<trkpt lat="35.088146" lon="-85.113183"><ele>296.3</ele><time>2026-07-25T19:55:13Z</time></trkpt>
<trkpt lat="35.088178" lon="-85.113162"><ele>297.2</ele><time>2026-07-25T19:55:16Z</time></trkpt>
<trkpt lat="35.088203" lon="-85.113126"><ele>294.1</ele><time>2026-07-25T19:55:19Z</time></trkpt>
<trkpt lat="35.088222" lon="-85.113084"><ele>293.2</ele><time>2026-07-25T19:55:22Z</time></trkpt>
<trkpt lat="35.088236" lon="-85.113041"><ele>292.0</ele><time>2026-07-25T19:55:25Z</time></trkpt>
<trkpt lat="35.088241" lon="-85.113007"><ele>292.3</ele><time>2026-07-25T19:55:27Z</time></trkpt>
<trkpt lat="35.088251" lon="-85.112975"><ele>292.0</ele><time>2026-07-25T19:55:29Z</time></trkpt>
<trkpt lat="35.088269" lon="-85.112935"><ele>290.8</ele><time>2026-07-25T19:55:32Z</time></trkpt>
<trkpt lat="35.088282" lon="-85.112893"><ele>292.6</ele><time>2026-07-25T19:55:35Z</time></trkpt>
<trkpt lat="35.0883" lon="-85.112858"><ele>292.6</ele><time>2026-07-25T19:55:38Z</time></trkpt>
<trkpt lat="35.088303" lon="-85.112808"><ele>291.7</ele><time>2026-07-25T19:55:41Z</time></trkpt>
<trkpt lat="35.088294" lon="-85.112775"><ele>292.0</ele><time>2026-07-25T19:55:43Z</time></trkpt>
<trkpt lat="35.088281" lon="-85.11274"><ele>291.4</ele><time>2026-07-25T19:55:45Z</time></trkpt>
<trkpt lat="35.088278" lon="-85.112706"><ele>291.1</ele><time>2026-07-25T19:55:47Z</time></trkpt>
<trkpt lat="35.088289" lon="-85.112672"><ele>293.2</ele><time>2026-07-25T19:55:49Z</time></trkpt>
<trkpt lat="35.088307" lon="-85.112635"><ele>293.5</ele><time>2026-07-25T19:55:52Z</time></trkpt>
<trkpt lat="35.088337" lon="-85.112608"><ele>293.8</ele><time>2026-07-25T19:55:55Z</time></trkpt>
<trkpt lat="35.088369" lon="-85.112585"><ele>292.9</ele><time>2026-07-25T19:55:58Z</time></trkpt>
<trkpt lat="35.088395" lon="-85.112555"><ele>293.5</ele><time>2026-07-25T19:56:01Z</time></trkpt>
<trkpt lat="35.088418" lon="-85.112515"><ele>292.9</ele><time>2026-07-25T19:56:04Z</time></trkpt>
<trkpt lat="35.088446" lon="-85.112479"><ele>294.7</ele><time>2026-07-25T19:56:07Z</time></trkpt>
<trkpt lat="35.088477" lon="-85.112459"><ele>295.0</ele><time>2026-07-25T19:56:10Z</time></trkpt>
<trkpt lat="35.088486" lon="-85.112496"><ele>296.9</ele><time>2026-07-25T19:56:13Z</time></trkpt>
<trkpt lat="35.088501" lon="-85.112535"><ele>298.1</ele><time>2026-07-25T19:56:15Z</time></trkpt>
<trkpt lat="35.088496" lon="-85.112588"><ele>298.4</ele><time>2026-07-25T19:56:17Z</time></trkpt>
<trkpt lat="35.088522" lon="-85.112614"><ele>299.6</ele><time>2026-07-25T19:56:20Z</time></trkpt>
<trkpt lat="35.088545" lon="-85.112641"><ele>300.8</ele><time>2026-07-25T19:56:23Z</time></trkpt>
<trkpt lat="35.088536" lon="-85.112683"><ele>300.2</ele><time>2026-07-25T19:56:26Z</time></trkpt>
<trkpt lat="35.088516" lon="-85.112717"><ele>300.5</ele><time>2026-07-25T19:56:28Z</time></trkpt>
<trkpt lat="35.088501" lon="-85.112761"><ele>297.5</ele><time>2026-07-25T19:56:31Z</time></trkpt>
<trkpt lat="35.088511" lon="-85.112798"><ele>297.8</ele><time>2026-07-25T19:56:33Z</time></trkpt>
<trkpt lat="35.088534" lon="-85.112831"><ele>297.2</ele><time>2026-07-25T19:56:35Z</time></trkpt>
<trkpt lat="35.08856" lon="-85.112852"><ele>296.3</ele><time>2026-07-25T19:56:37Z</time></trkpt>
<trkpt lat="35.088583" lon="-85.112872"><ele>296.6</ele><time>2026-07-25T19:56:39Z</time></trkpt>
<trkpt lat="35.08861" lon="-85.112887"><ele>297.5</ele><time>2026-07-25T19:56:41Z</time></trkpt>
<trkpt lat="35.088638" lon="-85.1129"><ele>298.7</ele><time>2026-07-25T19:56:43Z</time></trkpt>
<trkpt lat="35.088669" lon="-85.1129"><ele>298.4</ele><time>2026-07-25T19:56:45Z</time></trkpt>
<trkpt lat="35.088696" lon="-85.112906"><ele>299.0</ele><time>2026-07-25T19:56:47Z</time></trkpt>
<trkpt lat="35.088727" lon="-85.112911"><ele>299.9</ele><time>2026-07-25T19:56:49Z</time></trkpt>
<trkpt lat="35.088755" lon="-85.112937"><ele>300.5</ele><time>2026-07-25T19:56:52Z</time></trkpt>
<trkpt lat="35.088777" lon="-85.112966"><ele>299.9</ele><time>2026-07-25T19:56:55Z</time></trkpt>
<trkpt lat="35.088802" lon="-85.112989"><ele>299.3</ele><time>2026-07-25T19:56:59Z</time></trkpt>
<trkpt lat="35.088826" lon="-85.113025"><ele>300.5</ele><time>2026-07-25T19:57:02Z</time></trkpt>
<trkpt lat="35.088852" lon="-85.113058"><ele>302.4</ele><time>2026-07-25T19:57:05Z</time></trkpt>
<trkpt lat="35.088879" lon="-85.113093"><ele>301.4</ele><time>2026-07-25T19:57:08Z</time></trkpt>
<trkpt lat="35.088904" lon="-85.113123"><ele>299.9</ele><time>2026-07-25T19:57:11Z</time></trkpt>
<trkpt lat="35.088938" lon="-85.113136"><ele>301.8</ele><time>2026-07-25T19:57:14Z</time></trkpt>
<trkpt lat="35.088979" lon="-85.113133"><ele>301.4</ele><time>2026-07-25T19:57:17Z</time></trkpt>
<trkpt lat="35.089011" lon="-85.11315"><ele>302.1</ele><time>2026-07-25T19:57:20Z</time></trkpt>
<trkpt lat="35.089045" lon="-85.113158"><ele>303.3</ele><time>2026-07-25T19:57:23Z</time></trkpt>
<trkpt lat="35.089078" lon="-85.113163"><ele>305.4</ele><time>2026-07-25T19:57:26Z</time></trkpt>
<trkpt lat="35.089116" lon="-85.113163"><ele>305.4</ele><time>2026-07-25T19:57:29Z</time></trkpt>
<trkpt lat="35.089149" lon="-85.113159"><ele>306.0</ele><time>2026-07-25T19:57:32Z</time></trkpt>
<trkpt lat="35.089185" lon="-85.11314"><ele>304.2</ele><time>2026-07-25T19:57:35Z</time></trkpt>
<trkpt lat="35.089214" lon="-85.113108"><ele>304.5</ele><time>2026-07-25T19:57:38Z</time></trkpt>
<trkpt lat="35.089225" lon="-85.113069"><ele>306.3</ele><time>2026-07-25T19:57:41Z</time></trkpt>
<trkpt lat="35.089231" lon="-85.113023"><ele>307.2</ele><time>2026-07-25T19:57:44Z</time></trkpt>
<trkpt lat="35.089222" lon="-85.112976"><ele>306.0</ele><time>2026-07-25T19:57:47Z</time></trkpt>
<trkpt lat="35.089213" lon="-85.112929"><ele>307.8</ele><time>2026-07-25T19:57:50Z</time></trkpt>
<trkpt lat="35.089215" lon="-85.112894"><ele>310.6</ele><time>2026-07-25T19:57:52Z</time></trkpt>
<trkpt lat="35.089233" lon="-85.112855"><ele>310.6</ele><time>2026-07-25T19:57:55Z</time></trkpt>
<trkpt lat="35.089255" lon="-85.112826"><ele>310.6</ele><time>2026-07-25T19:57:58Z</time></trkpt>
<trkpt lat="35.089278" lon="-85.112795"><ele>311.2</ele><time>2026-07-25T19:58:01Z</time></trkpt>
<trkpt lat="35.089292" lon="-85.112754"><ele>310.3</ele><time>2026-07-25T19:58:04Z</time></trkpt>
<trkpt lat="35.089309" lon="-85.11272"><ele>310.3</ele><time>2026-07-25T19:58:07Z</time></trkpt>
<trkpt lat="35.089344" lon="-85.112699"><ele>309.4</ele><time>2026-07-25T19:58:10Z</time></trkpt>
<trkpt lat="35.089382" lon="-85.112713"><ele>308.5</ele><time>2026-07-25T19:58:13Z</time></trkpt>
<trkpt lat="35.089409" lon="-85.112739"><ele>309.4</ele><time>2026-07-25T19:58:16Z</time></trkpt>
<trkpt lat="35.089437" lon="-85.112746"><ele>307.5</ele><time>2026-07-25T19:58:18Z</time></trkpt>
<trkpt lat="35.089476" lon="-85.112754"><ele>307.8</ele><time>2026-07-25T19:58:21Z</time></trkpt>
<trkpt lat="35.089514" lon="-85.112744"><ele>307.5</ele><time>2026-07-25T19:58:24Z</time></trkpt>
<trkpt lat="35.089547" lon="-85.112752"><ele>308.8</ele><time>2026-07-25T19:58:27Z</time></trkpt>
<trkpt lat="35.089571" lon="-85.112775"><ele>304.8</ele><time>2026-07-25T19:58:29Z</time></trkpt>
<trkpt lat="35.089595" lon="-85.112799"><ele>303.9</ele><time>2026-07-25T19:58:31Z</time></trkpt>
<trkpt lat="35.089619" lon="-85.112818"><ele>302.7</ele><time>2026-07-25T19:58:33Z</time></trkpt>
<trkpt lat="35.089654" lon="-85.112843"><ele>302.1</ele><time>2026-07-25T19:58:36Z</time></trkpt>
<trkpt lat="35.089678" lon="-85.112864"><ele>303.3</ele><time>2026-07-25T19:58:38Z</time></trkpt>
<trkpt lat="35.089689" lon="-85.112871"><ele>304.8</ele><time>2026-07-25T19:58:39Z</time></trkpt>
<trkpt lat="35.089688" lon="-85.112871"><ele>304.5</ele><time>2026-07-25T19:58:40Z</time></trkpt>
<trkpt lat="35.089687" lon="-85.11287"><ele>304.5</ele><time>2026-07-25T19:58:41Z</time></trkpt>
<trkpt lat="35.089693" lon="-85.112868"><ele>304.2</ele><time>2026-07-25T19:58:42Z</time></trkpt>
<trkpt lat="35.089726" lon="-85.112844"><ele>307.2</ele><time>2026-07-25T19:58:46Z</time></trkpt>
<trkpt lat="35.089762" lon="-85.112822"><ele>306.0</ele><time>2026-07-25T19:58:49Z</time></trkpt>
<trkpt lat="35.089787" lon="-85.112807"><ele>305.4</ele><time>2026-07-25T19:58:51Z</time></trkpt>
<trkpt lat="35.089816" lon="-85.112803"><ele>304.8</ele><time>2026-07-25T19:58:53Z</time></trkpt>
<trkpt lat="35.089851" lon="-85.112824"><ele>301.8</ele><time>2026-07-25T19:58:56Z</time></trkpt>
<trkpt lat="35.089866" lon="-85.112852"><ele>303.6</ele><time>2026-07-25T19:58:58Z</time></trkpt>
<trkpt lat="35.089878" lon="-85.112883"><ele>305.1</ele><time>2026-07-25T19:59:00Z</time></trkpt>
<trkpt lat="35.089901" lon="-85.112925"><ele>306.3</ele><time>2026-07-25T19:59:03Z</time></trkpt>
<trkpt lat="35.089937" lon="-85.112939"><ele>305.4</ele><time>2026-07-25T19:59:06Z</time></trkpt>
<trkpt lat="35.089975" lon="-85.112935"><ele>305.1</ele><time>2026-07-25T19:59:09Z</time></trkpt>
<trkpt lat="35.090011" lon="-85.112916"><ele>304.8</ele><time>2026-07-25T19:59:12Z</time></trkpt>
<trkpt lat="35.090037" lon="-85.112881"><ele>305.1</ele><time>2026-07-25T19:59:15Z</time></trkpt>
<trkpt lat="35.090049" lon="-85.112851"><ele>304.8</ele><time>2026-07-25T19:59:17Z</time></trkpt>
<trkpt lat="35.090059" lon="-85.112805"><ele>302.7</ele><time>2026-07-25T19:59:20Z</time></trkpt>
<trkpt lat="35.090077" lon="-85.112765"><ele>302.4</ele><time>2026-07-25T19:59:23Z</time></trkpt>
<trkpt lat="35.090101" lon="-85.11273"><ele>300.8</ele><time>2026-07-25T19:59:26Z</time></trkpt>
<trkpt lat="35.090127" lon="-85.112699"><ele>301.8</ele><time>2026-07-25T19:59:29Z</time></trkpt>
<trkpt lat="35.090156" lon="-85.112677"><ele>302.1</ele><time>2026-07-25T19:59:32Z</time></trkpt>
<trkpt lat="35.090189" lon="-85.112659"><ele>302.1</ele><time>2026-07-25T19:59:35Z</time></trkpt>
<trkpt lat="35.090225" lon="-85.112653"><ele>301.4</ele><time>2026-07-25T19:59:38Z</time></trkpt>
<trkpt lat="35.090259" lon="-85.112637"><ele>302.4</ele><time>2026-07-25T19:59:41Z</time></trkpt>
<trkpt lat="35.090293" lon="-85.112616"><ele>302.1</ele><time>2026-07-25T19:59:44Z</time></trkpt>
<trkpt lat="35.090323" lon="-85.112586"><ele>302.4</ele><time>2026-07-25T19:59:47Z</time></trkpt>
<trkpt lat="35.090351" lon="-85.112573"><ele>301.4</ele><time>2026-07-25T19:59:49Z</time></trkpt>
<trkpt lat="35.090375" lon="-85.11255"><ele>301.8</ele><time>2026-07-25T19:59:51Z</time></trkpt>
<trkpt lat="35.090404" lon="-85.112515"><ele>301.8</ele><time>2026-07-25T19:59:54Z</time></trkpt>
<trkpt lat="35.090423" lon="-85.112478"><ele>303.3</ele><time>2026-07-25T19:59:57Z</time></trkpt>
<trkpt lat="35.090443" lon="-85.112444"><ele>301.8</ele><time>2026-07-25T20:00:00Z</time></trkpt>
<trkpt lat="35.090468" lon="-85.112406"><ele>303.3</ele><time>2026-07-25T20:00:03Z</time></trkpt>
<trkpt lat="35.090494" lon="-85.112371"><ele>302.4</ele><time>2026-07-25T20:00:06Z</time></trkpt>
<trkpt lat="35.090519" lon="-85.112333"><ele>302.1</ele><time>2026-07-25T20:00:09Z</time></trkpt>
<trkpt lat="35.090546" lon="-85.1123"><ele>302.4</ele><time>2026-07-25T20:00:12Z</time></trkpt>
<trkpt lat="35.090573" lon="-85.112268"><ele>303.9</ele><time>2026-07-25T20:00:15Z</time></trkpt>
<trkpt lat="35.0906" lon="-85.112257"><ele>304.8</ele><time>2026-07-25T20:00:17Z</time></trkpt>
<trkpt lat="35.09063" lon="-85.112247"><ele>305.4</ele><time>2026-07-25T20:00:19Z</time></trkpt>
<trkpt lat="35.090658" lon="-85.112244"><ele>306.6</ele><time>2026-07-25T20:00:21Z</time></trkpt>
<trkpt lat="35.090693" lon="-85.112252"><ele>306.9</ele><time>2026-07-25T20:00:24Z</time></trkpt>
<trkpt lat="35.090732" lon="-85.112251"><ele>308.8</ele><time>2026-07-25T20:00:27Z</time></trkpt>
<trkpt lat="35.090759" lon="-85.112242"><ele>309.1</ele><time>2026-07-25T20:00:29Z</time></trkpt>
<trkpt lat="35.090797" lon="-85.112223"><ele>307.2</ele><time>2026-07-25T20:00:32Z</time></trkpt>
<trkpt lat="35.090825" lon="-85.112187"><ele>306.6</ele><time>2026-07-25T20:00:35Z</time></trkpt>
<trkpt lat="35.090848" lon="-85.112151"><ele>307.2</ele><time>2026-07-25T20:00:38Z</time></trkpt>
<trkpt lat="35.090866" lon="-85.112112"><ele>307.2</ele><time>2026-07-25T20:00:41Z</time></trkpt>
<trkpt lat="35.090878" lon="-85.112065"><ele>303.6</ele><time>2026-07-25T20:00:44Z</time></trkpt>
<trkpt lat="35.090876" lon="-85.112016"><ele>303.3</ele><time>2026-07-25T20:00:47Z</time></trkpt>
<trkpt lat="35.090852" lon="-85.11199"><ele>303.6</ele><time>2026-07-25T20:00:49Z</time></trkpt>
<trkpt lat="35.09083" lon="-85.11197"><ele>302.4</ele><time>2026-07-25T20:00:51Z</time></trkpt>
<trkpt lat="35.090803" lon="-85.111955"><ele>303.0</ele><time>2026-07-25T20:00:53Z</time></trkpt>
<trkpt lat="35.090772" lon="-85.111927"><ele>302.4</ele><time>2026-07-25T20:00:56Z</time></trkpt>
<trkpt lat="35.090753" lon="-85.11189"><ele>302.4</ele><time>2026-07-25T20:00:59Z</time></trkpt>
<trkpt lat="35.090745" lon="-85.111843"><ele>301.4</ele><time>2026-07-25T20:01:02Z</time></trkpt>
<trkpt lat="35.090748" lon="-85.111795"><ele>298.7</ele><time>2026-07-25T20:01:05Z</time></trkpt>
<trkpt lat="35.090749" lon="-85.111761"><ele>298.4</ele><time>2026-07-25T20:01:07Z</time></trkpt>
<trkpt lat="35.090755" lon="-85.111724"><ele>298.7</ele><time>2026-07-25T20:01:09Z</time></trkpt>
<trkpt lat="35.090768" lon="-85.111694"><ele>298.7</ele><time>2026-07-25T20:01:11Z</time></trkpt>
<trkpt lat="35.090793" lon="-85.111658"><ele>298.1</ele><time>2026-07-25T20:01:14Z</time></trkpt>
<trkpt lat="35.090825" lon="-85.111638"><ele>299.3</ele><time>2026-07-25T20:01:17Z</time></trkpt>
<trkpt lat="35.090859" lon="-85.111614"><ele>300.2</ele><time>2026-07-25T20:01:20Z</time></trkpt>
<trkpt lat="35.090892" lon="-85.111603"><ele>300.8</ele><time>2026-07-25T20:01:22Z</time></trkpt>
<trkpt lat="35.090924" lon="-85.111615"><ele>297.8</ele><time>2026-07-25T20:01:25Z</time></trkpt>
<trkpt lat="35.090953" lon="-85.111602"><ele>296.6</ele><time>2026-07-25T20:01:27Z</time></trkpt>
<trkpt lat="35.090976" lon="-85.111582"><ele>295.7</ele><time>2026-07-25T20:01:29Z</time></trkpt>
<trkpt lat="35.091005" lon="-85.111546"><ele>296.9</ele><time>2026-07-25T20:01:32Z</time></trkpt>
<trkpt lat="35.091032" lon="-85.111521"><ele>297.5</ele><time>2026-07-25T20:01:34Z</time></trkpt>
<trkpt lat="35.091055" lon="-85.111497"><ele>298.4</ele><time>2026-07-25T20:01:36Z</time></trkpt>
<trkpt lat="35.091086" lon="-85.111474"><ele>296.6</ele><time>2026-07-25T20:01:39Z</time></trkpt>
<trkpt lat="35.091108" lon="-85.111446"><ele>296.3</ele><time>2026-07-25T20:01:42Z</time></trkpt>
<trkpt lat="35.091133" lon="-85.111432"><ele>294.7</ele><time>2026-07-25T20:01:45Z</time></trkpt>
<trkpt lat="35.091158" lon="-85.111415"><ele>291.1</ele><time>2026-07-25T20:01:48Z</time></trkpt>
<trkpt lat="35.091182" lon="-85.111438"><ele>286.2</ele><time>2026-07-25T20:01:49Z</time></trkpt>
<trkpt lat="35.091207" lon="-85.111416"><ele>285.3</ele><time>2026-07-25T20:01:51Z</time></trkpt>
<trkpt lat="35.091224" lon="-85.111372"><ele>285.3</ele><time>2026-07-25T20:01:53Z</time></trkpt>
<trkpt lat="35.091209" lon="-85.11134"><ele>287.1</ele><time>2026-07-25T20:01:55Z</time></trkpt>
<trkpt lat="35.091202" lon="-85.111307"><ele>289.3</ele><time>2026-07-25T20:01:57Z</time></trkpt>
<trkpt lat="35.091188" lon="-85.111278"><ele>291.1</ele><time>2026-07-25T20:01:59Z</time></trkpt>
<trkpt lat="35.091167" lon="-85.111254"><ele>292.0</ele><time>2026-07-25T20:02:01Z</time></trkpt>
<trkpt lat="35.091148" lon="-85.111227"><ele>291.7</ele><time>2026-07-25T20:02:03Z</time></trkpt>
<trkpt lat="35.091141" lon="-85.111194"><ele>292.9</ele><time>2026-07-25T20:02:05Z</time></trkpt>
<trkpt lat="35.091136" lon="-85.111154"><ele>292.6</ele><time>2026-07-25T20:02:08Z</time></trkpt>
<trkpt lat="35.09114" lon="-85.111119"><ele>293.2</ele><time>2026-07-25T20:02:11Z</time></trkpt>
<trkpt lat="35.091143" lon="-85.111079"><ele>294.7</ele><time>2026-07-25T20:02:15Z</time></trkpt>
<trkpt lat="35.091144" lon="-85.111069"><ele>296.0</ele><time>2026-07-25T20:02:16Z</time></trkpt>
<trkpt lat="35.091145" lon="-85.111075"><ele>295.0</ele><time>2026-07-25T20:02:17Z</time></trkpt>
<trkpt lat="35.091146" lon="-85.111077"><ele>295.4</ele><time>2026-07-25T20:02:29Z</time></trkpt>
<trkpt lat="35.091149" lon="-85.111077"><ele>295.4</ele><time>2026-07-25T20:02:30Z</time></trkpt>
<trkpt lat="35.091175" lon="-85.111058"><ele>295.4</ele><time>2026-07-25T20:02:33Z</time></trkpt>
<trkpt lat="35.091194" lon="-85.111025"><ele>295.4</ele><time>2026-07-25T20:02:36Z</time></trkpt>
<trkpt lat="35.091214" lon="-85.110997"><ele>295.0</ele><time>2026-07-25T20:02:40Z</time></trkpt>
<trkpt lat="35.091207" lon="-85.110969"><ele>296.6</ele><time>2026-07-25T20:02:43Z</time></trkpt>
<trkpt lat="35.091205" lon="-85.110973"><ele>295.7</ele><time>2026-07-25T20:02:44Z</time></trkpt>
<trkpt lat="35.091204" lon="-85.110975"><ele>295.7</ele><time>2026-07-25T20:02:45Z</time></trkpt>
<trkpt lat="35.091202" lon="-85.110973"><ele>296.0</ele><time>2026-07-25T20:02:46Z</time></trkpt>
<trkpt lat="35.091203" lon="-85.110971"><ele>296.0</ele><time>2026-07-25T20:02:47Z</time></trkpt>
<trkpt lat="35.091202" lon="-85.110972"><ele>296.0</ele><time>2026-07-25T20:02:48Z</time></trkpt>
<trkpt lat="35.091202" lon="-85.110974"><ele>296.0</ele><time>2026-07-25T20:02:49Z</time></trkpt>
<trkpt lat="35.091182" lon="-85.111007"><ele>296.0</ele><time>2026-07-25T20:02:54Z</time></trkpt>
<trkpt lat="35.091154" lon="-85.11102"><ele>296.0</ele><time>2026-07-25T20:02:58Z</time></trkpt>
<trkpt lat="35.091149" lon="-85.111015"><ele>296.6</ele><time>2026-07-25T20:02:59Z</time></trkpt>
<trkpt lat="35.091149" lon="-85.111014"><ele>296.3</ele><time>2026-07-25T20:03:00Z</time></trkpt>
<trkpt lat="35.091149" lon="-85.111014"><ele>296.3</ele><time>2026-07-25T20:03:01Z</time></trkpt>
<trkpt lat="35.091145" lon="-85.111015"><ele>296.0</ele><time>2026-07-25T20:03:02Z</time></trkpt>
<trkpt lat="35.091126" lon="-85.111017"><ele>295.0</ele><time>2026-07-25T20:03:08Z</time></trkpt>
<trkpt lat="35.091126" lon="-85.111018"><ele>295.0</ele><time>2026-07-25T20:03:09Z</time></trkpt>
<trkpt lat="35.091126" lon="-85.111018"><ele>295.0</ele><time>2026-07-25T20:03:13Z</time></trkpt>
<trkpt lat="35.091125" lon="-85.11102"><ele>295.0</ele><time>2026-07-25T20:03:14Z</time></trkpt>
<trkpt lat="35.091101" lon="-85.111028"><ele>297.5</ele><time>2026-07-25T20:03:18Z</time></trkpt>
<trkpt lat="35.091099" lon="-85.111025"><ele>297.2</ele><time>2026-07-25T20:03:19Z</time></trkpt>
<trkpt lat="35.0911" lon="-85.111023"><ele>297.2</ele><time>2026-07-25T20:03:25Z</time></trkpt>
<trkpt lat="35.091098" lon="-85.111032"><ele>297.2</ele><time>2026-07-25T20:03:26Z</time></trkpt>
<trkpt lat="35.091092" lon="-85.111066"><ele>297.2</ele><time>2026-07-25T20:03:29Z</time></trkpt>
<trkpt lat="35.091062" lon="-85.111074"><ele>296.3</ele><time>2026-07-25T20:03:31Z</time></trkpt>
<trkpt lat="35.091092" lon="-85.11104"><ele>298.1</ele><time>2026-07-25T20:03:33Z</time></trkpt>
<trkpt lat="35.091103" lon="-85.111084"><ele>298.4</ele><time>2026-07-25T20:03:35Z</time></trkpt>
<trkpt lat="35.091112" lon="-85.111133"><ele>295.0</ele><time>2026-07-25T20:03:38Z</time></trkpt>
<trkpt lat="35.091133" lon="-85.111178"><ele>293.5</ele><time>2026-07-25T20:03:41Z</time></trkpt>
<trkpt lat="35.091158" lon="-85.111211"><ele>292.0</ele><time>2026-07-25T20:03:44Z</time></trkpt>
<trkpt lat="35.091188" lon="-85.111227"><ele>292.6</ele><time>2026-07-25T20:03:47Z</time></trkpt>
<trkpt lat="35.09122" lon="-85.111212"><ele>293.5</ele><time>2026-07-25T20:03:51Z</time></trkpt>
<trkpt lat="35.091256" lon="-85.111204"><ele>295.0</ele><time>2026-07-25T20:03:55Z</time></trkpt>
<trkpt lat="35.091286" lon="-85.111195"><ele>295.4</ele><time>2026-07-25T20:03:58Z</time></trkpt>
<trkpt lat="35.091321" lon="-85.111201"><ele>292.9</ele><time>2026-07-25T20:04:01Z</time></trkpt>
<trkpt lat="35.091353" lon="-85.111197"><ele>292.9</ele><time>2026-07-25T20:04:04Z</time></trkpt>
<trkpt lat="35.091387" lon="-85.111215"><ele>288.0</ele><time>2026-07-25T20:04:07Z</time></trkpt>
<trkpt lat="35.091413" lon="-85.111238"><ele>289.0</ele><time>2026-07-25T20:04:10Z</time></trkpt>
<trkpt lat="35.091437" lon="-85.111276"><ele>285.6</ele><time>2026-07-25T20:04:13Z</time></trkpt>
<trkpt lat="35.09146" lon="-85.111312"><ele>286.8</ele><time>2026-07-25T20:04:16Z</time></trkpt>
<trkpt lat="35.091489" lon="-85.111341"><ele>287.4</ele><time>2026-07-25T20:04:19Z</time></trkpt>
<trkpt lat="35.091512" lon="-85.111369"><ele>288.0</ele><time>2026-07-25T20:04:22Z</time></trkpt>
<trkpt lat="35.091541" lon="-85.111389"><ele>290.5</ele><time>2026-07-25T20:04:25Z</time></trkpt>
<trkpt lat="35.09158" lon="-85.111389"><ele>290.5</ele><time>2026-07-25T20:04:28Z</time></trkpt>
<trkpt lat="35.091615" lon="-85.111395"><ele>294.1</ele><time>2026-07-25T20:04:31Z</time></trkpt>
<trkpt lat="35.091653" lon="-85.111402"><ele>294.1</ele><time>2026-07-25T20:04:34Z</time></trkpt>
<trkpt lat="35.091692" lon="-85.111406"><ele>293.5</ele><time>2026-07-25T20:04:37Z</time></trkpt>
<trkpt lat="35.091719" lon="-85.111402"><ele>293.5</ele><time>2026-07-25T20:04:39Z</time></trkpt>
<trkpt lat="35.091758" lon="-85.111398"><ele>292.3</ele><time>2026-07-25T20:04:42Z</time></trkpt>
<trkpt lat="35.09179" lon="-85.111382"><ele>290.2</ele><time>2026-07-25T20:04:45Z</time></trkpt>
<trkpt lat="35.091818" lon="-85.111362"><ele>290.2</ele><time>2026-07-25T20:04:48Z</time></trkpt>
<trkpt lat="35.091843" lon="-85.111331"><ele>291.4</ele><time>2026-07-25T20:04:51Z</time></trkpt>
<trkpt lat="35.091867" lon="-85.111295"><ele>291.4</ele><time>2026-07-25T20:04:54Z</time></trkpt>
<trkpt lat="35.091889" lon="-85.111262"><ele>290.8</ele><time>2026-07-25T20:04:57Z</time></trkpt>
<trkpt lat="35.091911" lon="-85.111225"><ele>290.2</ele><time>2026-07-25T20:05:00Z</time></trkpt>
<trkpt lat="35.091929" lon="-85.111185"><ele>288.6</ele><time>2026-07-25T20:05:03Z</time></trkpt>
<trkpt lat="35.091945" lon="-85.111148"><ele>287.1</ele><time>2026-07-25T20:05:06Z</time></trkpt>
<trkpt lat="35.09196" lon="-85.111111"><ele>284.4</ele><time>2026-07-25T20:05:09Z</time></trkpt>
<trkpt lat="35.091979" lon="-85.111075"><ele>285.3</ele><time>2026-07-25T20:05:12Z</time></trkpt>
<trkpt lat="35.092006" lon="-85.111042"><ele>287.7</ele><time>2026-07-25T20:05:15Z</time></trkpt>
<trkpt lat="35.092032" lon="-85.111009"><ele>287.7</ele><time>2026-07-25T20:05:18Z</time></trkpt>
<trkpt lat="35.092057" lon="-85.110981"><ele>289.0</ele><time>2026-07-25T20:05:21Z</time></trkpt>
<trkpt lat="35.092086" lon="-85.110956"><ele>292.3</ele><time>2026-07-25T20:05:24Z</time></trkpt>
<trkpt lat="35.092112" lon="-85.110928"><ele>291.4</ele><time>2026-07-25T20:05:27Z</time></trkpt>
<trkpt lat="35.092139" lon="-85.110895"><ele>289.6</ele><time>2026-07-25T20:05:30Z</time></trkpt>
<trkpt lat="35.092161" lon="-85.110862"><ele>289.3</ele><time>2026-07-25T20:05:33Z</time></trkpt>
<trkpt lat="35.092179" lon="-85.110828"><ele>290.5</ele><time>2026-07-25T20:05:36Z</time></trkpt>
<trkpt lat="35.092184" lon="-85.110785"><ele>289.0</ele><time>2026-07-25T20:05:39Z</time></trkpt>
<trkpt lat="35.092172" lon="-85.110745"><ele>289.0</ele><time>2026-07-25T20:05:42Z</time></trkpt>
<trkpt lat="35.092168" lon="-85.1107"><ele>289.3</ele><time>2026-07-25T20:05:45Z</time></trkpt>
<trkpt lat="35.092171" lon="-85.110653"><ele>289.6</ele><time>2026-07-25T20:05:48Z</time></trkpt>
<trkpt lat="35.092175" lon="-85.110618"><ele>291.4</ele><time>2026-07-25T20:05:50Z</time></trkpt>
<trkpt lat="35.092169" lon="-85.110574"><ele>292.6</ele><time>2026-07-25T20:05:53Z</time></trkpt>
<trkpt lat="35.092149" lon="-85.110538"><ele>295.4</ele><time>2026-07-25T20:05:56Z</time></trkpt>
<trkpt lat="35.092133" lon="-85.110511"><ele>296.0</ele><time>2026-07-25T20:05:58Z</time></trkpt>
<trkpt lat="35.092127" lon="-85.110465"><ele>296.3</ele><time>2026-07-25T20:06:00Z</time></trkpt>
<trkpt lat="35.092119" lon="-85.110415"><ele>296.6</ele><time>2026-07-25T20:06:02Z</time></trkpt>
<trkpt lat="35.092122" lon="-85.110367"><ele>297.8</ele><time>2026-07-25T20:06:04Z</time></trkpt>
<trkpt lat="35.092115" lon="-85.110332"><ele>299.6</ele><time>2026-07-25T20:06:06Z</time></trkpt>
<trkpt lat="35.09212" lon="-85.110298"><ele>302.7</ele><time>2026-07-25T20:06:09Z</time></trkpt>
<trkpt lat="35.092134" lon="-85.110264"><ele>302.4</ele><time>2026-07-25T20:06:12Z</time></trkpt>
<trkpt lat="35.092163" lon="-85.11024"><ele>301.1</ele><time>2026-07-25T20:06:15Z</time></trkpt>
<trkpt lat="35.092193" lon="-85.110207"><ele>303.6</ele><time>2026-07-25T20:06:18Z</time></trkpt>
<trkpt lat="35.092221" lon="-85.110193"><ele>303.6</ele><time>2026-07-25T20:06:20Z</time></trkpt>
<trkpt lat="35.092254" lon="-85.110169"><ele>303.9</ele><time>2026-07-25T20:06:23Z</time></trkpt>
<trkpt lat="35.092272" lon="-85.110143"><ele>303.6</ele><time>2026-07-25T20:06:25Z</time></trkpt>
<trkpt lat="35.092287" lon="-85.110101"><ele>303.6</ele><time>2026-07-25T20:06:28Z</time></trkpt>
<trkpt lat="35.092289" lon="-85.110067"><ele>301.4</ele><time>2026-07-25T20:06:30Z</time></trkpt>
<trkpt lat="35.092296" lon="-85.110029"><ele>304.5</ele><time>2026-07-25T20:06:31Z</time></trkpt>
<trkpt lat="35.092305" lon="-85.109995"><ele>306.6</ele><time>2026-07-25T20:06:34Z</time></trkpt>
<trkpt lat="35.092342" lon="-85.11001"><ele>306.6</ele><time>2026-07-25T20:06:37Z</time></trkpt>
<trkpt lat="35.092368" lon="-85.109982"><ele>305.4</ele><time>2026-07-25T20:06:39Z</time></trkpt>
<trkpt lat="35.092398" lon="-85.109953"><ele>305.1</ele><time>2026-07-25T20:06:42Z</time></trkpt>
<trkpt lat="35.092424" lon="-85.109935"><ele>303.0</ele><time>2026-07-25T20:06:47Z</time></trkpt>
<trkpt lat="35.092459" lon="-85.109934"><ele>302.4</ele><time>2026-07-25T20:06:49Z</time></trkpt>
<trkpt lat="35.092496" lon="-85.109936"><ele>301.8</ele><time>2026-07-25T20:06:51Z</time></trkpt>
<trkpt lat="35.09253" lon="-85.109937"><ele>302.7</ele><time>2026-07-25T20:06:53Z</time></trkpt>
<trkpt lat="35.092551" lon="-85.10997"><ele>300.8</ele><time>2026-07-25T20:06:58Z</time></trkpt>
<trkpt lat="35.092586" lon="-85.109957"><ele>301.1</ele><time>2026-07-25T20:07:01Z</time></trkpt>
<trkpt lat="35.092599" lon="-85.109927"><ele>302.4</ele><time>2026-07-25T20:07:03Z</time></trkpt>
<trkpt lat="35.092629" lon="-85.109897"><ele>301.4</ele><time>2026-07-25T20:07:06Z</time></trkpt>
<trkpt lat="35.092659" lon="-85.109868"><ele>302.7</ele><time>2026-07-25T20:07:09Z</time></trkpt>
<trkpt lat="35.092681" lon="-85.109834"><ele>303.3</ele><time>2026-07-25T20:07:12Z</time></trkpt>
<trkpt lat="35.092696" lon="-85.109794"><ele>305.4</ele><time>2026-07-25T20:07:15Z</time></trkpt>
<trkpt lat="35.092704" lon="-85.109747"><ele>307.8</ele><time>2026-07-25T20:07:18Z</time></trkpt>
<trkpt lat="35.092705" lon="-85.109698"><ele>309.1</ele><time>2026-07-25T20:07:21Z</time></trkpt>
<trkpt lat="35.092699" lon="-85.109658"><ele>309.1</ele><time>2026-07-25T20:07:24Z</time></trkpt>
<trkpt lat="35.092678" lon="-85.109619"><ele>307.2</ele><time>2026-07-25T20:07:27Z</time></trkpt>
<trkpt lat="35.092655" lon="-85.10958"><ele>306.6</ele><time>2026-07-25T20:07:30Z</time></trkpt>
<trkpt lat="35.092654" lon="-85.109534"><ele>308.5</ele><time>2026-07-25T20:07:33Z</time></trkpt>
<trkpt lat="35.092649" lon="-85.109484"><ele>308.2</ele><time>2026-07-25T20:07:36Z</time></trkpt>
<trkpt lat="35.092631" lon="-85.10944"><ele>307.8</ele><time>2026-07-25T20:07:39Z</time></trkpt>
<trkpt lat="35.09263" lon="-85.109396"><ele>310.0</ele><time>2026-07-25T20:07:42Z</time></trkpt>
<trkpt lat="35.092649" lon="-85.10936"><ele>310.0</ele><time>2026-07-25T20:07:45Z</time></trkpt>
<trkpt lat="35.09267" lon="-85.109327"><ele>310.6</ele><time>2026-07-25T20:07:48Z</time></trkpt>
<trkpt lat="35.092672" lon="-85.109281"><ele>311.5</ele><time>2026-07-25T20:07:51Z</time></trkpt>
<trkpt lat="35.092666" lon="-85.109246"><ele>312.4</ele><time>2026-07-25T20:07:53Z</time></trkpt>
<trkpt lat="35.092665" lon="-85.109212"><ele>312.4</ele><time>2026-07-25T20:07:55Z</time></trkpt>
<trkpt lat="35.092666" lon="-85.109179"><ele>313.0</ele><time>2026-07-25T20:07:57Z</time></trkpt>
<trkpt lat="35.092688" lon="-85.109139"><ele>312.7</ele><time>2026-07-25T20:08:00Z</time></trkpt>
<trkpt lat="35.092717" lon="-85.109106"><ele>311.5</ele><time>2026-07-25T20:08:03Z</time></trkpt>
<trkpt lat="35.092753" lon="-85.109092"><ele>311.2</ele><time>2026-07-25T20:08:06Z</time></trkpt>
<trkpt lat="35.092787" lon="-85.109095"><ele>310.3</ele><time>2026-07-25T20:08:09Z</time></trkpt>
<trkpt lat="35.092826" lon="-85.109094"><ele>309.7</ele><time>2026-07-25T20:08:12Z</time></trkpt>
<trkpt lat="35.092869" lon="-85.109098"><ele>308.2</ele><time>2026-07-25T20:08:15Z</time></trkpt>
<trkpt lat="35.092897" lon="-85.109098"><ele>307.5</ele><time>2026-07-25T20:08:17Z</time></trkpt>
<trkpt lat="35.092932" lon="-85.109092"><ele>306.6</ele><time>2026-07-25T20:08:20Z</time></trkpt>
<trkpt lat="35.092969" lon="-85.109068"><ele>305.4</ele><time>2026-07-25T20:08:23Z</time></trkpt>
<trkpt lat="35.092997" lon="-85.109055"><ele>306.3</ele><time>2026-07-25T20:08:25Z</time></trkpt>
<trkpt lat="35.093025" lon="-85.109061"><ele>306.6</ele><time>2026-07-25T20:08:27Z</time></trkpt>
<trkpt lat="35.093052" lon="-85.109073"><ele>307.8</ele><time>2026-07-25T20:08:29Z</time></trkpt>
<trkpt lat="35.093083" lon="-85.109103"><ele>306.0</ele><time>2026-07-25T20:08:32Z</time></trkpt>
<trkpt lat="35.093107" lon="-85.109123"><ele>305.1</ele><time>2026-07-25T20:08:34Z</time></trkpt>
<trkpt lat="35.093131" lon="-85.109144"><ele>303.9</ele><time>2026-07-25T20:08:36Z</time></trkpt>
<trkpt lat="35.093162" lon="-85.109146"><ele>303.3</ele><time>2026-07-25T20:08:38Z</time></trkpt>
<trkpt lat="35.093188" lon="-85.109128"><ele>303.6</ele><time>2026-07-25T20:08:40Z</time></trkpt>
<trkpt lat="35.093211" lon="-85.109103"><ele>305.4</ele><time>2026-07-25T20:08:42Z</time></trkpt>
<trkpt lat="35.093229" lon="-85.109077"><ele>304.2</ele><time>2026-07-25T20:08:44Z</time></trkpt>
<trkpt lat="35.093242" lon="-85.109045"><ele>305.4</ele><time>2026-07-25T20:08:46Z</time></trkpt>
<trkpt lat="35.093247" lon="-85.109006"><ele>306.0</ele><time>2026-07-25T20:08:48Z</time></trkpt>
<trkpt lat="35.093251" lon="-85.108968"><ele>306.9</ele><time>2026-07-25T20:08:50Z</time></trkpt>
<trkpt lat="35.093249" lon="-85.108934"><ele>307.2</ele><time>2026-07-25T20:08:52Z</time></trkpt>
<trkpt lat="35.093248" lon="-85.108893"><ele>307.8</ele><time>2026-07-25T20:08:54Z</time></trkpt>
<trkpt lat="35.093249" lon="-85.108845"><ele>306.0</ele><time>2026-07-25T20:08:57Z</time></trkpt>
<trkpt lat="35.093254" lon="-85.108799"><ele>306.9</ele><time>2026-07-25T20:09:00Z</time></trkpt>
<trkpt lat="35.093255" lon="-85.108763"><ele>307.2</ele><time>2026-07-25T20:09:02Z</time></trkpt>
<trkpt lat="35.093258" lon="-85.108714"><ele>308.5</ele><time>2026-07-25T20:09:05Z</time></trkpt>
<trkpt lat="35.093261" lon="-85.10868"><ele>310.3</ele><time>2026-07-25T20:09:07Z</time></trkpt>
<trkpt lat="35.093262" lon="-85.108636"><ele>310.0</ele><time>2026-07-25T20:09:10Z</time></trkpt>
<trkpt lat="35.093269" lon="-85.10859"><ele>309.7</ele><time>2026-07-25T20:09:13Z</time></trkpt>
<trkpt lat="35.09327" lon="-85.108545"><ele>308.8</ele><time>2026-07-25T20:09:16Z</time></trkpt>
<trkpt lat="35.093272" lon="-85.108496"><ele>309.4</ele><time>2026-07-25T20:09:19Z</time></trkpt>
<trkpt lat="35.093262" lon="-85.108448"><ele>310.3</ele><time>2026-07-25T20:09:22Z</time></trkpt>
<trkpt lat="35.093253" lon="-85.108406"><ele>310.3</ele><time>2026-07-25T20:09:25Z</time></trkpt>
<trkpt lat="35.093243" lon="-85.108361"><ele>308.8</ele><time>2026-07-25T20:09:28Z</time></trkpt>
<trkpt lat="35.093247" lon="-85.108314"><ele>308.5</ele><time>2026-07-25T20:09:31Z</time></trkpt>
<trkpt lat="35.093272" lon="-85.108277"><ele>308.5</ele><time>2026-07-25T20:09:34Z</time></trkpt>
<trkpt lat="35.093309" lon="-85.108258"><ele>308.5</ele><time>2026-07-25T20:09:37Z</time></trkpt>
<trkpt lat="35.093337" lon="-85.108252"><ele>306.6</ele><time>2026-07-25T20:09:39Z</time></trkpt>
<trkpt lat="35.093371" lon="-85.108235"><ele>305.4</ele><time>2026-07-25T20:09:42Z</time></trkpt>
<trkpt lat="35.093399" lon="-85.108207"><ele>306.9</ele><time>2026-07-25T20:09:45Z</time></trkpt>
<trkpt lat="35.093427" lon="-85.108177"><ele>306.9</ele><time>2026-07-25T20:09:48Z</time></trkpt>
<trkpt lat="35.093453" lon="-85.10814"><ele>307.5</ele><time>2026-07-25T20:09:51Z</time></trkpt>
<trkpt lat="35.093475" lon="-85.108104"><ele>308.8</ele><time>2026-07-25T20:09:54Z</time></trkpt>
<trkpt lat="35.093497" lon="-85.10807"><ele>306.9</ele><time>2026-07-25T20:09:57Z</time></trkpt>
<trkpt lat="35.093524" lon="-85.108037"><ele>306.0</ele><time>2026-07-25T20:10:00Z</time></trkpt>
<trkpt lat="35.093551" lon="-85.108008"><ele>304.5</ele><time>2026-07-25T20:10:03Z</time></trkpt>
<trkpt lat="35.093577" lon="-85.10797"><ele>305.1</ele><time>2026-07-25T20:10:06Z</time></trkpt>
<trkpt lat="35.093592" lon="-85.107941"><ele>304.8</ele><time>2026-07-25T20:10:08Z</time></trkpt>
<trkpt lat="35.0936" lon="-85.107909"><ele>304.8</ele><time>2026-07-25T20:10:10Z</time></trkpt>
<trkpt lat="35.093606" lon="-85.107876"><ele>303.9</ele><time>2026-07-25T20:10:12Z</time></trkpt>
<trkpt lat="35.093608" lon="-85.107843"><ele>303.9</ele><time>2026-07-25T20:10:14Z</time></trkpt>
<trkpt lat="35.09362" lon="-85.107798"><ele>302.4</ele><time>2026-07-25T20:10:17Z</time></trkpt>
<trkpt lat="35.093635" lon="-85.107755"><ele>301.8</ele><time>2026-07-25T20:10:20Z</time></trkpt>
<trkpt lat="35.093633" lon="-85.107721"><ele>300.8</ele><time>2026-07-25T20:10:22Z</time></trkpt>
<trkpt lat="35.09363" lon="-85.107681"><ele>300.8</ele><time>2026-07-25T20:10:24Z</time></trkpt>
<trkpt lat="35.093628" lon="-85.107646"><ele>301.8</ele><time>2026-07-25T20:10:26Z</time></trkpt>
<trkpt lat="35.093613" lon="-85.107603"><ele>303.6</ele><time>2026-07-25T20:10:29Z</time></trkpt>
<trkpt lat="35.093584" lon="-85.107571"><ele>304.5</ele><time>2026-07-25T20:10:32Z</time></trkpt>
<trkpt lat="35.093555" lon="-85.107539"><ele>304.5</ele><time>2026-07-25T20:10:35Z</time></trkpt>
<trkpt lat="35.093535" lon="-85.107502"><ele>304.2</ele><time>2026-07-25T20:10:38Z</time></trkpt>
<trkpt lat="35.093535" lon="-85.107467"><ele>305.1</ele><time>2026-07-25T20:10:40Z</time></trkpt>
<trkpt lat="35.093549" lon="-85.107429"><ele>305.7</ele><time>2026-07-25T20:10:42Z</time></trkpt>
<trkpt lat="35.093559" lon="-85.107394"><ele>305.7</ele><time>2026-07-25T20:10:44Z</time></trkpt>
<trkpt lat="35.093561" lon="-85.107347"><ele>307.5</ele><time>2026-07-25T20:10:47Z</time></trkpt>
<trkpt lat="35.093555" lon="-85.107315"><ele>307.8</ele><time>2026-07-25T20:10:49Z</time></trkpt>
<trkpt lat="35.093544" lon="-85.107278"><ele>305.1</ele><time>2026-07-25T20:10:52Z</time></trkpt>
<trkpt lat="35.093543" lon="-85.107236"><ele>306.0</ele><time>2026-07-25T20:10:55Z</time></trkpt>
<trkpt lat="35.093568" lon="-85.107206"><ele>303.6</ele><time>2026-07-25T20:10:58Z</time></trkpt>
<trkpt lat="35.0936" lon="-85.10718"><ele>304.5</ele><time>2026-07-25T20:11:01Z</time></trkpt>
<trkpt lat="35.093621" lon="-85.107141"><ele>305.1</ele><time>2026-07-25T20:11:04Z</time></trkpt>
<trkpt lat="35.093634" lon="-85.107099"><ele>305.4</ele><time>2026-07-25T20:11:07Z</time></trkpt>
<trkpt lat="35.093637" lon="-85.107065"><ele>305.7</ele><time>2026-07-25T20:11:09Z</time></trkpt>
<trkpt lat="35.093629" lon="-85.10703"><ele>306.0</ele><time>2026-07-25T20:11:11Z</time></trkpt>
<trkpt lat="35.093616" lon="-85.10699"><ele>304.5</ele><time>2026-07-25T20:11:14Z</time></trkpt>
<trkpt lat="35.093585" lon="-85.106959"><ele>303.9</ele><time>2026-07-25T20:11:17Z</time></trkpt>
<trkpt lat="35.093555" lon="-85.106927"><ele>304.5</ele><time>2026-07-25T20:11:20Z</time></trkpt>
<trkpt lat="35.093539" lon="-85.106899"><ele>304.8</ele><time>2026-07-25T20:11:22Z</time></trkpt>
<trkpt lat="35.093515" lon="-85.106859"><ele>306.0</ele><time>2026-07-25T20:11:25Z</time></trkpt>
<trkpt lat="35.093498" lon="-85.106828"><ele>307.5</ele><time>2026-07-25T20:11:27Z</time></trkpt>
<trkpt lat="35.093482" lon="-85.106798"><ele>308.5</ele><time>2026-07-25T20:11:29Z</time></trkpt>
<trkpt lat="35.093475" lon="-85.106764"><ele>309.4</ele><time>2026-07-25T20:11:31Z</time></trkpt>
<trkpt lat="35.09348" lon="-85.106716"><ele>310.0</ele><time>2026-07-25T20:11:34Z</time></trkpt>
<trkpt lat="35.093496" lon="-85.106673"><ele>309.4</ele><time>2026-07-25T20:11:37Z</time></trkpt>
<trkpt lat="35.093523" lon="-85.106641"><ele>308.5</ele><time>2026-07-25T20:11:40Z</time></trkpt>
<trkpt lat="35.09354" lon="-85.106613"><ele>309.4</ele><time>2026-07-25T20:11:42Z</time></trkpt>
<trkpt lat="35.093563" lon="-85.106575"><ele>309.1</ele><time>2026-07-25T20:11:45Z</time></trkpt>
<trkpt lat="35.093575" lon="-85.10653"><ele>309.1</ele><time>2026-07-25T20:11:48Z</time></trkpt>
<trkpt lat="35.093571" lon="-85.106481"><ele>309.7</ele><time>2026-07-25T20:11:51Z</time></trkpt>
<trkpt lat="35.093559" lon="-85.106433"><ele>310.9</ele><time>2026-07-25T20:11:54Z</time></trkpt>
<trkpt lat="35.093548" lon="-85.1064"><ele>310.6</ele><time>2026-07-25T20:11:56Z</time></trkpt>
<trkpt lat="35.093543" lon="-85.106352"><ele>309.1</ele><time>2026-07-25T20:11:59Z</time></trkpt>
<trkpt lat="35.093542" lon="-85.106303"><ele>309.7</ele><time>2026-07-25T20:12:02Z</time></trkpt>
<trkpt lat="35.093536" lon="-85.10627"><ele>308.8</ele><time>2026-07-25T20:12:04Z</time></trkpt>
<trkpt lat="35.093542" lon="-85.106223"><ele>306.9</ele><time>2026-07-25T20:12:07Z</time></trkpt>
<trkpt lat="35.09354" lon="-85.106187"><ele>306.6</ele><time>2026-07-25T20:12:09Z</time></trkpt>
<trkpt lat="35.093536" lon="-85.106151"><ele>305.7</ele><time>2026-07-25T20:12:11Z</time></trkpt>
<trkpt lat="35.093531" lon="-85.106117"><ele>306.9</ele><time>2026-07-25T20:12:13Z</time></trkpt>
<trkpt lat="35.093521" lon="-85.106081"><ele>306.9</ele><time>2026-07-25T20:12:15Z</time></trkpt>
<trkpt lat="35.093513" lon="-85.106043"><ele>307.5</ele><time>2026-07-25T20:12:17Z</time></trkpt>
<trkpt lat="35.093498" lon="-85.106008"><ele>307.8</ele><time>2026-07-25T20:12:19Z</time></trkpt>
<trkpt lat="35.093475" lon="-85.105983"><ele>307.8</ele><time>2026-07-25T20:12:21Z</time></trkpt>
<trkpt lat="35.093445" lon="-85.105966"><ele>307.8</ele><time>2026-07-25T20:12:23Z</time></trkpt>
<trkpt lat="35.093416" lon="-85.105957"><ele>307.2</ele><time>2026-07-25T20:12:25Z</time></trkpt>
<trkpt lat="35.093389" lon="-85.10595"><ele>307.5</ele><time>2026-07-25T20:12:27Z</time></trkpt>
<trkpt lat="35.093364" lon="-85.105934"><ele>307.5</ele><time>2026-07-25T20:12:29Z</time></trkpt>
<trkpt lat="35.09334" lon="-85.105912"><ele>308.2</ele><time>2026-07-25T20:12:31Z</time></trkpt>
<trkpt lat="35.093319" lon="-85.105881"><ele>307.5</ele><time>2026-07-25T20:12:33Z</time></trkpt>
<trkpt lat="35.0933" lon="-85.105849"><ele>308.2</ele><time>2026-07-25T20:12:35Z</time></trkpt>
<trkpt lat="35.093277" lon="-85.105821"><ele>308.8</ele><time>2026-07-25T20:12:37Z</time></trkpt>
<trkpt lat="35.093266" lon="-85.105786"><ele>308.8</ele><time>2026-07-25T20:12:39Z</time></trkpt>
<trkpt lat="35.093254" lon="-85.10575"><ele>310.0</ele><time>2026-07-25T20:12:41Z</time></trkpt>
<trkpt lat="35.093246" lon="-85.105713"><ele>309.7</ele><time>2026-07-25T20:12:43Z</time></trkpt>
<trkpt lat="35.093241" lon="-85.105674"><ele>309.7</ele><time>2026-07-25T20:12:45Z</time></trkpt>
<trkpt lat="35.093235" lon="-85.105637"><ele>310.3</ele><time>2026-07-25T20:12:47Z</time></trkpt>
<trkpt lat="35.093235" lon="-85.105599"><ele>312.1</ele><time>2026-07-25T20:12:49Z</time></trkpt>
<trkpt lat="35.093228" lon="-85.105565"><ele>311.5</ele><time>2026-07-25T20:12:51Z</time></trkpt>
<trkpt lat="35.09321" lon="-85.105537"><ele>311.2</ele><time>2026-07-25T20:12:53Z</time></trkpt>
<trkpt lat="35.09319" lon="-85.105509"><ele>311.2</ele><time>2026-07-25T20:12:55Z</time></trkpt>
<trkpt lat="35.093189" lon="-85.105475"><ele>308.5</ele><time>2026-07-25T20:12:57Z</time></trkpt>
<trkpt lat="35.093204" lon="-85.10543"><ele>308.5</ele><time>2026-07-25T20:13:00Z</time></trkpt>
<trkpt lat="35.093224" lon="-85.10539"><ele>306.0</ele><time>2026-07-25T20:13:03Z</time></trkpt>
<trkpt lat="35.093249" lon="-85.105354"><ele>306.0</ele><time>2026-07-25T20:13:06Z</time></trkpt>
<trkpt lat="35.093266" lon="-85.105313"><ele>306.0</ele><time>2026-07-25T20:13:09Z</time></trkpt>
<trkpt lat="35.093284" lon="-85.105273"><ele>306.0</ele><time>2026-07-25T20:13:12Z</time></trkpt>
<trkpt lat="35.093289" lon="-85.10524"><ele>306.3</ele><time>2026-07-25T20:13:14Z</time></trkpt>
<trkpt lat="35.093287" lon="-85.10519"><ele>305.7</ele><time>2026-07-25T20:13:17Z</time></trkpt>
<trkpt lat="35.093278" lon="-85.105144"><ele>302.4</ele><time>2026-07-25T20:13:20Z</time></trkpt>
<trkpt lat="35.093267" lon="-85.105113"><ele>302.1</ele><time>2026-07-25T20:13:22Z</time></trkpt>
<trkpt lat="35.093252" lon="-85.105082"><ele>302.1</ele><time>2026-07-25T20:13:24Z</time></trkpt>
<trkpt lat="35.093237" lon="-85.105048"><ele>302.4</ele><time>2026-07-25T20:13:26Z</time></trkpt>
<trkpt lat="35.093221" lon="-85.105016"><ele>303.9</ele><time>2026-07-25T20:13:28Z</time></trkpt>
<trkpt lat="35.093205" lon="-85.104979"><ele>304.8</ele><time>2026-07-25T20:13:30Z</time></trkpt>
<trkpt lat="35.093189" lon="-85.104948"><ele>306.0</ele><time>2026-07-25T20:13:32Z</time></trkpt>
<trkpt lat="35.093163" lon="-85.104911"><ele>307.8</ele><time>2026-07-25T20:13:35Z</time></trkpt>
<trkpt lat="35.093152" lon="-85.104868"><ele>307.5</ele><time>2026-07-25T20:13:38Z</time></trkpt>
<trkpt lat="35.093143" lon="-85.104826"><ele>310.0</ele><time>2026-07-25T20:13:41Z</time></trkpt>
<trkpt lat="35.093128" lon="-85.104784"><ele>310.6</ele><time>2026-07-25T20:13:44Z</time></trkpt>
<trkpt lat="35.093136" lon="-85.104736"><ele>307.8</ele><time>2026-07-25T20:13:47Z</time></trkpt>
<trkpt lat="35.093143" lon="-85.104701"><ele>306.6</ele><time>2026-07-25T20:13:49Z</time></trkpt>
<trkpt lat="35.093151" lon="-85.104656"><ele>304.8</ele><time>2026-07-25T20:13:52Z</time></trkpt>
<trkpt lat="35.093166" lon="-85.104618"><ele>302.7</ele><time>2026-07-25T20:13:55Z</time></trkpt>
<trkpt lat="35.093174" lon="-85.104574"><ele>303.9</ele><time>2026-07-25T20:13:58Z</time></trkpt>
<trkpt lat="35.093179" lon="-85.10453"><ele>303.0</ele><time>2026-07-25T20:14:01Z</time></trkpt>
<trkpt lat="35.093165" lon="-85.104489"><ele>301.8</ele><time>2026-07-25T20:14:04Z</time></trkpt>
<trkpt lat="35.093147" lon="-85.104461"><ele>301.8</ele><time>2026-07-25T20:14:06Z</time></trkpt>
<trkpt lat="35.093126" lon="-85.104433"><ele>301.8</ele><time>2026-07-25T20:14:08Z</time></trkpt>
<trkpt lat="35.093107" lon="-85.104405"><ele>302.1</ele><time>2026-07-25T20:14:10Z</time></trkpt>
<trkpt lat="35.093087" lon="-85.104379"><ele>302.4</ele><time>2026-07-25T20:14:12Z</time></trkpt>
<trkpt lat="35.093065" lon="-85.104338"><ele>302.4</ele><time>2026-07-25T20:14:15Z</time></trkpt>
<trkpt lat="35.093053" lon="-85.104307"><ele>302.7</ele><time>2026-07-25T20:14:17Z</time></trkpt>
<trkpt lat="35.093047" lon="-85.104273"><ele>302.4</ele><time>2026-07-25T20:14:19Z</time></trkpt>
<trkpt lat="35.093044" lon="-85.104227"><ele>302.4</ele><time>2026-07-25T20:14:22Z</time></trkpt>
<trkpt lat="35.093052" lon="-85.104181"><ele>302.4</ele><time>2026-07-25T20:14:25Z</time></trkpt>
<trkpt lat="35.09306" lon="-85.104136"><ele>303.3</ele><time>2026-07-25T20:14:28Z</time></trkpt>
<trkpt lat="35.093081" lon="-85.104099"><ele>303.6</ele><time>2026-07-25T20:14:31Z</time></trkpt>
<trkpt lat="35.093105" lon="-85.104064"><ele>302.7</ele><time>2026-07-25T20:14:33Z</time></trkpt>
<trkpt lat="35.093103" lon="-85.10402"><ele>300.8</ele><time>2026-07-25T20:14:36Z</time></trkpt>
<trkpt lat="35.093099" lon="-85.103972"><ele>301.4</ele><time>2026-07-25T20:14:39Z</time></trkpt>
<trkpt lat="35.093108" lon="-85.103929"><ele>300.5</ele><time>2026-07-25T20:14:42Z</time></trkpt>
<trkpt lat="35.093108" lon="-85.103885"><ele>299.9</ele><time>2026-07-25T20:14:45Z</time></trkpt>
<trkpt lat="35.093105" lon="-85.103851"><ele>298.1</ele><time>2026-07-25T20:14:47Z</time></trkpt>
<trkpt lat="35.093101" lon="-85.103817"><ele>297.8</ele><time>2026-07-25T20:14:49Z</time></trkpt>
<trkpt lat="35.093102" lon="-85.103781"><ele>298.1</ele><time>2026-07-25T20:14:51Z</time></trkpt>
<trkpt lat="35.093099" lon="-85.103738"><ele>296.3</ele><time>2026-07-25T20:14:54Z</time></trkpt>
<trkpt lat="35.093107" lon="-85.103705"><ele>296.9</ele><time>2026-07-25T20:14:56Z</time></trkpt>
<trkpt lat="35.093131" lon="-85.103666"><ele>296.6</ele><time>2026-07-25T20:14:59Z</time></trkpt>
<trkpt lat="35.093153" lon="-85.103641"><ele>296.0</ele><time>2026-07-25T20:15:01Z</time></trkpt>
<trkpt lat="35.093183" lon="-85.103637"><ele>294.1</ele><time>2026-07-25T20:15:03Z</time></trkpt>
<trkpt lat="35.093212" lon="-85.103646"><ele>292.3</ele><time>2026-07-25T20:15:05Z</time></trkpt>
<trkpt lat="35.093238" lon="-85.10366"><ele>290.8</ele><time>2026-07-25T20:15:07Z</time></trkpt>
<trkpt lat="35.09326" lon="-85.103696"><ele>290.8</ele><time>2026-07-25T20:15:10Z</time></trkpt>
<trkpt lat="35.093276" lon="-85.103739"><ele>292.6</ele><time>2026-07-25T20:15:13Z</time></trkpt>
<trkpt lat="35.093289" lon="-85.10379"><ele>292.3</ele><time>2026-07-25T20:15:16Z</time></trkpt>
<trkpt lat="35.093299" lon="-85.103838"><ele>293.8</ele><time>2026-07-25T20:15:19Z</time></trkpt>
<trkpt lat="35.093305" lon="-85.103887"><ele>296.0</ele><time>2026-07-25T20:15:22Z</time></trkpt>
<trkpt lat="35.093313" lon="-85.103924"><ele>296.0</ele><time>2026-07-25T20:15:24Z</time></trkpt>
<trkpt lat="35.093312" lon="-85.10396"><ele>297.8</ele><time>2026-07-25T20:15:26Z</time></trkpt>
<trkpt lat="35.093316" lon="-85.104"><ele>297.2</ele><time>2026-07-25T20:15:29Z</time></trkpt>
<trkpt lat="35.093327" lon="-85.104047"><ele>297.2</ele><time>2026-07-25T20:15:32Z</time></trkpt>
<trkpt lat="35.093334" lon="-85.104091"><ele>298.1</ele><time>2026-07-25T20:15:35Z</time></trkpt>
<trkpt lat="35.093338" lon="-85.104137"><ele>296.9</ele><time>2026-07-25T20:15:38Z</time></trkpt>
<trkpt lat="35.09334" lon="-85.104181"><ele>297.8</ele><time>2026-07-25T20:15:41Z</time></trkpt>
<trkpt lat="35.093335" lon="-85.104227"><ele>299.0</ele><time>2026-07-25T20:15:44Z</time></trkpt>
<trkpt lat="35.093341" lon="-85.104276"><ele>300.2</ele><time>2026-07-25T20:15:47Z</time></trkpt>
<trkpt lat="35.093342" lon="-85.104322"><ele>299.9</ele><time>2026-07-25T20:15:50Z</time></trkpt>
<trkpt lat="35.09334" lon="-85.104369"><ele>301.4</ele><time>2026-07-25T20:15:53Z</time></trkpt>
<trkpt lat="35.093344" lon="-85.104403"><ele>301.4</ele><time>2026-07-25T20:15:55Z</time></trkpt>
<trkpt lat="35.09335" lon="-85.104437"><ele>302.1</ele><time>2026-07-25T20:15:57Z</time></trkpt>
<trkpt lat="35.093353" lon="-85.104472"><ele>302.4</ele><time>2026-07-25T20:15:59Z</time></trkpt>
<trkpt lat="35.093362" lon="-85.104521"><ele>303.0</ele><time>2026-07-25T20:16:02Z</time></trkpt>
<trkpt lat="35.093368" lon="-85.104554"><ele>301.8</ele><time>2026-07-25T20:16:04Z</time></trkpt>
<trkpt lat="35.09337" lon="-85.104589"><ele>301.8</ele><time>2026-07-25T20:16:06Z</time></trkpt>
<trkpt lat="35.09337" lon="-85.104635"><ele>303.3</ele><time>2026-07-25T20:16:09Z</time></trkpt>
<trkpt lat="35.093358" lon="-85.104681"><ele>304.8</ele><time>2026-07-25T20:16:12Z</time></trkpt>
<trkpt lat="35.093344" lon="-85.104711"><ele>306.6</ele><time>2026-07-25T20:16:14Z</time></trkpt>
<trkpt lat="35.093326" lon="-85.104738"><ele>306.6</ele><time>2026-07-25T20:16:16Z</time></trkpt>
<trkpt lat="35.093315" lon="-85.104772"><ele>306.0</ele><time>2026-07-25T20:16:19Z</time></trkpt>
<trkpt lat="35.093312" lon="-85.10481"><ele>305.4</ele><time>2026-07-25T20:16:22Z</time></trkpt>
<trkpt lat="35.093311" lon="-85.104857"><ele>305.1</ele><time>2026-07-25T20:16:25Z</time></trkpt>
<trkpt lat="35.093325" lon="-85.104899"><ele>305.1</ele><time>2026-07-25T20:16:28Z</time></trkpt>
<trkpt lat="35.093355" lon="-85.104931"><ele>305.1</ele><time>2026-07-25T20:16:31Z</time></trkpt>
<trkpt lat="35.093384" lon="-85.104954"><ele>304.5</ele><time>2026-07-25T20:16:34Z</time></trkpt>
<trkpt lat="35.093418" lon="-85.104982"><ele>302.4</ele><time>2026-07-25T20:16:37Z</time></trkpt>
<trkpt lat="35.093443" lon="-85.105003"><ele>302.1</ele><time>2026-07-25T20:16:39Z</time></trkpt>
<trkpt lat="35.093482" lon="-85.105008"><ele>303.3</ele><time>2026-07-25T20:16:42Z</time></trkpt>
<trkpt lat="35.093507" lon="-85.105025"><ele>302.7</ele><time>2026-07-25T20:16:44Z</time></trkpt>
<trkpt lat="35.093523" lon="-85.105052"><ele>301.8</ele><time>2026-07-25T20:16:46Z</time></trkpt>
<trkpt lat="35.093538" lon="-85.105081"><ele>300.8</ele><time>2026-07-25T20:16:48Z</time></trkpt>
<trkpt lat="35.093564" lon="-85.105117"><ele>300.5</ele><time>2026-07-25T20:16:51Z</time></trkpt>
<trkpt lat="35.093585" lon="-85.10514"><ele>299.9</ele><time>2026-07-25T20:16:53Z</time></trkpt>
<trkpt lat="35.093599" lon="-85.105188"><ele>299.0</ele><time>2026-07-25T20:16:56Z</time></trkpt>
<trkpt lat="35.093613" lon="-85.10522"><ele>297.8</ele><time>2026-07-25T20:16:58Z</time></trkpt>
<trkpt lat="35.093636" lon="-85.105257"><ele>297.8</ele><time>2026-07-25T20:17:01Z</time></trkpt>
<trkpt lat="35.093654" lon="-85.105301"><ele>298.4</ele><time>2026-07-25T20:17:04Z</time></trkpt>
<trkpt lat="35.093667" lon="-85.10533"><ele>298.4</ele><time>2026-07-25T20:17:06Z</time></trkpt>
<trkpt lat="35.093683" lon="-85.105365"><ele>295.7</ele><time>2026-07-25T20:17:09Z</time></trkpt>
<trkpt lat="35.093673" lon="-85.105403"><ele>295.0</ele><time>2026-07-25T20:17:12Z</time></trkpt>
<trkpt lat="35.093642" lon="-85.105434"><ele>297.2</ele><time>2026-07-25T20:17:15Z</time></trkpt>
<trkpt lat="35.093613" lon="-85.105467"><ele>299.3</ele><time>2026-07-25T20:17:18Z</time></trkpt>
<trkpt lat="35.093596" lon="-85.105495"><ele>298.4</ele><time>2026-07-25T20:17:20Z</time></trkpt>
<trkpt lat="35.093572" lon="-85.105515"><ele>299.6</ele><time>2026-07-25T20:17:22Z</time></trkpt>
<trkpt lat="35.093559" lon="-85.105558"><ele>301.4</ele><time>2026-07-25T20:17:25Z</time></trkpt>
<trkpt lat="35.093576" lon="-85.105588"><ele>302.4</ele><time>2026-07-25T20:17:27Z</time></trkpt>
<trkpt lat="35.093596" lon="-85.105616"><ele>302.7</ele><time>2026-07-25T20:17:29Z</time></trkpt>
<trkpt lat="35.093612" lon="-85.105648"><ele>303.3</ele><time>2026-07-25T20:17:31Z</time></trkpt>
<trkpt lat="35.093631" lon="-85.105689"><ele>304.8</ele><time>2026-07-25T20:17:34Z</time></trkpt>
<trkpt lat="35.093638" lon="-85.105722"><ele>304.8</ele><time>2026-07-25T20:17:36Z</time></trkpt>
<trkpt lat="35.093644" lon="-85.105769"><ele>306.0</ele><time>2026-07-25T20:17:39Z</time></trkpt>
<trkpt lat="35.093649" lon="-85.105814"><ele>306.3</ele><time>2026-07-25T20:17:42Z</time></trkpt>
<trkpt lat="35.09365" lon="-85.105852"><ele>306.3</ele><time>2026-07-25T20:17:44Z</time></trkpt>
<trkpt lat="35.093645" lon="-85.105887"><ele>306.9</ele><time>2026-07-25T20:17:46Z</time></trkpt>
<trkpt lat="35.093644" lon="-85.105929"><ele>308.8</ele><time>2026-07-25T20:17:49Z</time></trkpt>
<trkpt lat="35.093654" lon="-85.105973"><ele>309.7</ele><time>2026-07-25T20:17:52Z</time></trkpt>
<trkpt lat="35.09367" lon="-85.106015"><ele>310.3</ele><time>2026-07-25T20:17:55Z</time></trkpt>
<trkpt lat="35.093677" lon="-85.106049"><ele>309.1</ele><time>2026-07-25T20:17:57Z</time></trkpt>
<trkpt lat="35.093683" lon="-85.106085"><ele>309.1</ele><time>2026-07-25T20:17:59Z</time></trkpt>
<trkpt lat="35.093704" lon="-85.106111"><ele>308.2</ele><time>2026-07-25T20:18:01Z</time></trkpt>
<trkpt lat="35.093727" lon="-85.106134"><ele>306.3</ele><time>2026-07-25T20:18:03Z</time></trkpt>
<trkpt lat="35.093756" lon="-85.106147"><ele>304.5</ele><time>2026-07-25T20:18:05Z</time></trkpt>
<trkpt lat="35.093796" lon="-85.106157"><ele>305.1</ele><time>2026-07-25T20:18:08Z</time></trkpt>
<trkpt lat="35.093834" lon="-85.106165"><ele>304.8</ele><time>2026-07-25T20:18:11Z</time></trkpt>
<trkpt lat="35.093861" lon="-85.106179"><ele>304.8</ele><time>2026-07-25T20:18:13Z</time></trkpt>
<trkpt lat="35.093887" lon="-85.106198"><ele>303.9</ele><time>2026-07-25T20:18:15Z</time></trkpt>
<trkpt lat="35.093909" lon="-85.106222"><ele>303.9</ele><time>2026-07-25T20:18:17Z</time></trkpt>
<trkpt lat="35.093934" lon="-85.106256"><ele>304.2</ele><time>2026-07-25T20:18:20Z</time></trkpt>
<trkpt lat="35.093945" lon="-85.106288"><ele>304.2</ele><time>2026-07-25T20:18:22Z</time></trkpt>
<trkpt lat="35.093954" lon="-85.106322"><ele>305.1</ele><time>2026-07-25T20:18:24Z</time></trkpt>
<trkpt lat="35.093946" lon="-85.106367"><ele>305.7</ele><time>2026-07-25T20:18:27Z</time></trkpt>
<trkpt lat="35.093935" lon="-85.106407"><ele>303.9</ele><time>2026-07-25T20:18:30Z</time></trkpt>
<trkpt lat="35.093931" lon="-85.106452"><ele>302.7</ele><time>2026-07-25T20:18:33Z</time></trkpt>
<trkpt lat="35.093944" lon="-85.106499"><ele>303.9</ele><time>2026-07-25T20:18:36Z</time></trkpt>
<trkpt lat="35.093949" lon="-85.106534"><ele>303.9</ele><time>2026-07-25T20:18:38Z</time></trkpt>
<trkpt lat="35.09396" lon="-85.106568"><ele>303.3</ele><time>2026-07-25T20:18:40Z</time></trkpt>
<trkpt lat="35.093966" lon="-85.106601"><ele>303.6</ele><time>2026-07-25T20:18:42Z</time></trkpt>
<trkpt lat="35.09397" lon="-85.106635"><ele>302.4</ele><time>2026-07-25T20:18:44Z</time></trkpt>
<trkpt lat="35.093965" lon="-85.10668"><ele>302.1</ele><time>2026-07-25T20:18:47Z</time></trkpt>
<trkpt lat="35.093958" lon="-85.106712"><ele>302.7</ele><time>2026-07-25T20:18:49Z</time></trkpt>
<trkpt lat="35.093951" lon="-85.106747"><ele>304.2</ele><time>2026-07-25T20:18:51Z</time></trkpt>
<trkpt lat="35.09394" lon="-85.106788"><ele>303.0</ele><time>2026-07-25T20:18:54Z</time></trkpt>
<trkpt lat="35.093935" lon="-85.106832"><ele>301.4</ele><time>2026-07-25T20:18:57Z</time></trkpt>
<trkpt lat="35.093928" lon="-85.106873"><ele>301.4</ele><time>2026-07-25T20:19:00Z</time></trkpt>
<trkpt lat="35.093925" lon="-85.106912"><ele>301.1</ele><time>2026-07-25T20:19:03Z</time></trkpt>
<trkpt lat="35.093921" lon="-85.106956"><ele>299.3</ele><time>2026-07-25T20:19:06Z</time></trkpt>
<trkpt lat="35.093924" lon="-85.10699"><ele>299.3</ele><time>2026-07-25T20:19:08Z</time></trkpt>
<trkpt lat="35.093925" lon="-85.107025"><ele>296.9</ele><time>2026-07-25T20:19:10Z</time></trkpt>
<trkpt lat="35.093926" lon="-85.10706"><ele>296.3</ele><time>2026-07-25T20:19:12Z</time></trkpt>
<trkpt lat="35.093934" lon="-85.107095"><ele>295.4</ele><time>2026-07-25T20:19:14Z</time></trkpt>
<trkpt lat="35.093938" lon="-85.107131"><ele>297.5</ele><time>2026-07-25T20:19:16Z</time></trkpt>
<trkpt lat="35.093944" lon="-85.107166"><ele>299.3</ele><time>2026-07-25T20:19:18Z</time></trkpt>
<trkpt lat="35.093947" lon="-85.107202"><ele>300.8</ele><time>2026-07-25T20:19:20Z</time></trkpt>
<trkpt lat="35.093943" lon="-85.107238"><ele>301.4</ele><time>2026-07-25T20:19:22Z</time></trkpt>
<trkpt lat="35.093935" lon="-85.107273"><ele>302.1</ele><time>2026-07-25T20:19:24Z</time></trkpt>
<trkpt lat="35.093932" lon="-85.107309"><ele>299.9</ele><time>2026-07-25T20:19:26Z</time></trkpt>
<trkpt lat="35.093929" lon="-85.107344"><ele>299.6</ele><time>2026-07-25T20:19:28Z</time></trkpt>
<trkpt lat="35.093927" lon="-85.107379"><ele>298.7</ele><time>2026-07-25T20:19:30Z</time></trkpt>
<trkpt lat="35.093922" lon="-85.107414"><ele>299.3</ele><time>2026-07-25T20:19:32Z</time></trkpt>
<trkpt lat="35.093899" lon="-85.107454"><ele>300.5</ele><time>2026-07-25T20:19:35Z</time></trkpt>
<trkpt lat="35.093873" lon="-85.10749"><ele>301.1</ele><time>2026-07-25T20:19:38Z</time></trkpt>
<trkpt lat="35.093849" lon="-85.107516"><ele>301.8</ele><time>2026-07-25T20:19:41Z</time></trkpt>
<trkpt lat="35.09383" lon="-85.107554"><ele>300.2</ele><time>2026-07-25T20:19:44Z</time></trkpt>
<trkpt lat="35.093811" lon="-85.10758"><ele>302.1</ele><time>2026-07-25T20:19:46Z</time></trkpt>
<trkpt lat="35.093785" lon="-85.107596"><ele>303.6</ele><time>2026-07-25T20:19:48Z</time></trkpt>
<trkpt lat="35.09376" lon="-85.107629"><ele>303.6</ele><time>2026-07-25T20:19:51Z</time></trkpt>
<trkpt lat="35.093748" lon="-85.107674"><ele>302.7</ele><time>2026-07-25T20:19:54Z</time></trkpt>
<trkpt lat="35.093741" lon="-85.107721"><ele>303.0</ele><time>2026-07-25T20:19:57Z</time></trkpt>
<trkpt lat="35.09373" lon="-85.107766"><ele>304.2</ele><time>2026-07-25T20:20:00Z</time></trkpt>
<trkpt lat="35.093713" lon="-85.107805"><ele>303.6</ele><time>2026-07-25T20:20:03Z</time></trkpt>
<trkpt lat="35.093704" lon="-85.107851"><ele>302.4</ele><time>2026-07-25T20:20:06Z</time></trkpt>
<trkpt lat="35.093696" lon="-85.107885"><ele>301.4</ele><time>2026-07-25T20:20:08Z</time></trkpt>
<trkpt lat="35.093687" lon="-85.107917"><ele>301.1</ele><time>2026-07-25T20:20:10Z</time></trkpt>
<trkpt lat="35.093677" lon="-85.107965"><ele>302.7</ele><time>2026-07-25T20:20:13Z</time></trkpt>
<trkpt lat="35.093673" lon="-85.107999"><ele>302.4</ele><time>2026-07-25T20:20:15Z</time></trkpt>
<trkpt lat="35.093669" lon="-85.108032"><ele>303.0</ele><time>2026-07-25T20:20:17Z</time></trkpt>
<trkpt lat="35.093667" lon="-85.108068"><ele>303.0</ele><time>2026-07-25T20:20:19Z</time></trkpt>
<trkpt lat="35.093658" lon="-85.1081"><ele>302.7</ele><time>2026-07-25T20:20:21Z</time></trkpt>
<trkpt lat="35.093651" lon="-85.108135"><ele>303.6</ele><time>2026-07-25T20:20:23Z</time></trkpt>
<trkpt lat="35.093641" lon="-85.108183"><ele>305.7</ele><time>2026-07-25T20:20:26Z</time></trkpt>
<trkpt lat="35.093632" lon="-85.10823"><ele>306.6</ele><time>2026-07-25T20:20:29Z</time></trkpt>
<trkpt lat="35.093628" lon="-85.108276"><ele>306.3</ele><time>2026-07-25T20:20:32Z</time></trkpt>
<trkpt lat="35.093625" lon="-85.10831"><ele>305.4</ele><time>2026-07-25T20:20:34Z</time></trkpt>
<trkpt lat="35.093623" lon="-85.108345"><ele>304.5</ele><time>2026-07-25T20:20:36Z</time></trkpt>
<trkpt lat="35.093641" lon="-85.108392"><ele>303.0</ele><time>2026-07-25T20:20:39Z</time></trkpt>
<trkpt lat="35.093669" lon="-85.108415"><ele>300.2</ele><time>2026-07-25T20:20:41Z</time></trkpt>
<trkpt lat="35.093688" lon="-85.108443"><ele>299.6</ele><time>2026-07-25T20:20:43Z</time></trkpt>
<trkpt lat="35.093713" lon="-85.108466"><ele>299.0</ele><time>2026-07-25T20:20:45Z</time></trkpt>
<trkpt lat="35.093728" lon="-85.108498"><ele>299.3</ele><time>2026-07-25T20:20:47Z</time></trkpt>
<trkpt lat="35.09373" lon="-85.108533"><ele>300.5</ele><time>2026-07-25T20:20:49Z</time></trkpt>
<trkpt lat="35.093731" lon="-85.108571"><ele>301.4</ele><time>2026-07-25T20:20:51Z</time></trkpt>
<trkpt lat="35.093726" lon="-85.10861"><ele>302.4</ele><time>2026-07-25T20:20:53Z</time></trkpt>
<trkpt lat="35.093715" lon="-85.108646"><ele>302.7</ele><time>2026-07-25T20:20:55Z</time></trkpt>
<trkpt lat="35.093699" lon="-85.108688"><ele>302.7</ele><time>2026-07-25T20:20:58Z</time></trkpt>
<trkpt lat="35.093687" lon="-85.108721"><ele>302.1</ele><time>2026-07-25T20:21:00Z</time></trkpt>
<trkpt lat="35.093672" lon="-85.108768"><ele>303.6</ele><time>2026-07-25T20:21:03Z</time></trkpt>
<trkpt lat="35.09368" lon="-85.108805"><ele>305.7</ele><time>2026-07-25T20:21:05Z</time></trkpt>
<trkpt lat="35.093695" lon="-85.108835"><ele>306.0</ele><time>2026-07-25T20:21:07Z</time></trkpt>
<trkpt lat="35.093707" lon="-85.108867"><ele>306.3</ele><time>2026-07-25T20:21:09Z</time></trkpt>
<trkpt lat="35.093717" lon="-85.108909"><ele>304.8</ele><time>2026-07-25T20:21:12Z</time></trkpt>
<trkpt lat="35.093712" lon="-85.108957"><ele>305.4</ele><time>2026-07-25T20:21:15Z</time></trkpt>
<trkpt lat="35.093697" lon="-85.108987"><ele>305.1</ele><time>2026-07-25T20:21:17Z</time></trkpt>
<trkpt lat="35.093679" lon="-85.109023"><ele>304.2</ele><time>2026-07-25T20:21:20Z</time></trkpt>
<trkpt lat="35.093678" lon="-85.10907"><ele>305.1</ele><time>2026-07-25T20:21:23Z</time></trkpt>
<trkpt lat="35.093686" lon="-85.109118"><ele>305.1</ele><time>2026-07-25T20:21:26Z</time></trkpt>
<trkpt lat="35.0937" lon="-85.109164"><ele>305.1</ele><time>2026-07-25T20:21:29Z</time></trkpt>
<trkpt lat="35.093712" lon="-85.109208"><ele>305.4</ele><time>2026-07-25T20:21:32Z</time></trkpt>
<trkpt lat="35.093709" lon="-85.109245"><ele>304.8</ele><time>2026-07-25T20:21:34Z</time></trkpt>
<trkpt lat="35.093692" lon="-85.109287"><ele>305.7</ele><time>2026-07-25T20:21:37Z</time></trkpt>
<trkpt lat="35.093673" lon="-85.109327"><ele>306.9</ele><time>2026-07-25T20:21:40Z</time></trkpt>
<trkpt lat="35.093649" lon="-85.10936"><ele>306.3</ele><time>2026-07-25T20:21:43Z</time></trkpt>
<trkpt lat="35.093616" lon="-85.109383"><ele>306.9</ele><time>2026-07-25T20:21:46Z</time></trkpt>
<trkpt lat="35.093585" lon="-85.109404"><ele>307.2</ele><time>2026-07-25T20:21:49Z</time></trkpt>
<trkpt lat="35.093551" lon="-85.109424"><ele>309.1</ele><time>2026-07-25T20:21:52Z</time></trkpt>
<trkpt lat="35.093519" lon="-85.109447"><ele>308.5</ele><time>2026-07-25T20:21:55Z</time></trkpt>
<trkpt lat="35.093484" lon="-85.109462"><ele>308.2</ele><time>2026-07-25T20:21:58Z</time></trkpt>
<trkpt lat="35.093446" lon="-85.10945"><ele>309.1</ele><time>2026-07-25T20:22:01Z</time></trkpt>
<trkpt lat="35.09341" lon="-85.109433"><ele>309.4</ele><time>2026-07-25T20:22:04Z</time></trkpt>
<trkpt lat="35.093376" lon="-85.109457"><ele>306.9</ele><time>2026-07-25T20:22:07Z</time></trkpt>
<trkpt lat="35.093351" lon="-85.109497"><ele>306.9</ele><time>2026-07-25T20:22:10Z</time></trkpt>
<trkpt lat="35.093338" lon="-85.109528"><ele>305.4</ele><time>2026-07-25T20:22:12Z</time></trkpt>
<trkpt lat="35.093327" lon="-85.109561"><ele>306.0</ele><time>2026-07-25T20:22:14Z</time></trkpt>
<trkpt lat="35.093314" lon="-85.109595"><ele>306.3</ele><time>2026-07-25T20:22:16Z</time></trkpt>
<trkpt lat="35.093301" lon="-85.10963"><ele>306.0</ele><time>2026-07-25T20:22:18Z</time></trkpt>
<trkpt lat="35.093289" lon="-85.109663"><ele>305.4</ele><time>2026-07-25T20:22:20Z</time></trkpt>
<trkpt lat="35.093264" lon="-85.109705"><ele>305.1</ele><time>2026-07-25T20:22:23Z</time></trkpt>
<trkpt lat="35.093255" lon="-85.10974"><ele>305.7</ele><time>2026-07-25T20:22:25Z</time></trkpt>
<trkpt lat="35.093243" lon="-85.109771"><ele>305.1</ele><time>2026-07-25T20:22:27Z</time></trkpt>
<trkpt lat="35.093237" lon="-85.109807"><ele>305.4</ele><time>2026-07-25T20:22:29Z</time></trkpt>
<trkpt lat="35.093231" lon="-85.10984"><ele>305.7</ele><time>2026-07-25T20:22:31Z</time></trkpt>
<trkpt lat="35.093224" lon="-85.109875"><ele>306.6</ele><time>2026-07-25T20:22:33Z</time></trkpt>
<trkpt lat="35.093223" lon="-85.109913"><ele>306.9</ele><time>2026-07-25T20:22:35Z</time></trkpt>
<trkpt lat="35.093227" lon="-85.109948"><ele>307.8</ele><time>2026-07-25T20:22:37Z</time></trkpt>
<trkpt lat="35.093241" lon="-85.109985"><ele>306.9</ele><time>2026-07-25T20:22:39Z</time></trkpt>
<trkpt lat="35.093241" lon="-85.110025"><ele>309.1</ele><time>2026-07-25T20:22:41Z</time></trkpt>
<trkpt lat="35.093233" lon="-85.110074"><ele>308.8</ele><time>2026-07-25T20:22:44Z</time></trkpt>
<trkpt lat="35.093211" lon="-85.110118"><ele>307.2</ele><time>2026-07-25T20:22:47Z</time></trkpt>
<trkpt lat="35.093203" lon="-85.110151"><ele>306.9</ele><time>2026-07-25T20:22:49Z</time></trkpt>
<trkpt lat="35.093216" lon="-85.110196"><ele>305.7</ele><time>2026-07-25T20:22:52Z</time></trkpt>
<trkpt lat="35.093231" lon="-85.110226"><ele>305.1</ele><time>2026-07-25T20:22:54Z</time></trkpt>
<trkpt lat="35.093257" lon="-85.110265"><ele>304.8</ele><time>2026-07-25T20:22:57Z</time></trkpt>
<trkpt lat="35.093275" lon="-85.110293"><ele>303.3</ele><time>2026-07-25T20:22:59Z</time></trkpt>
<trkpt lat="35.093291" lon="-85.110323"><ele>303.6</ele><time>2026-07-25T20:23:01Z</time></trkpt>
<trkpt lat="35.093311" lon="-85.110353"><ele>303.3</ele><time>2026-07-25T20:23:03Z</time></trkpt>
<trkpt lat="35.093337" lon="-85.110376"><ele>301.4</ele><time>2026-07-25T20:23:05Z</time></trkpt>
<trkpt lat="35.093356" lon="-85.110406"><ele>301.1</ele><time>2026-07-25T20:23:07Z</time></trkpt>
<trkpt lat="35.093362" lon="-85.110439"><ele>300.8</ele><time>2026-07-25T20:23:09Z</time></trkpt>
<trkpt lat="35.093355" lon="-85.110471"><ele>299.6</ele><time>2026-07-25T20:23:11Z</time></trkpt>
<trkpt lat="35.093345" lon="-85.110517"><ele>298.7</ele><time>2026-07-25T20:23:14Z</time></trkpt>
<trkpt lat="35.093331" lon="-85.110563"><ele>296.3</ele><time>2026-07-25T20:23:17Z</time></trkpt>
<trkpt lat="35.093322" lon="-85.110596"><ele>296.9</ele><time>2026-07-25T20:23:19Z</time></trkpt>
<trkpt lat="35.093311" lon="-85.110628"><ele>297.2</ele><time>2026-07-25T20:23:21Z</time></trkpt>
<trkpt lat="35.093294" lon="-85.110654"><ele>296.3</ele><time>2026-07-25T20:23:23Z</time></trkpt>
<trkpt lat="35.093274" lon="-85.110697"><ele>296.9</ele><time>2026-07-25T20:23:26Z</time></trkpt>
<trkpt lat="35.093266" lon="-85.11073"><ele>299.6</ele><time>2026-07-25T20:23:28Z</time></trkpt>
<trkpt lat="35.093268" lon="-85.110768"><ele>300.8</ele><time>2026-07-25T20:23:30Z</time></trkpt>
<trkpt lat="35.093279" lon="-85.110805"><ele>301.4</ele><time>2026-07-25T20:23:32Z</time></trkpt>
<trkpt lat="35.093295" lon="-85.110837"><ele>302.4</ele><time>2026-07-25T20:23:34Z</time></trkpt>
<trkpt lat="35.093318" lon="-85.110865"><ele>302.1</ele><time>2026-07-25T20:23:36Z</time></trkpt>
<trkpt lat="35.093337" lon="-85.110893"><ele>300.5</ele><time>2026-07-25T20:23:38Z</time></trkpt>
<trkpt lat="35.093348" lon="-85.110937"><ele>300.8</ele><time>2026-07-25T20:23:41Z</time></trkpt>
<trkpt lat="35.093323" lon="-85.110953"><ele>300.2</ele><time>2026-07-25T20:23:43Z</time></trkpt>
<trkpt lat="35.093297" lon="-85.110936"><ele>296.9</ele><time>2026-07-25T20:23:45Z</time></trkpt>
<trkpt lat="35.09327" lon="-85.110915"><ele>297.5</ele><time>2026-07-25T20:23:47Z</time></trkpt>
<trkpt lat="35.093247" lon="-85.11089"><ele>297.8</ele><time>2026-07-25T20:23:49Z</time></trkpt>
<trkpt lat="35.093226" lon="-85.110859"><ele>296.9</ele><time>2026-07-25T20:23:51Z</time></trkpt>
<trkpt lat="35.093204" lon="-85.110834"><ele>296.3</ele><time>2026-07-25T20:23:53Z</time></trkpt>
<trkpt lat="35.09318" lon="-85.110809"><ele>295.7</ele><time>2026-07-25T20:23:55Z</time></trkpt>
<trkpt lat="35.093156" lon="-85.110789"><ele>296.3</ele><time>2026-07-25T20:23:57Z</time></trkpt>
<trkpt lat="35.093123" lon="-85.110768"><ele>293.8</ele><time>2026-07-25T20:24:00Z</time></trkpt>
<trkpt lat="35.093085" lon="-85.110772"><ele>292.0</ele><time>2026-07-25T20:24:03Z</time></trkpt>
<trkpt lat="35.093057" lon="-85.110779"><ele>292.0</ele><time>2026-07-25T20:24:05Z</time></trkpt>
<trkpt lat="35.093029" lon="-85.110782"><ele>295.0</ele><time>2026-07-25T20:24:07Z</time></trkpt>
<trkpt lat="35.093002" lon="-85.110789"><ele>295.4</ele><time>2026-07-25T20:24:09Z</time></trkpt>
<trkpt lat="35.092974" lon="-85.110805"><ele>295.4</ele><time>2026-07-25T20:24:11Z</time></trkpt>
<trkpt lat="35.092953" lon="-85.110839"><ele>294.4</ele><time>2026-07-25T20:24:13Z</time></trkpt>
<trkpt lat="35.092936" lon="-85.110867"><ele>294.7</ele><time>2026-07-25T20:24:15Z</time></trkpt>
<trkpt lat="35.092915" lon="-85.11091"><ele>297.2</ele><time>2026-07-25T20:24:18Z</time></trkpt>
<trkpt lat="35.092904" lon="-85.110942"><ele>298.1</ele><time>2026-07-25T20:24:20Z</time></trkpt>
<trkpt lat="35.092894" lon="-85.110974"><ele>298.1</ele><time>2026-07-25T20:24:22Z</time></trkpt>
<trkpt lat="35.092879" lon="-85.111004"><ele>298.1</ele><time>2026-07-25T20:24:24Z</time></trkpt>
<trkpt lat="35.092864" lon="-85.111037"><ele>297.5</ele><time>2026-07-25T20:24:26Z</time></trkpt>
<trkpt lat="35.092846" lon="-85.11107"><ele>295.0</ele><time>2026-07-25T20:24:28Z</time></trkpt>
<trkpt lat="35.092821" lon="-85.111102"><ele>292.9</ele><time>2026-07-25T20:24:31Z</time></trkpt>
<trkpt lat="35.092784" lon="-85.111119"><ele>294.4</ele><time>2026-07-25T20:24:34Z</time></trkpt>
<trkpt lat="35.09275" lon="-85.111131"><ele>293.2</ele><time>2026-07-25T20:24:37Z</time></trkpt>
<trkpt lat="35.09272" lon="-85.111141"><ele>292.0</ele><time>2026-07-25T20:24:40Z</time></trkpt>
<trkpt lat="35.092695" lon="-85.111182"><ele>293.8</ele><time>2026-07-25T20:24:43Z</time></trkpt>
<trkpt lat="35.09268" lon="-85.111216"><ele>294.4</ele><time>2026-07-25T20:24:45Z</time></trkpt>
<trkpt lat="35.092664" lon="-85.111246"><ele>295.0</ele><time>2026-07-25T20:24:47Z</time></trkpt>
<trkpt lat="35.092661" lon="-85.111282"><ele>292.9</ele><time>2026-07-25T20:24:49Z</time></trkpt>
<trkpt lat="35.092665" lon="-85.111316"><ele>293.5</ele><time>2026-07-25T20:24:51Z</time></trkpt>
<trkpt lat="35.09267" lon="-85.11135"><ele>292.3</ele><time>2026-07-25T20:24:53Z</time></trkpt>
<trkpt lat="35.092686" lon="-85.111386"><ele>289.9</ele><time>2026-07-25T20:24:55Z</time></trkpt>
<trkpt lat="35.092691" lon="-85.111422"><ele>290.5</ele><time>2026-07-25T20:24:57Z</time></trkpt>
<trkpt lat="35.09269" lon="-85.111469"><ele>291.7</ele><time>2026-07-25T20:25:00Z</time></trkpt>
<trkpt lat="35.092689" lon="-85.111502"><ele>292.9</ele><time>2026-07-25T20:25:02Z</time></trkpt>
<trkpt lat="35.092673" lon="-85.111548"><ele>292.9</ele><time>2026-07-25T20:25:05Z</time></trkpt>
<trkpt lat="35.092664" lon="-85.11158"><ele>293.5</ele><time>2026-07-25T20:25:07Z</time></trkpt>
<trkpt lat="35.092657" lon="-85.111613"><ele>291.1</ele><time>2026-07-25T20:25:09Z</time></trkpt>
<trkpt lat="35.09264" lon="-85.111644"><ele>291.4</ele><time>2026-07-25T20:25:11Z</time></trkpt>
<trkpt lat="35.092607" lon="-85.111667"><ele>290.5</ele><time>2026-07-25T20:25:14Z</time></trkpt>
<trkpt lat="35.092571" lon="-85.111681"><ele>287.1</ele><time>2026-07-25T20:25:17Z</time></trkpt>
<trkpt lat="35.092529" lon="-85.111675"><ele>288.0</ele><time>2026-07-25T20:25:20Z</time></trkpt>
<trkpt lat="35.092501" lon="-85.111664"><ele>289.9</ele><time>2026-07-25T20:25:22Z</time></trkpt>
<trkpt lat="35.092473" lon="-85.111654"><ele>290.5</ele><time>2026-07-25T20:25:24Z</time></trkpt>
<trkpt lat="35.092446" lon="-85.111651"><ele>290.2</ele><time>2026-07-25T20:25:26Z</time></trkpt>
<trkpt lat="35.092419" lon="-85.111664"><ele>292.3</ele><time>2026-07-25T20:25:28Z</time></trkpt>
<trkpt lat="35.092393" lon="-85.111699"><ele>295.0</ele><time>2026-07-25T20:25:31Z</time></trkpt>
<trkpt lat="35.092385" lon="-85.11174"><ele>296.0</ele><time>2026-07-25T20:25:34Z</time></trkpt>
<trkpt lat="35.092373" lon="-85.111771"><ele>296.3</ele><time>2026-07-25T20:25:36Z</time></trkpt>
<trkpt lat="35.09235" lon="-85.111808"><ele>297.2</ele><time>2026-07-25T20:25:39Z</time></trkpt>
<trkpt lat="35.092358" lon="-85.111863"><ele>292.6</ele><time>2026-07-25T20:25:42Z</time></trkpt>
<trkpt lat="35.092381" lon="-85.111901"><ele>291.7</ele><time>2026-07-25T20:25:44Z</time></trkpt>
<trkpt lat="35.092399" lon="-85.111929"><ele>293.5</ele><time>2026-07-25T20:25:46Z</time></trkpt>
<trkpt lat="35.092419" lon="-85.111954"><ele>292.9</ele><time>2026-07-25T20:25:48Z</time></trkpt>
<trkpt lat="35.092448" lon="-85.111985"><ele>293.8</ele><time>2026-07-25T20:25:51Z</time></trkpt>
<trkpt lat="35.092478" lon="-85.112017"><ele>296.3</ele><time>2026-07-25T20:25:54Z</time></trkpt>
<trkpt lat="35.092498" lon="-85.112041"><ele>297.5</ele><time>2026-07-25T20:25:56Z</time></trkpt>
<trkpt lat="35.092533" lon="-85.112069"><ele>299.0</ele><time>2026-07-25T20:25:59Z</time></trkpt>
<trkpt lat="35.092568" lon="-85.112088"><ele>300.2</ele><time>2026-07-25T20:26:02Z</time></trkpt>
<trkpt lat="35.092601" lon="-85.112105"><ele>300.5</ele><time>2026-07-25T20:26:05Z</time></trkpt>
<trkpt lat="35.092638" lon="-85.112125"><ele>300.5</ele><time>2026-07-25T20:26:08Z</time></trkpt>
<trkpt lat="35.09267" lon="-85.112122"><ele>299.3</ele><time>2026-07-25T20:26:10Z</time></trkpt>
<trkpt lat="35.092706" lon="-85.112103"><ele>296.9</ele><time>2026-07-25T20:26:12Z</time></trkpt>
<trkpt lat="35.09274" lon="-85.112115"><ele>292.6</ele><time>2026-07-25T20:26:14Z</time></trkpt>
<trkpt lat="35.092772" lon="-85.112136"><ele>289.3</ele><time>2026-07-25T20:26:16Z</time></trkpt>
<trkpt lat="35.092794" lon="-85.112175"><ele>288.3</ele><time>2026-07-25T20:26:18Z</time></trkpt>
<trkpt lat="35.092803" lon="-85.112214"><ele>291.7</ele><time>2026-07-25T20:26:20Z</time></trkpt>
<trkpt lat="35.092817" lon="-85.112245"><ele>290.8</ele><time>2026-07-25T20:26:22Z</time></trkpt>
<trkpt lat="35.092845" lon="-85.112279"><ele>292.0</ele><time>2026-07-25T20:26:25Z</time></trkpt>
<trkpt lat="35.09286" lon="-85.112325"><ele>295.7</ele><time>2026-07-25T20:26:28Z</time></trkpt>
<trkpt lat="35.092855" lon="-85.112358"><ele>297.5</ele><time>2026-07-25T20:26:30Z</time></trkpt>
<trkpt lat="35.09284" lon="-85.112389"><ele>297.8</ele><time>2026-07-25T20:26:32Z</time></trkpt>
<trkpt lat="35.092818" lon="-85.112428"><ele>296.9</ele><time>2026-07-25T20:26:35Z</time></trkpt>
<trkpt lat="35.092815" lon="-85.112461"><ele>296.0</ele><time>2026-07-25T20:26:37Z</time></trkpt>
<trkpt lat="35.092815" lon="-85.11251"><ele>298.4</ele><time>2026-07-25T20:26:40Z</time></trkpt>
<trkpt lat="35.092818" lon="-85.112544"><ele>294.7</ele><time>2026-07-25T20:26:42Z</time></trkpt>
<trkpt lat="35.092806" lon="-85.112574"><ele>295.7</ele><time>2026-07-25T20:26:44Z</time></trkpt>
<trkpt lat="35.092796" lon="-85.112606"><ele>295.7</ele><time>2026-07-25T20:26:46Z</time></trkpt>
<trkpt lat="35.092779" lon="-85.112649"><ele>296.6</ele><time>2026-07-25T20:26:49Z</time></trkpt>
<trkpt lat="35.092755" lon="-85.112688"><ele>298.7</ele><time>2026-07-25T20:26:52Z</time></trkpt>
<trkpt lat="35.092735" lon="-85.112714"><ele>301.4</ele><time>2026-07-25T20:26:54Z</time></trkpt>
<trkpt lat="35.092714" lon="-85.112737"><ele>302.4</ele><time>2026-07-25T20:26:56Z</time></trkpt>
<trkpt lat="35.092689" lon="-85.11276"><ele>305.4</ele><time>2026-07-25T20:26:58Z</time></trkpt>
<trkpt lat="35.092662" lon="-85.112781"><ele>306.3</ele><time>2026-07-25T20:27:00Z</time></trkpt>
<trkpt lat="35.09263" lon="-85.112807"><ele>306.9</ele><time>2026-07-25T20:27:03Z</time></trkpt>
<trkpt lat="35.092594" lon="-85.112812"><ele>305.1</ele><time>2026-07-25T20:27:06Z</time></trkpt>
<trkpt lat="35.092558" lon="-85.112827"><ele>306.0</ele><time>2026-07-25T20:27:09Z</time></trkpt>
<trkpt lat="35.092523" lon="-85.112829"><ele>305.1</ele><time>2026-07-25T20:27:12Z</time></trkpt>
<trkpt lat="35.092495" lon="-85.112826"><ele>304.8</ele><time>2026-07-25T20:27:14Z</time></trkpt>
<trkpt lat="35.092458" lon="-85.112818"><ele>306.6</ele><time>2026-07-25T20:27:17Z</time></trkpt>
<trkpt lat="35.092424" lon="-85.112835"><ele>306.9</ele><time>2026-07-25T20:27:20Z</time></trkpt>
<trkpt lat="35.092403" lon="-85.112861"><ele>306.3</ele><time>2026-07-25T20:27:22Z</time></trkpt>
<trkpt lat="35.092377" lon="-85.112889"><ele>306.3</ele><time>2026-07-25T20:27:24Z</time></trkpt>
<trkpt lat="35.092347" lon="-85.112906"><ele>307.5</ele><time>2026-07-25T20:27:26Z</time></trkpt>
<trkpt lat="35.092319" lon="-85.112918"><ele>307.8</ele><time>2026-07-25T20:27:28Z</time></trkpt>
<trkpt lat="35.092289" lon="-85.11293"><ele>306.9</ele><time>2026-07-25T20:27:30Z</time></trkpt>
<trkpt lat="35.092253" lon="-85.112953"><ele>306.6</ele><time>2026-07-25T20:27:33Z</time></trkpt>
<trkpt lat="35.092226" lon="-85.112965"><ele>306.9</ele><time>2026-07-25T20:27:35Z</time></trkpt>
<trkpt lat="35.092203" lon="-85.112985"><ele>308.2</ele><time>2026-07-25T20:27:37Z</time></trkpt>
<trkpt lat="35.092177" lon="-85.112999"><ele>308.8</ele><time>2026-07-25T20:27:39Z</time></trkpt>
<trkpt lat="35.092153" lon="-85.113016"><ele>308.8</ele><time>2026-07-25T20:27:41Z</time></trkpt>
<trkpt lat="35.092133" lon="-85.113058"><ele>309.4</ele><time>2026-07-25T20:27:44Z</time></trkpt>
<trkpt lat="35.092116" lon="-85.113101"><ele>308.2</ele><time>2026-07-25T20:27:47Z</time></trkpt>
<trkpt lat="35.092091" lon="-85.113122"><ele>307.5</ele><time>2026-07-25T20:27:49Z</time></trkpt>
<trkpt lat="35.092062" lon="-85.113137"><ele>305.7</ele><time>2026-07-25T20:27:51Z</time></trkpt>
<trkpt lat="35.092038" lon="-85.113155"><ele>305.4</ele><time>2026-07-25T20:27:53Z</time></trkpt>
<trkpt lat="35.092011" lon="-85.113175"><ele>304.5</ele><time>2026-07-25T20:27:55Z</time></trkpt>
<trkpt lat="35.091986" lon="-85.11319"><ele>303.6</ele><time>2026-07-25T20:27:57Z</time></trkpt>
<trkpt lat="35.091959" lon="-85.113196"><ele>303.3</ele><time>2026-07-25T20:27:59Z</time></trkpt>
<trkpt lat="35.09193" lon="-85.113198"><ele>304.5</ele><time>2026-07-25T20:28:01Z</time></trkpt>
<trkpt lat="35.091901" lon="-85.1132"><ele>303.9</ele><time>2026-07-25T20:28:03Z</time></trkpt>
<trkpt lat="35.091872" lon="-85.113201"><ele>304.5</ele><time>2026-07-25T20:28:05Z</time></trkpt>
<trkpt lat="35.091844" lon="-85.113209"><ele>305.7</ele><time>2026-07-25T20:28:07Z</time></trkpt>
<trkpt lat="35.091816" lon="-85.113218"><ele>306.3</ele><time>2026-07-25T20:28:09Z</time></trkpt>
<trkpt lat="35.091786" lon="-85.113226"><ele>306.6</ele><time>2026-07-25T20:28:11Z</time></trkpt>
<trkpt lat="35.091749" lon="-85.113229"><ele>304.8</ele><time>2026-07-25T20:28:14Z</time></trkpt>
<trkpt lat="35.091712" lon="-85.113233"><ele>304.2</ele><time>2026-07-25T20:28:17Z</time></trkpt>
<trkpt lat="35.091675" lon="-85.11325"><ele>304.2</ele><time>2026-07-25T20:28:20Z</time></trkpt>
<trkpt lat="35.091636" lon="-85.113259"><ele>302.1</ele><time>2026-07-25T20:28:23Z</time></trkpt>
<trkpt lat="35.091607" lon="-85.11327"><ele>302.4</ele><time>2026-07-25T20:28:25Z</time></trkpt>
<trkpt lat="35.091577" lon="-85.113274"><ele>303.0</ele><time>2026-07-25T20:28:27Z</time></trkpt>
<trkpt lat="35.091548" lon="-85.113288"><ele>303.6</ele><time>2026-07-25T20:28:29Z</time></trkpt>
<trkpt lat="35.091516" lon="-85.113294"><ele>303.9</ele><time>2026-07-25T20:28:31Z</time></trkpt>
<trkpt lat="35.091486" lon="-85.113305"><ele>304.8</ele><time>2026-07-25T20:28:33Z</time></trkpt>
<trkpt lat="35.091456" lon="-85.113298"><ele>305.7</ele><time>2026-07-25T20:28:35Z</time></trkpt>
<trkpt lat="35.09143" lon="-85.113284"><ele>305.1</ele><time>2026-07-25T20:28:37Z</time></trkpt>
<trkpt lat="35.091396" lon="-85.113272"><ele>303.0</ele><time>2026-07-25T20:28:40Z</time></trkpt>
<trkpt lat="35.091357" lon="-85.113287"><ele>302.1</ele><time>2026-07-25T20:28:43Z</time></trkpt>
<trkpt lat="35.091324" lon="-85.11332"><ele>300.8</ele><time>2026-07-25T20:28:46Z</time></trkpt>
<trkpt lat="35.09129" lon="-85.113347"><ele>302.7</ele><time>2026-07-25T20:28:49Z</time></trkpt>
<trkpt lat="35.091263" lon="-85.113338"><ele>303.3</ele><time>2026-07-25T20:28:51Z</time></trkpt>
<trkpt lat="35.091226" lon="-85.113322"><ele>300.2</ele><time>2026-07-25T20:28:54Z</time></trkpt>
<trkpt lat="35.091186" lon="-85.113314"><ele>298.7</ele><time>2026-07-25T20:28:57Z</time></trkpt>
<trkpt lat="35.091157" lon="-85.113315"><ele>297.8</ele><time>2026-07-25T20:28:59Z</time></trkpt>
<trkpt lat="35.091126" lon="-85.113324"><ele>299.6</ele><time>2026-07-25T20:29:01Z</time></trkpt>
<trkpt lat="35.091097" lon="-85.113332"><ele>299.9</ele><time>2026-07-25T20:29:03Z</time></trkpt>
<trkpt lat="35.091068" lon="-85.113338"><ele>299.6</ele><time>2026-07-25T20:29:05Z</time></trkpt>
<trkpt lat="35.091032" lon="-85.113355"><ele>300.2</ele><time>2026-07-25T20:29:08Z</time></trkpt>
<trkpt lat="35.091012" lon="-85.11338"><ele>301.4</ele><time>2026-07-25T20:29:10Z</time></trkpt>
<trkpt lat="35.090979" lon="-85.113407"><ele>301.4</ele><time>2026-07-25T20:29:13Z</time></trkpt>
<trkpt lat="35.090954" lon="-85.113423"><ele>302.4</ele><time>2026-07-25T20:29:15Z</time></trkpt>
<trkpt lat="35.090932" lon="-85.113445"><ele>301.4</ele><time>2026-07-25T20:29:17Z</time></trkpt>
<trkpt lat="35.090894" lon="-85.113446"><ele>299.0</ele><time>2026-07-25T20:29:20Z</time></trkpt>
<trkpt lat="35.090865" lon="-85.113438"><ele>299.3</ele><time>2026-07-25T20:29:22Z</time></trkpt>
<trkpt lat="35.090838" lon="-85.113427"><ele>298.4</ele><time>2026-07-25T20:29:24Z</time></trkpt>
<trkpt lat="35.090813" lon="-85.113403"><ele>298.1</ele><time>2026-07-25T20:29:26Z</time></trkpt>
<trkpt lat="35.090795" lon="-85.113374"><ele>299.0</ele><time>2026-07-25T20:29:28Z</time></trkpt>
<trkpt lat="35.090775" lon="-85.113344"><ele>300.5</ele><time>2026-07-25T20:29:30Z</time></trkpt>
<trkpt lat="35.090751" lon="-85.113311"><ele>302.4</ele><time>2026-07-25T20:29:33Z</time></trkpt>
<trkpt lat="35.090738" lon="-85.11328"><ele>303.3</ele><time>2026-07-25T20:29:35Z</time></trkpt>
<trkpt lat="35.090746" lon="-85.113234"><ele>302.7</ele><time>2026-07-25T20:29:38Z</time></trkpt>
<trkpt lat="35.090757" lon="-85.113193"><ele>303.3</ele><time>2026-07-25T20:29:41Z</time></trkpt>
<trkpt lat="35.090769" lon="-85.113156"><ele>299.6</ele><time>2026-07-25T20:29:44Z</time></trkpt>
<trkpt lat="35.090769" lon="-85.113113"><ele>299.6</ele><time>2026-07-25T20:29:47Z</time></trkpt>
<trkpt lat="35.090772" lon="-85.113079"><ele>297.2</ele><time>2026-07-25T20:29:49Z</time></trkpt>
<trkpt lat="35.090765" lon="-85.113031"><ele>299.0</ele><time>2026-07-25T20:29:52Z</time></trkpt>
<trkpt lat="35.090763" lon="-85.112996"><ele>299.9</ele><time>2026-07-25T20:29:54Z</time></trkpt>
<trkpt lat="35.090759" lon="-85.112955"><ele>299.0</ele><time>2026-07-25T20:29:57Z</time></trkpt>
<trkpt lat="35.090759" lon="-85.112909"><ele>301.8</ele><time>2026-07-25T20:30:00Z</time></trkpt>
<trkpt lat="35.090753" lon="-85.112875"><ele>302.4</ele><time>2026-07-25T20:30:02Z</time></trkpt>
<trkpt lat="35.090738" lon="-85.112842"><ele>301.4</ele><time>2026-07-25T20:30:04Z</time></trkpt>
<trkpt lat="35.09071" lon="-85.112823"><ele>301.8</ele><time>2026-07-25T20:30:06Z</time></trkpt>
<trkpt lat="35.090682" lon="-85.112823"><ele>301.4</ele><time>2026-07-25T20:30:08Z</time></trkpt>
<trkpt lat="35.090651" lon="-85.112825"><ele>301.4</ele><time>2026-07-25T20:30:10Z</time></trkpt>
<trkpt lat="35.090623" lon="-85.11282"><ele>301.1</ele><time>2026-07-25T20:30:12Z</time></trkpt>
<trkpt lat="35.090596" lon="-85.112827"><ele>300.8</ele><time>2026-07-25T20:30:14Z</time></trkpt>
<trkpt lat="35.090562" lon="-85.112844"><ele>299.9</ele><time>2026-07-25T20:30:17Z</time></trkpt>
<trkpt lat="35.090549" lon="-85.112874"><ele>296.9</ele><time>2026-07-25T20:30:19Z</time></trkpt>
<trkpt lat="35.090537" lon="-85.112904"><ele>296.9</ele><time>2026-07-25T20:30:21Z</time></trkpt>
<trkpt lat="35.090526" lon="-85.112936"><ele>297.5</ele><time>2026-07-25T20:30:23Z</time></trkpt>
<trkpt lat="35.090517" lon="-85.112969"><ele>299.0</ele><time>2026-07-25T20:30:25Z</time></trkpt>
<trkpt lat="35.090501" lon="-85.113014"><ele>299.3</ele><time>2026-07-25T20:30:28Z</time></trkpt>
<trkpt lat="35.090487" lon="-85.113046"><ele>298.7</ele><time>2026-07-25T20:30:30Z</time></trkpt>
<trkpt lat="35.090474" lon="-85.113077"><ele>299.0</ele><time>2026-07-25T20:30:32Z</time></trkpt>
<trkpt lat="35.090457" lon="-85.113125"><ele>301.1</ele><time>2026-07-25T20:30:35Z</time></trkpt>
<trkpt lat="35.09044" lon="-85.113151"><ele>301.1</ele><time>2026-07-25T20:30:37Z</time></trkpt>
<trkpt lat="35.090418" lon="-85.11319"><ele>302.7</ele><time>2026-07-25T20:30:40Z</time></trkpt>
<trkpt lat="35.090397" lon="-85.113222"><ele>304.2</ele><time>2026-07-25T20:30:43Z</time></trkpt>
<trkpt lat="35.090366" lon="-85.113241"><ele>304.8</ele><time>2026-07-25T20:30:46Z</time></trkpt>
<trkpt lat="35.090337" lon="-85.113219"><ele>304.5</ele><time>2026-07-25T20:30:48Z</time></trkpt>
<trkpt lat="35.090329" lon="-85.113179"><ele>303.9</ele><time>2026-07-25T20:30:50Z</time></trkpt>
<trkpt lat="35.090331" lon="-85.113144"><ele>306.0</ele><time>2026-07-25T20:30:52Z</time></trkpt>
<trkpt lat="35.090326" lon="-85.113109"><ele>306.9</ele><time>2026-07-25T20:30:54Z</time></trkpt>
<trkpt lat="35.090324" lon="-85.113073"><ele>307.2</ele><time>2026-07-25T20:30:56Z</time></trkpt>
<trkpt lat="35.090329" lon="-85.113035"><ele>308.2</ele><time>2026-07-25T20:30:58Z</time></trkpt>
<trkpt lat="35.090327" lon="-85.112999"><ele>307.5</ele><time>2026-07-25T20:31:00Z</time></trkpt>
<trkpt lat="35.090324" lon="-85.112948"><ele>307.5</ele><time>2026-07-25T20:31:03Z</time></trkpt>
<trkpt lat="35.090327" lon="-85.112899"><ele>306.6</ele><time>2026-07-25T20:31:06Z</time></trkpt>
<trkpt lat="35.090309" lon="-85.11287"><ele>306.9</ele><time>2026-07-25T20:31:08Z</time></trkpt>
<trkpt lat="35.090279" lon="-85.112873"><ele>308.2</ele><time>2026-07-25T20:31:10Z</time></trkpt>
<trkpt lat="35.090251" lon="-85.112908"><ele>307.8</ele><time>2026-07-25T20:31:13Z</time></trkpt>
<trkpt lat="35.09023" lon="-85.112944"><ele>307.2</ele><time>2026-07-25T20:31:16Z</time></trkpt>
<trkpt lat="35.090216" lon="-85.112987"><ele>305.1</ele><time>2026-07-25T20:31:19Z</time></trkpt>
<trkpt lat="35.090214" lon="-85.113035"><ele>303.9</ele><time>2026-07-25T20:31:22Z</time></trkpt>
<trkpt lat="35.090202" lon="-85.113082"><ele>303.0</ele><time>2026-07-25T20:31:25Z</time></trkpt>
<trkpt lat="35.090195" lon="-85.113132"><ele>301.1</ele><time>2026-07-25T20:31:28Z</time></trkpt>
<trkpt lat="35.09019" lon="-85.113165"><ele>302.1</ele><time>2026-07-25T20:31:30Z</time></trkpt>
<trkpt lat="35.090169" lon="-85.113188"><ele>302.7</ele><time>2026-07-25T20:31:32Z</time></trkpt>
<trkpt lat="35.090139" lon="-85.113199"><ele>302.7</ele><time>2026-07-25T20:31:34Z</time></trkpt>
<trkpt lat="35.090113" lon="-85.113213"><ele>303.0</ele><time>2026-07-25T20:31:36Z</time></trkpt>
<trkpt lat="35.090079" lon="-85.113231"><ele>303.0</ele><time>2026-07-25T20:31:39Z</time></trkpt>
<trkpt lat="35.090047" lon="-85.113256"><ele>303.6</ele><time>2026-07-25T20:31:42Z</time></trkpt>
<trkpt lat="35.090017" lon="-85.113282"><ele>304.5</ele><time>2026-07-25T20:31:45Z</time></trkpt>
<trkpt lat="35.089989" lon="-85.113295"><ele>305.1</ele><time>2026-07-25T20:31:47Z</time></trkpt>
<trkpt lat="35.08996" lon="-85.113294"><ele>306.0</ele><time>2026-07-25T20:31:49Z</time></trkpt>
<trkpt lat="35.089933" lon="-85.113286"><ele>307.5</ele><time>2026-07-25T20:31:51Z</time></trkpt>
<trkpt lat="35.089905" lon="-85.113276"><ele>308.8</ele><time>2026-07-25T20:31:53Z</time></trkpt>
<trkpt lat="35.089879" lon="-85.113263"><ele>309.7</ele><time>2026-07-25T20:31:55Z</time></trkpt>
<trkpt lat="35.089854" lon="-85.113249"><ele>310.6</ele><time>2026-07-25T20:31:57Z</time></trkpt>
<trkpt lat="35.089826" lon="-85.113244"><ele>311.5</ele><time>2026-07-25T20:31:59Z</time></trkpt>
<trkpt lat="35.089796" lon="-85.113232"><ele>312.1</ele><time>2026-07-25T20:32:01Z</time></trkpt>
<trkpt lat="35.08977" lon="-85.113208"><ele>312.4</ele><time>2026-07-25T20:32:03Z</time></trkpt>
<trkpt lat="35.089747" lon="-85.113187"><ele>313.9</ele><time>2026-07-25T20:32:05Z</time></trkpt>
<trkpt lat="35.089726" lon="-85.113166"><ele>314.2</ele><time>2026-07-25T20:32:07Z</time></trkpt>
<trkpt lat="35.089709" lon="-85.113137"><ele>314.9</ele><time>2026-07-25T20:32:09Z</time></trkpt>
<trkpt lat="35.089691" lon="-85.113111"><ele>314.9</ele><time>2026-07-25T20:32:11Z</time></trkpt>
<trkpt lat="35.089676" lon="-85.11308"><ele>315.5</ele><time>2026-07-25T20:32:13Z</time></trkpt>
<trkpt lat="35.089659" lon="-85.113034"><ele>315.5</ele><time>2026-07-25T20:32:16Z</time></trkpt>
<trkpt lat="35.089652" lon="-85.113"><ele>316.7</ele><time>2026-07-25T20:32:18Z</time></trkpt>
<trkpt lat="35.089647" lon="-85.112965"><ele>317.3</ele><time>2026-07-25T20:32:20Z</time></trkpt>
<trkpt lat="35.089651" lon="-85.112928"><ele>315.2</ele><time>2026-07-25T20:32:23Z</time></trkpt>
<trkpt lat="35.089658" lon="-85.112892"><ele>314.2</ele><time>2026-07-25T20:32:26Z</time></trkpt>
<trkpt lat="35.089661" lon="-85.112846"><ele>315.5</ele><time>2026-07-25T20:32:29Z</time></trkpt>
<trkpt lat="35.089663" lon="-85.112837"><ele>314.9</ele><time>2026-07-25T20:32:30Z</time></trkpt>
<trkpt lat="35.089666" lon="-85.112842"><ele>313.9</ele><time>2026-07-25T20:32:31Z</time></trkpt>
<trkpt lat="35.089666" lon="-85.112845"><ele>313.9</ele><time>2026-07-25T20:33:28Z</time></trkpt>
<trkpt lat="35.08967" lon="-85.112839"><ele>313.9</ele><time>2026-07-25T20:33:29Z</time></trkpt>
<trkpt lat="35.089705" lon="-85.112825"><ele>313.3</ele><time>2026-07-25T20:33:33Z</time></trkpt>
<trkpt lat="35.08974" lon="-85.112819"><ele>313.3</ele><time>2026-07-25T20:33:36Z</time></trkpt>
<trkpt lat="35.089777" lon="-85.112818"><ele>312.1</ele><time>2026-07-25T20:33:39Z</time></trkpt>
<trkpt lat="35.089805" lon="-85.112824"><ele>311.2</ele><time>2026-07-25T20:33:41Z</time></trkpt>
<trkpt lat="35.089832" lon="-85.112861"><ele>311.2</ele><time>2026-07-25T20:33:44Z</time></trkpt>
<trkpt lat="35.08985" lon="-85.112888"><ele>310.6</ele><time>2026-07-25T20:33:46Z</time></trkpt>
<trkpt lat="35.089861" lon="-85.112922"><ele>310.3</ele><time>2026-07-25T20:33:48Z</time></trkpt>
<trkpt lat="35.089888" lon="-85.112955"><ele>309.4</ele><time>2026-07-25T20:33:51Z</time></trkpt>
<trkpt lat="35.089924" lon="-85.112968"><ele>308.8</ele><time>2026-07-25T20:33:54Z</time></trkpt>
<trkpt lat="35.089962" lon="-85.112962"><ele>309.1</ele><time>2026-07-25T20:33:57Z</time></trkpt>
<trkpt lat="35.089994" lon="-85.11294"><ele>309.4</ele><time>2026-07-25T20:34:00Z</time></trkpt>
<trkpt lat="35.090012" lon="-85.112912"><ele>308.2</ele><time>2026-07-25T20:34:02Z</time></trkpt>
<trkpt lat="35.090032" lon="-85.112887"><ele>308.2</ele><time>2026-07-25T20:34:04Z</time></trkpt>
<trkpt lat="35.090044" lon="-85.112839"><ele>308.8</ele><time>2026-07-25T20:34:07Z</time></trkpt>
<trkpt lat="35.09005" lon="-85.112803"><ele>308.2</ele><time>2026-07-25T20:34:09Z</time></trkpt>
<trkpt lat="35.090068" lon="-85.112774"><ele>306.6</ele><time>2026-07-25T20:34:11Z</time></trkpt>
<trkpt lat="35.090097" lon="-85.11274"><ele>305.7</ele><time>2026-07-25T20:34:14Z</time></trkpt>
<trkpt lat="35.090124" lon="-85.112707"><ele>306.0</ele><time>2026-07-25T20:34:17Z</time></trkpt>
<trkpt lat="35.090145" lon="-85.112685"><ele>305.1</ele><time>2026-07-25T20:34:19Z</time></trkpt>
<trkpt lat="35.09018" lon="-85.112666"><ele>305.4</ele><time>2026-07-25T20:34:22Z</time></trkpt>
<trkpt lat="35.09021" lon="-85.112659"><ele>305.7</ele><time>2026-07-25T20:34:24Z</time></trkpt>
<trkpt lat="35.090239" lon="-85.112653"><ele>305.7</ele><time>2026-07-25T20:34:26Z</time></trkpt>
<trkpt lat="35.090268" lon="-85.112648"><ele>304.8</ele><time>2026-07-25T20:34:28Z</time></trkpt>
<trkpt lat="35.090303" lon="-85.112628"><ele>303.6</ele><time>2026-07-25T20:34:31Z</time></trkpt>
<trkpt lat="35.090329" lon="-85.112612"><ele>302.7</ele><time>2026-07-25T20:34:33Z</time></trkpt>
<trkpt lat="35.090359" lon="-85.112577"><ele>302.7</ele><time>2026-07-25T20:34:36Z</time></trkpt>
<trkpt lat="35.090382" lon="-85.112556"><ele>303.0</ele><time>2026-07-25T20:34:38Z</time></trkpt>
<trkpt lat="35.090405" lon="-85.112535"><ele>303.3</ele><time>2026-07-25T20:34:40Z</time></trkpt>
<trkpt lat="35.090414" lon="-85.11249"><ele>304.5</ele><time>2026-07-25T20:34:43Z</time></trkpt>
<trkpt lat="35.090403" lon="-85.112455"><ele>305.7</ele><time>2026-07-25T20:34:45Z</time></trkpt>
<trkpt lat="35.090395" lon="-85.112422"><ele>305.4</ele><time>2026-07-25T20:34:47Z</time></trkpt>
<trkpt lat="35.090389" lon="-85.112389"><ele>304.5</ele><time>2026-07-25T20:34:49Z</time></trkpt>
<trkpt lat="35.090392" lon="-85.112341"><ele>304.8</ele><time>2026-07-25T20:34:52Z</time></trkpt>
<trkpt lat="35.090387" lon="-85.112289"><ele>303.6</ele><time>2026-07-25T20:34:55Z</time></trkpt>
<trkpt lat="35.090384" lon="-85.112253"><ele>304.2</ele><time>2026-07-25T20:34:57Z</time></trkpt>
<trkpt lat="35.090377" lon="-85.112217"><ele>304.2</ele><time>2026-07-25T20:34:59Z</time></trkpt>
<trkpt lat="35.090367" lon="-85.112183"><ele>303.9</ele><time>2026-07-25T20:35:01Z</time></trkpt>
<trkpt lat="35.090355" lon="-85.112137"><ele>303.3</ele><time>2026-07-25T20:35:04Z</time></trkpt>
<trkpt lat="35.090342" lon="-85.112105"><ele>303.0</ele><time>2026-07-25T20:35:06Z</time></trkpt>
<trkpt lat="35.090325" lon="-85.112077"><ele>303.0</ele><time>2026-07-25T20:35:08Z</time></trkpt>
<trkpt lat="35.090317" lon="-85.112045"><ele>303.3</ele><time>2026-07-25T20:35:10Z</time></trkpt>
<trkpt lat="35.090316" lon="-85.11201"><ele>303.9</ele><time>2026-07-25T20:35:12Z</time></trkpt>
<trkpt lat="35.090316" lon="-85.111975"><ele>304.2</ele><time>2026-07-25T20:35:14Z</time></trkpt>
<trkpt lat="35.090317" lon="-85.111926"><ele>305.7</ele><time>2026-07-25T20:35:17Z</time></trkpt>
<trkpt lat="35.090312" lon="-85.111879"><ele>305.4</ele><time>2026-07-25T20:35:20Z</time></trkpt>
<trkpt lat="35.090308" lon="-85.111831"><ele>305.1</ele><time>2026-07-25T20:35:23Z</time></trkpt>
<trkpt lat="35.090301" lon="-85.111787"><ele>304.5</ele><time>2026-07-25T20:35:26Z</time></trkpt>
<trkpt lat="35.090293" lon="-85.111753"><ele>305.4</ele><time>2026-07-25T20:35:28Z</time></trkpt>
<trkpt lat="35.090289" lon="-85.111716"><ele>305.7</ele><time>2026-07-25T20:35:30Z</time></trkpt>
<trkpt lat="35.090286" lon="-85.111679"><ele>306.6</ele><time>2026-07-25T20:35:32Z</time></trkpt>
<trkpt lat="35.090283" lon="-85.111645"><ele>307.2</ele><time>2026-07-25T20:35:34Z</time></trkpt>
<trkpt lat="35.09027" lon="-85.111599"><ele>306.3</ele><time>2026-07-25T20:35:37Z</time></trkpt>
<trkpt lat="35.090266" lon="-85.111562"><ele>308.5</ele><time>2026-07-25T20:35:39Z</time></trkpt>
<trkpt lat="35.09026" lon="-85.111529"><ele>308.5</ele><time>2026-07-25T20:35:41Z</time></trkpt>
<trkpt lat="35.090255" lon="-85.111495"><ele>308.2</ele><time>2026-07-25T20:35:43Z</time></trkpt>
<trkpt lat="35.090248" lon="-85.11146"><ele>311.5</ele><time>2026-07-25T20:35:45Z</time></trkpt>
<trkpt lat="35.090244" lon="-85.111425"><ele>313.0</ele><time>2026-07-25T20:35:47Z</time></trkpt>
<trkpt lat="35.090244" lon="-85.111375"><ele>311.8</ele><time>2026-07-25T20:35:50Z</time></trkpt>
<trkpt lat="35.090237" lon="-85.111328"><ele>313.0</ele><time>2026-07-25T20:35:53Z</time></trkpt>
<trkpt lat="35.090226" lon="-85.111284"><ele>312.1</ele><time>2026-07-25T20:35:56Z</time></trkpt>
<trkpt lat="35.090211" lon="-85.11125"><ele>311.8</ele><time>2026-07-25T20:35:58Z</time></trkpt>
<trkpt lat="35.090197" lon="-85.111204"><ele>311.5</ele><time>2026-07-25T20:36:01Z</time></trkpt>
<trkpt lat="35.090172" lon="-85.111166"><ele>312.1</ele><time>2026-07-25T20:36:04Z</time></trkpt>
<trkpt lat="35.09015" lon="-85.111143"><ele>313.0</ele><time>2026-07-25T20:36:06Z</time></trkpt>
<trkpt lat="35.090123" lon="-85.111115"><ele>313.0</ele><time>2026-07-25T20:36:09Z</time></trkpt>
<trkpt lat="35.090126" lon="-85.111079"><ele>313.3</ele><time>2026-07-25T20:36:11Z</time></trkpt>
<trkpt lat="35.09013" lon="-85.11104"><ele>312.1</ele><time>2026-07-25T20:36:14Z</time></trkpt>
<trkpt lat="35.090141" lon="-85.111002"><ele>310.9</ele><time>2026-07-25T20:36:17Z</time></trkpt>
<trkpt lat="35.090157" lon="-85.110971"><ele>308.2</ele><time>2026-07-25T20:36:20Z</time></trkpt>
<trkpt lat="35.090169" lon="-85.110931"><ele>308.2</ele><time>2026-07-25T20:36:23Z</time></trkpt>
<trkpt lat="35.090163" lon="-85.110883"><ele>309.1</ele><time>2026-07-25T20:36:26Z</time></trkpt>
<trkpt lat="35.090163" lon="-85.110849"><ele>308.2</ele><time>2026-07-25T20:36:28Z</time></trkpt>
<trkpt lat="35.090178" lon="-85.110811"><ele>306.6</ele><time>2026-07-25T20:36:31Z</time></trkpt>
<trkpt lat="35.090207" lon="-85.110783"><ele>306.3</ele><time>2026-07-25T20:36:34Z</time></trkpt>
<trkpt lat="35.090239" lon="-85.110755"><ele>306.0</ele><time>2026-07-25T20:36:37Z</time></trkpt>
<trkpt lat="35.090271" lon="-85.110727"><ele>305.1</ele><time>2026-07-25T20:36:40Z</time></trkpt>
<trkpt lat="35.090286" lon="-85.110697"><ele>303.3</ele><time>2026-07-25T20:36:42Z</time></trkpt>
<trkpt lat="35.090307" lon="-85.110654"><ele>302.7</ele><time>2026-07-25T20:36:45Z</time></trkpt>
<trkpt lat="35.090332" lon="-85.110617"><ele>304.5</ele><time>2026-07-25T20:36:48Z</time></trkpt>
<trkpt lat="35.090363" lon="-85.110586"><ele>303.9</ele><time>2026-07-25T20:36:51Z</time></trkpt>
<trkpt lat="35.090386" lon="-85.110561"><ele>303.9</ele><time>2026-07-25T20:36:53Z</time></trkpt>
<trkpt lat="35.090404" lon="-85.110532"><ele>303.0</ele><time>2026-07-25T20:36:55Z</time></trkpt>
<trkpt lat="35.09043" lon="-85.110517"><ele>302.4</ele><time>2026-07-25T20:36:57Z</time></trkpt>
<trkpt lat="35.090471" lon="-85.110513"><ele>302.1</ele><time>2026-07-25T20:37:00Z</time></trkpt>
<trkpt lat="35.090497" lon="-85.110524"><ele>301.8</ele><time>2026-07-25T20:37:02Z</time></trkpt>
<trkpt lat="35.090525" lon="-85.110535"><ele>300.5</ele><time>2026-07-25T20:37:04Z</time></trkpt>
<trkpt lat="35.090554" lon="-85.110554"><ele>299.9</ele><time>2026-07-25T20:37:06Z</time></trkpt>
<trkpt lat="35.090583" lon="-85.110564"><ele>300.2</ele><time>2026-07-25T20:37:08Z</time></trkpt>
<trkpt lat="35.090612" lon="-85.110571"><ele>300.2</ele><time>2026-07-25T20:37:10Z</time></trkpt>
<trkpt lat="35.090642" lon="-85.110549"><ele>300.5</ele><time>2026-07-25T20:37:12Z</time></trkpt>
<trkpt lat="35.090665" lon="-85.110519"><ele>300.5</ele><time>2026-07-25T20:37:14Z</time></trkpt>
<trkpt lat="35.090683" lon="-85.110491"><ele>299.0</ele><time>2026-07-25T20:37:16Z</time></trkpt>
<trkpt lat="35.090698" lon="-85.110461"><ele>299.0</ele><time>2026-07-25T20:37:18Z</time></trkpt>
<trkpt lat="35.090713" lon="-85.11043"><ele>298.4</ele><time>2026-07-25T20:37:20Z</time></trkpt>
<trkpt lat="35.090734" lon="-85.110405"><ele>298.4</ele><time>2026-07-25T20:37:22Z</time></trkpt>
<trkpt lat="35.09076" lon="-85.110384"><ele>298.4</ele><time>2026-07-25T20:37:24Z</time></trkpt>
<trkpt lat="35.090789" lon="-85.110354"><ele>298.1</ele><time>2026-07-25T20:37:27Z</time></trkpt>
<trkpt lat="35.090827" lon="-85.110335"><ele>297.8</ele><time>2026-07-25T20:37:30Z</time></trkpt>
<trkpt lat="35.090861" lon="-85.110308"><ele>297.2</ele><time>2026-07-25T20:37:33Z</time></trkpt>
<trkpt lat="35.090886" lon="-85.110268"><ele>296.0</ele><time>2026-07-25T20:37:36Z</time></trkpt>
<trkpt lat="35.090898" lon="-85.110237"><ele>296.3</ele><time>2026-07-25T20:37:38Z</time></trkpt>
<trkpt lat="35.090916" lon="-85.110209"><ele>296.0</ele><time>2026-07-25T20:37:40Z</time></trkpt>
<trkpt lat="35.090934" lon="-85.110184"><ele>295.4</ele><time>2026-07-25T20:37:42Z</time></trkpt>
<trkpt lat="35.090963" lon="-85.110149"><ele>295.4</ele><time>2026-07-25T20:37:45Z</time></trkpt>
<trkpt lat="35.090989" lon="-85.110109"><ele>294.4</ele><time>2026-07-25T20:37:48Z</time></trkpt>
<trkpt lat="35.091009" lon="-85.110085"><ele>293.8</ele><time>2026-07-25T20:37:50Z</time></trkpt>
<trkpt lat="35.091035" lon="-85.110067"><ele>294.4</ele><time>2026-07-25T20:37:52Z</time></trkpt>
<trkpt lat="35.091062" lon="-85.110053"><ele>294.1</ele><time>2026-07-25T20:37:54Z</time></trkpt>
<trkpt lat="35.091081" lon="-85.110027"><ele>294.1</ele><time>2026-07-25T20:37:56Z</time></trkpt>
<trkpt lat="35.091117" lon="-85.110002"><ele>294.7</ele><time>2026-07-25T20:37:59Z</time></trkpt>
<trkpt lat="35.091142" lon="-85.10998"><ele>294.4</ele><time>2026-07-25T20:38:01Z</time></trkpt>
<trkpt lat="35.091168" lon="-85.109965"><ele>293.8</ele><time>2026-07-25T20:38:03Z</time></trkpt>
<trkpt lat="35.091195" lon="-85.109956"><ele>295.7</ele><time>2026-07-25T20:38:05Z</time></trkpt>
<trkpt lat="35.091226" lon="-85.109928"><ele>295.7</ele><time>2026-07-25T20:38:08Z</time></trkpt>
<trkpt lat="35.091255" lon="-85.109896"><ele>295.7</ele><time>2026-07-25T20:38:11Z</time></trkpt>
<trkpt lat="35.091276" lon="-85.109874"><ele>295.0</ele><time>2026-07-25T20:38:13Z</time></trkpt>
<trkpt lat="35.09131" lon="-85.109875"><ele>295.0</ele><time>2026-07-25T20:38:15Z</time></trkpt>
<trkpt lat="35.091327" lon="-85.109837"><ele>292.9</ele><time>2026-07-25T20:38:18Z</time></trkpt>
<trkpt lat="35.091359" lon="-85.109812"><ele>291.1</ele><time>2026-07-25T20:38:21Z</time></trkpt>
<trkpt lat="35.0914" lon="-85.109798"><ele>290.2</ele><time>2026-07-25T20:38:24Z</time></trkpt>
<trkpt lat="35.091411" lon="-85.1098"><ele>290.5</ele><time>2026-07-25T20:38:25Z</time></trkpt>
<trkpt lat="35.091384" lon="-85.109811"><ele>292.0</ele><time>2026-07-25T20:38:26Z</time></trkpt>
<trkpt lat="35.091361" lon="-85.10982"><ele>291.7</ele><time>2026-07-25T20:38:32Z</time></trkpt>
<trkpt lat="35.091364" lon="-85.10982"><ele>292.0</ele><time>2026-07-25T20:38:33Z</time></trkpt>
<trkpt lat="35.091414" lon="-85.109833"><ele>290.8</ele><time>2026-07-25T20:38:36Z</time></trkpt>
<trkpt lat="35.091449" lon="-85.109848"><ele>290.2</ele><time>2026-07-25T20:38:38Z</time></trkpt>
<trkpt lat="35.091484" lon="-85.109841"><ele>290.2</ele><time>2026-07-25T20:38:41Z</time></trkpt>
<trkpt lat="35.091487" lon="-85.109799"><ele>289.9</ele><time>2026-07-25T20:38:43Z</time></trkpt>
<trkpt lat="35.091499" lon="-85.109751"><ele>289.0</ele><time>2026-07-25T20:38:46Z</time></trkpt>
<trkpt lat="35.091517" lon="-85.109723"><ele>290.2</ele><time>2026-07-25T20:38:48Z</time></trkpt>
<trkpt lat="35.091504" lon="-85.109733"><ele>291.1</ele><time>2026-07-25T20:38:49Z</time></trkpt>
<trkpt lat="35.091489" lon="-85.109745"><ele>291.1</ele><time>2026-07-25T20:38:53Z</time></trkpt>
<trkpt lat="35.091492" lon="-85.109736"><ele>290.8</ele><time>2026-07-25T20:38:54Z</time></trkpt>
<trkpt lat="35.091495" lon="-85.109728"><ele>289.6</ele><time>2026-07-25T20:38:55Z</time></trkpt>
<trkpt lat="35.0915" lon="-85.109708"><ele>288.6</ele><time>2026-07-25T20:38:56Z</time></trkpt>
<trkpt lat="35.091514" lon="-85.109681"><ele>288.6</ele><time>2026-07-25T20:38:59Z</time></trkpt>
<trkpt lat="35.09152" lon="-85.1097"><ele>288.6</ele><time>2026-07-25T20:39:00Z</time></trkpt>
<trkpt lat="35.091523" lon="-85.109706"><ele>288.6</ele><time>2026-07-25T20:39:02Z</time></trkpt>
<trkpt lat="35.091521" lon="-85.109707"><ele>289.0</ele><time>2026-07-25T20:39:03Z</time></trkpt>
<trkpt lat="35.09152" lon="-85.109707"><ele>289.0</ele><time>2026-07-25T20:39:04Z</time></trkpt>
<trkpt lat="35.091522" lon="-85.109704"><ele>289.3</ele><time>2026-07-25T20:39:05Z</time></trkpt>
<trkpt lat="35.091524" lon="-85.109667"><ele>289.9</ele><time>2026-07-25T20:39:08Z</time></trkpt>
<trkpt lat="35.091557" lon="-85.109639"><ele>289.6</ele><time>2026-07-25T20:39:09Z</time></trkpt>
<trkpt lat="35.091591" lon="-85.109612"><ele>289.9</ele><time>2026-07-25T20:39:11Z</time></trkpt>
<trkpt lat="35.091619" lon="-85.109586"><ele>285.9</ele><time>2026-07-25T20:39:15Z</time></trkpt>
<trkpt lat="35.091638" lon="-85.109559"><ele>280.4</ele><time>2026-07-25T20:39:20Z</time></trkpt>
<trkpt lat="35.09163" lon="-85.109526"><ele>278.9</ele><time>2026-07-25T20:39:22Z</time></trkpt>
<trkpt lat="35.091607" lon="-85.109478"><ele>278.6</ele><time>2026-07-25T20:39:24Z</time></trkpt>
<trkpt lat="35.091586" lon="-85.109444"><ele>278.3</ele><time>2026-07-25T20:39:25Z</time></trkpt>
<trkpt lat="35.091557" lon="-85.109398"><ele>279.2</ele><time>2026-07-25T20:39:27Z</time></trkpt>
<trkpt lat="35.091523" lon="-85.109369"><ele>280.1</ele><time>2026-07-25T20:39:29Z</time></trkpt>
<trkpt lat="35.091492" lon="-85.109347"><ele>281.0</ele><time>2026-07-25T20:39:31Z</time></trkpt>
<trkpt lat="35.091461" lon="-85.109323"><ele>282.2</ele><time>2026-07-25T20:39:33Z</time></trkpt>
<trkpt lat="35.091427" lon="-85.109284"><ele>282.5</ele><time>2026-07-25T20:39:35Z</time></trkpt>
<trkpt lat="35.091405" lon="-85.109243"><ele>283.8</ele><time>2026-07-25T20:39:37Z</time></trkpt>
<trkpt lat="35.091391" lon="-85.109197"><ele>285.3</ele><time>2026-07-25T20:39:39Z</time></trkpt>
<trkpt lat="35.091383" lon="-85.109153"><ele>286.2</ele><time>2026-07-25T20:39:41Z</time></trkpt>
<trkpt lat="35.09138" lon="-85.109112"><ele>287.1</ele><time>2026-07-25T20:39:43Z</time></trkpt>
<trkpt lat="35.091376" lon="-85.10907"><ele>288.6</ele><time>2026-07-25T20:39:45Z</time></trkpt>
<trkpt lat="35.091377" lon="-85.109031"><ele>288.6</ele><time>2026-07-25T20:39:47Z</time></trkpt>
<trkpt lat="35.091375" lon="-85.108993"><ele>289.0</ele><time>2026-07-25T20:39:49Z</time></trkpt>
<trkpt lat="35.091382" lon="-85.108956"><ele>289.6</ele><time>2026-07-25T20:39:51Z</time></trkpt>
<trkpt lat="35.091376" lon="-85.10892"><ele>290.5</ele><time>2026-07-25T20:39:53Z</time></trkpt>
<trkpt lat="35.091348" lon="-85.108883"><ele>289.9</ele><time>2026-07-25T20:39:56Z</time></trkpt>
<trkpt lat="35.091321" lon="-85.108848"><ele>289.0</ele><time>2026-07-25T20:39:59Z</time></trkpt>
<trkpt lat="35.091312" lon="-85.10881"><ele>290.8</ele><time>2026-07-25T20:40:01Z</time></trkpt>
<trkpt lat="35.09131" lon="-85.108766"><ele>293.2</ele><time>2026-07-25T20:40:03Z</time></trkpt>
<trkpt lat="35.091309" lon="-85.108724"><ele>294.4</ele><time>2026-07-25T20:40:05Z</time></trkpt>
<trkpt lat="35.091307" lon="-85.108681"><ele>294.7</ele><time>2026-07-25T20:40:07Z</time></trkpt>
<trkpt lat="35.091314" lon="-85.108641"><ele>294.4</ele><time>2026-07-25T20:40:09Z</time></trkpt>
<trkpt lat="35.091323" lon="-85.108602"><ele>293.8</ele><time>2026-07-25T20:40:11Z</time></trkpt>
<trkpt lat="35.091334" lon="-85.108559"><ele>295.0</ele><time>2026-07-25T20:40:13Z</time></trkpt>
<trkpt lat="35.091348" lon="-85.10852"><ele>295.4</ele><time>2026-07-25T20:40:15Z</time></trkpt>
<trkpt lat="35.091349" lon="-85.108486"><ele>293.5</ele><time>2026-07-25T20:40:17Z</time></trkpt>
<trkpt lat="35.09133" lon="-85.108452"><ele>292.6</ele><time>2026-07-25T20:40:20Z</time></trkpt>
<trkpt lat="35.0913" lon="-85.108432"><ele>293.5</ele><time>2026-07-25T20:40:22Z</time></trkpt>
<trkpt lat="35.091271" lon="-85.108407"><ele>294.1</ele><time>2026-07-25T20:40:25Z</time></trkpt>
<trkpt lat="35.091233" lon="-85.108388"><ele>292.3</ele><time>2026-07-25T20:40:28Z</time></trkpt>
<trkpt lat="35.091206" lon="-85.108373"><ele>291.1</ele><time>2026-07-25T20:40:30Z</time></trkpt>
<trkpt lat="35.091175" lon="-85.108349"><ele>289.3</ele><time>2026-07-25T20:40:33Z</time></trkpt>
<trkpt lat="35.091147" lon="-85.108324"><ele>287.1</ele><time>2026-07-25T20:40:36Z</time></trkpt>
<trkpt lat="35.09111" lon="-85.108312"><ele>289.0</ele><time>2026-07-25T20:40:39Z</time></trkpt>
<trkpt lat="35.091078" lon="-85.108327"><ele>289.0</ele><time>2026-07-25T20:40:41Z</time></trkpt>
<trkpt lat="35.09105" lon="-85.108331"><ele>290.2</ele><time>2026-07-25T20:40:43Z</time></trkpt>
<trkpt lat="35.091021" lon="-85.108336"><ele>290.8</ele><time>2026-07-25T20:40:45Z</time></trkpt>
<trkpt lat="35.090992" lon="-85.108339"><ele>291.7</ele><time>2026-07-25T20:40:47Z</time></trkpt>
<trkpt lat="35.090962" lon="-85.10834"><ele>292.3</ele><time>2026-07-25T20:40:49Z</time></trkpt>
<trkpt lat="35.090933" lon="-85.10834"><ele>293.5</ele><time>2026-07-25T20:40:51Z</time></trkpt>
<trkpt lat="35.090904" lon="-85.108339"><ele>295.0</ele><time>2026-07-25T20:40:53Z</time></trkpt>
<trkpt lat="35.090868" lon="-85.108336"><ele>292.3</ele><time>2026-07-25T20:40:56Z</time></trkpt>
<trkpt lat="35.090827" lon="-85.108344"><ele>291.4</ele><time>2026-07-25T20:40:59Z</time></trkpt>
<trkpt lat="35.090786" lon="-85.108347"><ele>293.5</ele><time>2026-07-25T20:41:02Z</time></trkpt>
<trkpt lat="35.090753" lon="-85.10836"><ele>293.8</ele><time>2026-07-25T20:41:04Z</time></trkpt>
<trkpt lat="35.090729" lon="-85.108388"><ele>295.4</ele><time>2026-07-25T20:41:06Z</time></trkpt>
<trkpt lat="35.090709" lon="-85.108419"><ele>298.1</ele><time>2026-07-25T20:41:08Z</time></trkpt>
<trkpt lat="35.090696" lon="-85.108449"><ele>298.4</ele><time>2026-07-25T20:41:10Z</time></trkpt>
<trkpt lat="35.090674" lon="-85.10849"><ele>300.8</ele><time>2026-07-25T20:41:13Z</time></trkpt>
<trkpt lat="35.09067" lon="-85.108534"><ele>299.0</ele><time>2026-07-25T20:41:15Z</time></trkpt>
<trkpt lat="35.090663" lon="-85.10857"><ele>299.6</ele><time>2026-07-25T20:41:17Z</time></trkpt>
<trkpt lat="35.090661" lon="-85.108603"><ele>300.8</ele><time>2026-07-25T20:41:19Z</time></trkpt>
<trkpt lat="35.090659" lon="-85.10865"><ele>302.1</ele><time>2026-07-25T20:41:22Z</time></trkpt>
<trkpt lat="35.090639" lon="-85.108678"><ele>302.1</ele><time>2026-07-25T20:41:24Z</time></trkpt>
<trkpt lat="35.090642" lon="-85.108717"><ele>302.4</ele><time>2026-07-25T20:41:26Z</time></trkpt>
<trkpt lat="35.090647" lon="-85.108757"><ele>301.8</ele><time>2026-07-25T20:41:28Z</time></trkpt>
<trkpt lat="35.090637" lon="-85.10879"><ele>300.5</ele><time>2026-07-25T20:41:30Z</time></trkpt>
<trkpt lat="35.090627" lon="-85.108837"><ele>301.1</ele><time>2026-07-25T20:41:33Z</time></trkpt>
<trkpt lat="35.090627" lon="-85.108879"><ele>301.1</ele><time>2026-07-25T20:41:35Z</time></trkpt>
<trkpt lat="35.090606" lon="-85.108919"><ele>303.0</ele><time>2026-07-25T20:41:38Z</time></trkpt>
<trkpt lat="35.090591" lon="-85.108959"><ele>301.4</ele><time>2026-07-25T20:41:41Z</time></trkpt>
<trkpt lat="35.090568" lon="-85.108981"><ele>301.4</ele><time>2026-07-25T20:41:43Z</time></trkpt>
<trkpt lat="35.090542" lon="-85.109012"><ele>300.8</ele><time>2026-07-25T20:41:46Z</time></trkpt>
<trkpt lat="35.090507" lon="-85.109042"><ele>299.6</ele><time>2026-07-25T20:41:49Z</time></trkpt>
<trkpt lat="35.090481" lon="-85.109061"><ele>299.3</ele><time>2026-07-25T20:41:51Z</time></trkpt>
<trkpt lat="35.090453" lon="-85.109077"><ele>299.6</ele><time>2026-07-25T20:41:53Z</time></trkpt>
<trkpt lat="35.090426" lon="-85.10909"><ele>299.9</ele><time>2026-07-25T20:41:55Z</time></trkpt>
<trkpt lat="35.0904" lon="-85.109114"><ele>298.7</ele><time>2026-07-25T20:41:57Z</time></trkpt>
<trkpt lat="35.090369" lon="-85.109138"><ele>297.5</ele><time>2026-07-25T20:42:00Z</time></trkpt>
<trkpt lat="35.090331" lon="-85.109159"><ele>297.2</ele><time>2026-07-25T20:42:03Z</time></trkpt>
<trkpt lat="35.090302" lon="-85.109177"><ele>297.5</ele><time>2026-07-25T20:42:05Z</time></trkpt>
<trkpt lat="35.090266" lon="-85.109198"><ele>300.5</ele><time>2026-07-25T20:42:08Z</time></trkpt>
<trkpt lat="35.090227" lon="-85.109199"><ele>298.7</ele><time>2026-07-25T20:42:11Z</time></trkpt>
<trkpt lat="35.090198" lon="-85.109191"><ele>299.0</ele><time>2026-07-25T20:42:13Z</time></trkpt>
<trkpt lat="35.090164" lon="-85.109205"><ele>298.1</ele><time>2026-07-25T20:42:16Z</time></trkpt>
<trkpt lat="35.090141" lon="-85.109242"><ele>298.7</ele><time>2026-07-25T20:42:19Z</time></trkpt>
<trkpt lat="35.090121" lon="-85.109278"><ele>297.8</ele><time>2026-07-25T20:42:22Z</time></trkpt>
<trkpt lat="35.090093" lon="-85.109315"><ele>298.4</ele><time>2026-07-25T20:42:25Z</time></trkpt>
<trkpt lat="35.090075" lon="-85.109343"><ele>297.8</ele><time>2026-07-25T20:42:27Z</time></trkpt>
<trkpt lat="35.09006" lon="-85.109378"><ele>298.4</ele><time>2026-07-25T20:42:29Z</time></trkpt>
<trkpt lat="35.090045" lon="-85.109411"><ele>300.2</ele><time>2026-07-25T20:42:31Z</time></trkpt>
<trkpt lat="35.090026" lon="-85.109439"><ele>301.1</ele><time>2026-07-25T20:42:33Z</time></trkpt>
<trkpt lat="35.089999" lon="-85.109458"><ele>302.7</ele><time>2026-07-25T20:42:35Z</time></trkpt>
<trkpt lat="35.08996" lon="-85.109476"><ele>301.8</ele><time>2026-07-25T20:42:38Z</time></trkpt>
<trkpt lat="35.089921" lon="-85.109492"><ele>303.9</ele><time>2026-07-25T20:42:41Z</time></trkpt>
<trkpt lat="35.089893" lon="-85.109496"><ele>303.6</ele><time>2026-07-25T20:42:43Z</time></trkpt>
<trkpt lat="35.089862" lon="-85.109509"><ele>302.1</ele><time>2026-07-25T20:42:46Z</time></trkpt>
<trkpt lat="35.089835" lon="-85.10954"><ele>303.6</ele><time>2026-07-25T20:42:49Z</time></trkpt>
<trkpt lat="35.089805" lon="-85.109569"><ele>303.3</ele><time>2026-07-25T20:42:52Z</time></trkpt>
<trkpt lat="35.08977" lon="-85.109595"><ele>303.0</ele><time>2026-07-25T20:42:55Z</time></trkpt>
<trkpt lat="35.08974" lon="-85.10961"><ele>302.7</ele><time>2026-07-25T20:42:58Z</time></trkpt>
<trkpt lat="35.089713" lon="-85.109622"><ele>301.8</ele><time>2026-07-25T20:43:00Z</time></trkpt>
<trkpt lat="35.089686" lon="-85.109629"><ele>298.7</ele><time>2026-07-25T20:43:02Z</time></trkpt>
<trkpt lat="35.08966" lon="-85.109645"><ele>299.9</ele><time>2026-07-25T20:43:04Z</time></trkpt>
<trkpt lat="35.089625" lon="-85.109661"><ele>297.5</ele><time>2026-07-25T20:43:07Z</time></trkpt>
<trkpt lat="35.089606" lon="-85.109695"><ele>296.3</ele><time>2026-07-25T20:43:09Z</time></trkpt>
<trkpt lat="35.089575" lon="-85.109702"><ele>295.7</ele><time>2026-07-25T20:43:11Z</time></trkpt>
<trkpt lat="35.089563" lon="-85.109738"><ele>295.7</ele><time>2026-07-25T20:43:13Z</time></trkpt>
<trkpt lat="35.089536" lon="-85.109749"><ele>297.8</ele><time>2026-07-25T20:43:15Z</time></trkpt>
<trkpt lat="35.089503" lon="-85.109736"><ele>297.8</ele><time>2026-07-25T20:43:17Z</time></trkpt>
<trkpt lat="35.089467" lon="-85.109741"><ele>296.3</ele><time>2026-07-25T20:43:20Z</time></trkpt>
<trkpt lat="35.089429" lon="-85.109746"><ele>294.1</ele><time>2026-07-25T20:43:23Z</time></trkpt>
<trkpt lat="35.089389" lon="-85.10975"><ele>294.4</ele><time>2026-07-25T20:43:26Z</time></trkpt>
<trkpt lat="35.089354" lon="-85.109735"><ele>294.7</ele><time>2026-07-25T20:43:29Z</time></trkpt>
<trkpt lat="35.089321" lon="-85.109728"><ele>296.3</ele><time>2026-07-25T20:43:32Z</time></trkpt>
<trkpt lat="35.08929" lon="-85.109738"><ele>297.8</ele><time>2026-07-25T20:43:35Z</time></trkpt>
<trkpt lat="35.089261" lon="-85.109745"><ele>301.4</ele><time>2026-07-25T20:43:38Z</time></trkpt>
<trkpt lat="35.089229" lon="-85.109729"><ele>303.0</ele><time>2026-07-25T20:43:41Z</time></trkpt>
<trkpt lat="35.089197" lon="-85.109718"><ele>303.0</ele><time>2026-07-25T20:43:44Z</time></trkpt>
<trkpt lat="35.089169" lon="-85.109681"><ele>300.8</ele><time>2026-07-25T20:43:47Z</time></trkpt>
<trkpt lat="35.089141" lon="-85.109649"><ele>301.8</ele><time>2026-07-25T20:43:50Z</time></trkpt>
<trkpt lat="35.089124" lon="-85.10961"><ele>297.2</ele><time>2026-07-25T20:43:53Z</time></trkpt>
<trkpt lat="35.089113" lon="-85.109571"><ele>298.7</ele><time>2026-07-25T20:43:56Z</time></trkpt>
<trkpt lat="35.089091" lon="-85.109537"><ele>298.1</ele><time>2026-07-25T20:43:59Z</time></trkpt>
<trkpt lat="35.089068" lon="-85.109505"><ele>298.1</ele><time>2026-07-25T20:44:02Z</time></trkpt>
<trkpt lat="35.08904" lon="-85.109477"><ele>298.4</ele><time>2026-07-25T20:44:05Z</time></trkpt>
<trkpt lat="35.089017" lon="-85.109458"><ele>299.3</ele><time>2026-07-25T20:44:07Z</time></trkpt>
<trkpt lat="35.088993" lon="-85.109438"><ele>300.5</ele><time>2026-07-25T20:44:09Z</time></trkpt>
<trkpt lat="35.088967" lon="-85.109419"><ele>301.4</ele><time>2026-07-25T20:44:11Z</time></trkpt>
<trkpt lat="35.088938" lon="-85.10939"><ele>300.5</ele><time>2026-07-25T20:44:14Z</time></trkpt>
<trkpt lat="35.088908" lon="-85.109361"><ele>299.3</ele><time>2026-07-25T20:44:17Z</time></trkpt>
<trkpt lat="35.08887" lon="-85.109365"><ele>298.7</ele><time>2026-07-25T20:44:20Z</time></trkpt>
<trkpt lat="35.088842" lon="-85.109387"><ele>299.6</ele><time>2026-07-25T20:44:22Z</time></trkpt>
<trkpt lat="35.088813" lon="-85.109408"><ele>300.8</ele><time>2026-07-25T20:44:24Z</time></trkpt>
<trkpt lat="35.088776" lon="-85.109428"><ele>302.4</ele><time>2026-07-25T20:44:27Z</time></trkpt>
<trkpt lat="35.08874" lon="-85.109435"><ele>303.0</ele><time>2026-07-25T20:44:29Z</time></trkpt>
<trkpt lat="35.088705" lon="-85.109447"><ele>303.6</ele><time>2026-07-25T20:44:31Z</time></trkpt>
<trkpt lat="35.088673" lon="-85.109462"><ele>302.7</ele><time>2026-07-25T20:44:34Z</time></trkpt>
<trkpt lat="35.088647" lon="-85.109478"><ele>305.1</ele><time>2026-07-25T20:44:36Z</time></trkpt>
<trkpt lat="35.08862" lon="-85.109498"><ele>306.9</ele><time>2026-07-25T20:44:38Z</time></trkpt>
<trkpt lat="35.0886" lon="-85.109523"><ele>307.5</ele><time>2026-07-25T20:44:40Z</time></trkpt>
<trkpt lat="35.088573" lon="-85.109513"><ele>308.5</ele><time>2026-07-25T20:44:42Z</time></trkpt>
<trkpt lat="35.088552" lon="-85.109487"><ele>307.8</ele><time>2026-07-25T20:44:44Z</time></trkpt>
<trkpt lat="35.088527" lon="-85.109453"><ele>305.1</ele><time>2026-07-25T20:44:47Z</time></trkpt>
<trkpt lat="35.088515" lon="-85.109412"><ele>299.9</ele><time>2026-07-25T20:44:51Z</time></trkpt>
<trkpt lat="35.088491" lon="-85.109386"><ele>298.4</ele><time>2026-07-25T20:44:54Z</time></trkpt>
<trkpt lat="35.088462" lon="-85.109354"><ele>297.8</ele><time>2026-07-25T20:44:57Z</time></trkpt>
<trkpt lat="35.088434" lon="-85.109342"><ele>297.5</ele><time>2026-07-25T20:44:59Z</time></trkpt>
<trkpt lat="35.088406" lon="-85.109338"><ele>296.0</ele><time>2026-07-25T20:45:01Z</time></trkpt>
<trkpt lat="35.088378" lon="-85.10934"><ele>296.3</ele><time>2026-07-25T20:45:03Z</time></trkpt>
<trkpt lat="35.088348" lon="-85.109347"><ele>297.8</ele><time>2026-07-25T20:45:05Z</time></trkpt>
<trkpt lat="35.088317" lon="-85.109361"><ele>299.3</ele><time>2026-07-25T20:45:07Z</time></trkpt>
<trkpt lat="35.088283" lon="-85.109388"><ele>301.8</ele><time>2026-07-25T20:45:10Z</time></trkpt>
<trkpt lat="35.088257" lon="-85.109405"><ele>302.1</ele><time>2026-07-25T20:45:12Z</time></trkpt>
<trkpt lat="35.088229" lon="-85.109419"><ele>302.7</ele><time>2026-07-25T20:45:14Z</time></trkpt>
<trkpt lat="35.088191" lon="-85.109434"><ele>300.5</ele><time>2026-07-25T20:45:17Z</time></trkpt>
<trkpt lat="35.088161" lon="-85.10944"><ele>300.2</ele><time>2026-07-25T20:45:19Z</time></trkpt>
<trkpt lat="35.088127" lon="-85.109446"><ele>301.8</ele><time>2026-07-25T20:45:21Z</time></trkpt>
<trkpt lat="35.088097" lon="-85.109455"><ele>302.4</ele><time>2026-07-25T20:45:23Z</time></trkpt>
<trkpt lat="35.088069" lon="-85.109472"><ele>301.8</ele><time>2026-07-25T20:45:25Z</time></trkpt>
<trkpt lat="35.088046" lon="-85.109492"><ele>303.3</ele><time>2026-07-25T20:45:27Z</time></trkpt>
<trkpt lat="35.088013" lon="-85.109521"><ele>305.4</ele><time>2026-07-25T20:45:30Z</time></trkpt>
<trkpt lat="35.087989" lon="-85.109544"><ele>305.4</ele><time>2026-07-25T20:45:32Z</time></trkpt>
<trkpt lat="35.087957" lon="-85.109576"><ele>304.5</ele><time>2026-07-25T20:45:35Z</time></trkpt>
<trkpt lat="35.087946" lon="-85.109584"><ele>304.5</ele><time>2026-07-25T20:45:36Z</time></trkpt>
<trkpt lat="35.087954" lon="-85.109588"><ele>300.8</ele><time>2026-07-25T20:45:37Z</time></trkpt>
<trkpt lat="35.087963" lon="-85.109587"><ele>300.5</ele><time>2026-07-25T20:45:45Z</time></trkpt>
<trkpt lat="35.08796" lon="-85.109593"><ele>300.2</ele><time>2026-07-25T20:45:46Z</time></trkpt>
<trkpt lat="35.087958" lon="-85.109594"><ele>300.2</ele><time>2026-07-25T20:45:47Z</time></trkpt>
<trkpt lat="35.087956" lon="-85.109632"><ele>299.0</ele><time>2026-07-25T20:45:48Z</time></trkpt>
<trkpt lat="35.087955" lon="-85.10964"><ele>299.0</ele><time>2026-07-25T20:45:49Z</time></trkpt>
<trkpt lat="35.087948" lon="-85.109644"><ele>299.0</ele><time>2026-07-25T20:46:08Z</time></trkpt>
<trkpt lat="35.087943" lon="-85.109651"><ele>299.3</ele><time>2026-07-25T20:46:09Z</time></trkpt>
<trkpt lat="35.087909" lon="-85.109666"><ele>299.0</ele><time>2026-07-25T20:46:13Z</time></trkpt>
<trkpt lat="35.087881" lon="-85.109677"><ele>299.6</ele><time>2026-07-25T20:46:16Z</time></trkpt>
<trkpt lat="35.087854" lon="-85.109701"><ele>299.6</ele><time>2026-07-25T20:46:19Z</time></trkpt>
<trkpt lat="35.087833" lon="-85.109734"><ele>298.4</ele><time>2026-07-25T20:46:22Z</time></trkpt>
<trkpt lat="35.087811" lon="-85.109764"><ele>297.2</ele><time>2026-07-25T20:46:25Z</time></trkpt>
<trkpt lat="35.087788" lon="-85.109797"><ele>295.4</ele><time>2026-07-25T20:46:28Z</time></trkpt>
<trkpt lat="35.087767" lon="-85.109819"><ele>294.7</ele><time>2026-07-25T20:46:30Z</time></trkpt>
<trkpt lat="35.087738" lon="-85.109833"><ele>296.3</ele><time>2026-07-25T20:46:32Z</time></trkpt>
<trkpt lat="35.0877" lon="-85.109845"><ele>294.1</ele><time>2026-07-25T20:46:35Z</time></trkpt>
<trkpt lat="35.087674" lon="-85.109856"><ele>294.1</ele><time>2026-07-25T20:46:37Z</time></trkpt>
<trkpt lat="35.087637" lon="-85.109869"><ele>294.1</ele><time>2026-07-25T20:46:40Z</time></trkpt>
<trkpt lat="35.0876" lon="-85.109885"><ele>295.7</ele><time>2026-07-25T20:46:43Z</time></trkpt>
<trkpt lat="35.087572" lon="-85.109896"><ele>296.6</ele><time>2026-07-25T20:46:45Z</time></trkpt>
<trkpt lat="35.087545" lon="-85.109903"><ele>295.0</ele><time>2026-07-25T20:46:47Z</time></trkpt>
<trkpt lat="35.087514" lon="-85.109927"><ele>294.4</ele><time>2026-07-25T20:46:50Z</time></trkpt>
<trkpt lat="35.087494" lon="-85.109968"><ele>292.0</ele><time>2026-07-25T20:46:53Z</time></trkpt>
<trkpt lat="35.087481" lon="-85.110013"><ele>292.9</ele><time>2026-07-25T20:46:56Z</time></trkpt>
<trkpt lat="35.087465" lon="-85.110058"><ele>293.8</ele><time>2026-07-25T20:46:59Z</time></trkpt>
<trkpt lat="35.08744" lon="-85.110094"><ele>295.0</ele><time>2026-07-25T20:47:02Z</time></trkpt>
<trkpt lat="35.08741" lon="-85.110121"><ele>294.7</ele><time>2026-07-25T20:47:05Z</time></trkpt>
<trkpt lat="35.087381" lon="-85.11014"><ele>296.0</ele><time>2026-07-25T20:47:08Z</time></trkpt>
<trkpt lat="35.087348" lon="-85.110164"><ele>296.3</ele><time>2026-07-25T20:47:11Z</time></trkpt>
<trkpt lat="35.087315" lon="-85.110189"><ele>298.1</ele><time>2026-07-25T20:47:14Z</time></trkpt>
<trkpt lat="35.087283" lon="-85.110217"><ele>298.1</ele><time>2026-07-25T20:47:17Z</time></trkpt>
<trkpt lat="35.08725" lon="-85.110229"><ele>296.6</ele><time>2026-07-25T20:47:20Z</time></trkpt>
<trkpt lat="35.087213" lon="-85.110228"><ele>296.3</ele><time>2026-07-25T20:47:23Z</time></trkpt>
<trkpt lat="35.087173" lon="-85.110223"><ele>295.7</ele><time>2026-07-25T20:47:26Z</time></trkpt>
<trkpt lat="35.087146" lon="-85.110221"><ele>297.2</ele><time>2026-07-25T20:47:28Z</time></trkpt>
<trkpt lat="35.08711" lon="-85.110203"><ele>295.0</ele><time>2026-07-25T20:47:31Z</time></trkpt>
<trkpt lat="35.087071" lon="-85.110197"><ele>297.5</ele><time>2026-07-25T20:47:34Z</time></trkpt>
<trkpt lat="35.087044" lon="-85.110217"><ele>297.8</ele><time>2026-07-25T20:47:36Z</time></trkpt>
<trkpt lat="35.087032" lon="-85.11025"><ele>298.4</ele><time>2026-07-25T20:47:38Z</time></trkpt>
<trkpt lat="35.08702" lon="-85.110281"><ele>299.3</ele><time>2026-07-25T20:47:40Z</time></trkpt>
<trkpt lat="35.086993" lon="-85.110306"><ele>299.0</ele><time>2026-07-25T20:47:43Z</time></trkpt>
<trkpt lat="35.086961" lon="-85.110332"><ele>299.3</ele><time>2026-07-25T20:47:46Z</time></trkpt>
<trkpt lat="35.086929" lon="-85.110353"><ele>299.9</ele><time>2026-07-25T20:47:49Z</time></trkpt>
<trkpt lat="35.086905" lon="-85.110384"><ele>299.0</ele><time>2026-07-25T20:47:52Z</time></trkpt>
<trkpt lat="35.0869" lon="-85.110418"><ele>299.9</ele><time>2026-07-25T20:47:54Z</time></trkpt>
<trkpt lat="35.086899" lon="-85.110452"><ele>299.9</ele><time>2026-07-25T20:47:56Z</time></trkpt>
<trkpt lat="35.086891" lon="-85.110485"><ele>300.8</ele><time>2026-07-25T20:47:58Z</time></trkpt>
<trkpt lat="35.086869" lon="-85.110526"><ele>299.9</ele><time>2026-07-25T20:48:01Z</time></trkpt>
<trkpt lat="35.086843" lon="-85.110546"><ele>300.8</ele><time>2026-07-25T20:48:03Z</time></trkpt>
<trkpt lat="35.086815" lon="-85.110562"><ele>299.3</ele><time>2026-07-25T20:48:05Z</time></trkpt>
<trkpt lat="35.086787" lon="-85.11057"><ele>299.6</ele><time>2026-07-25T20:48:07Z</time></trkpt>
<trkpt lat="35.08676" lon="-85.110581"><ele>299.3</ele><time>2026-07-25T20:48:09Z</time></trkpt>
<trkpt lat="35.086722" lon="-85.110597"><ele>296.6</ele><time>2026-07-25T20:48:12Z</time></trkpt>
<trkpt lat="35.086695" lon="-85.11061"><ele>297.2</ele><time>2026-07-25T20:48:14Z</time></trkpt>
<trkpt lat="35.086669" lon="-85.11062"><ele>297.5</ele><time>2026-07-25T20:48:16Z</time></trkpt>
<trkpt lat="35.086641" lon="-85.110628"><ele>297.5</ele><time>2026-07-25T20:48:18Z</time></trkpt>
<trkpt lat="35.08661" lon="-85.110633"><ele>294.4</ele><time>2026-07-25T20:48:21Z</time></trkpt>
<trkpt lat="35.086573" lon="-85.11064"><ele>294.7</ele><time>2026-07-25T20:48:24Z</time></trkpt>
<trkpt lat="35.086548" lon="-85.110653"><ele>294.7</ele><time>2026-07-25T20:48:26Z</time></trkpt>
<trkpt lat="35.086526" lon="-85.110697"><ele>292.9</ele><time>2026-07-25T20:48:29Z</time></trkpt>
<trkpt lat="35.086514" lon="-85.110734"><ele>292.0</ele><time>2026-07-25T20:48:31Z</time></trkpt>
<trkpt lat="35.086509" lon="-85.11077"><ele>292.3</ele><time>2026-07-25T20:48:33Z</time></trkpt>
<trkpt lat="35.086507" lon="-85.110804"><ele>291.4</ele><time>2026-07-25T20:48:35Z</time></trkpt>
<trkpt lat="35.086502" lon="-85.110853"><ele>293.2</ele><time>2026-07-25T20:48:38Z</time></trkpt>
<trkpt lat="35.086488" lon="-85.110898"><ele>294.7</ele><time>2026-07-25T20:48:41Z</time></trkpt>
<trkpt lat="35.086455" lon="-85.110921"><ele>295.0</ele><time>2026-07-25T20:48:44Z</time></trkpt>
<trkpt lat="35.086423" lon="-85.110941"><ele>292.9</ele><time>2026-07-25T20:48:47Z</time></trkpt>
<trkpt lat="35.086399" lon="-85.11096"><ele>294.1</ele><time>2026-07-25T20:48:49Z</time></trkpt>
<trkpt lat="35.086376" lon="-85.110998"><ele>294.7</ele><time>2026-07-25T20:48:52Z</time></trkpt>
<trkpt lat="35.08637" lon="-85.111045"><ele>292.9</ele><time>2026-07-25T20:48:55Z</time></trkpt>
<trkpt lat="35.086354" lon="-85.111088"><ele>293.8</ele><time>2026-07-25T20:48:58Z</time></trkpt>
<trkpt lat="35.086315" lon="-85.111107"><ele>295.4</ele><time>2026-07-25T20:49:01Z</time></trkpt>
<trkpt lat="35.086285" lon="-85.111114"><ele>295.0</ele><time>2026-07-25T20:49:03Z</time></trkpt>
<trkpt lat="35.086257" lon="-85.111123"><ele>295.7</ele><time>2026-07-25T20:49:05Z</time></trkpt>
<trkpt lat="35.086218" lon="-85.111136"><ele>294.1</ele><time>2026-07-25T20:49:08Z</time></trkpt>
<trkpt lat="35.086183" lon="-85.111151"><ele>291.1</ele><time>2026-07-25T20:49:11Z</time></trkpt>
<trkpt lat="35.086148" lon="-85.11117"><ele>288.0</ele><time>2026-07-25T20:49:14Z</time></trkpt>
<trkpt lat="35.08612" lon="-85.11117"><ele>289.0</ele><time>2026-07-25T20:49:16Z</time></trkpt>
<trkpt lat="35.086082" lon="-85.11117"><ele>289.3</ele><time>2026-07-25T20:49:19Z</time></trkpt>
<trkpt lat="35.086044" lon="-85.111166"><ele>291.7</ele><time>2026-07-25T20:49:22Z</time></trkpt>
<trkpt lat="35.086007" lon="-85.111155"><ele>294.7</ele><time>2026-07-25T20:49:25Z</time></trkpt>
<trkpt lat="35.085971" lon="-85.111165"><ele>293.5</ele><time>2026-07-25T20:49:28Z</time></trkpt>
<trkpt lat="35.085936" lon="-85.111183"><ele>292.0</ele><time>2026-07-25T20:49:31Z</time></trkpt>
<trkpt lat="35.085895" lon="-85.111188"><ele>291.4</ele><time>2026-07-25T20:49:34Z</time></trkpt>
<trkpt lat="35.085866" lon="-85.111186"><ele>292.9</ele><time>2026-07-25T20:49:36Z</time></trkpt>
<trkpt lat="35.085836" lon="-85.111181"><ele>293.5</ele><time>2026-07-25T20:49:38Z</time></trkpt>
<trkpt lat="35.085809" lon="-85.111178"><ele>294.1</ele><time>2026-07-25T20:49:40Z</time></trkpt>
<trkpt lat="35.08578" lon="-85.111181"><ele>292.6</ele><time>2026-07-25T20:49:42Z</time></trkpt>
<trkpt lat="35.085753" lon="-85.111181"><ele>293.8</ele><time>2026-07-25T20:49:44Z</time></trkpt>
<trkpt lat="35.085723" lon="-85.111185"><ele>296.0</ele><time>2026-07-25T20:49:46Z</time></trkpt>
<trkpt lat="35.085694" lon="-85.111182"><ele>296.0</ele><time>2026-07-25T20:49:48Z</time></trkpt>
<trkpt lat="35.085654" lon="-85.11119"><ele>296.6</ele><time>2026-07-25T20:49:51Z</time></trkpt>
<trkpt lat="35.085613" lon="-85.111198"><ele>296.6</ele><time>2026-07-25T20:49:54Z</time></trkpt>
<trkpt lat="35.085574" lon="-85.1112"><ele>295.7</ele><time>2026-07-25T20:49:57Z</time></trkpt>
<trkpt lat="35.085547" lon="-85.111206"><ele>293.8</ele><time>2026-07-25T20:49:59Z</time></trkpt>
<trkpt lat="35.085517" lon="-85.111233"><ele>293.8</ele><time>2026-07-25T20:50:02Z</time></trkpt>
<trkpt lat="35.085492" lon="-85.111264"><ele>293.5</ele><time>2026-07-25T20:50:05Z</time></trkpt>
<trkpt lat="35.085464" lon="-85.111296"><ele>293.5</ele><time>2026-07-25T20:50:08Z</time></trkpt>
<trkpt lat="35.085437" lon="-85.11133"><ele>294.4</ele><time>2026-07-25T20:50:11Z</time></trkpt>
<trkpt lat="35.085411" lon="-85.111368"><ele>295.4</ele><time>2026-07-25T20:50:14Z</time></trkpt>
<trkpt lat="35.085393" lon="-85.11141"><ele>296.0</ele><time>2026-07-25T20:50:17Z</time></trkpt>
<trkpt lat="35.085383" lon="-85.111458"><ele>294.4</ele><time>2026-07-25T20:50:20Z</time></trkpt>
<trkpt lat="35.08537" lon="-85.11149"><ele>294.4</ele><time>2026-07-25T20:50:22Z</time></trkpt>
<trkpt lat="35.085357" lon="-85.111536"><ele>292.6</ele><time>2026-07-25T20:50:25Z</time></trkpt>
<trkpt lat="35.085339" lon="-85.111576"><ele>293.5</ele><time>2026-07-25T20:50:28Z</time></trkpt>
<trkpt lat="35.085315" lon="-85.111594"><ele>295.0</ele><time>2026-07-25T20:50:30Z</time></trkpt>
<trkpt lat="35.085284" lon="-85.111618"><ele>296.3</ele><time>2026-07-25T20:50:33Z</time></trkpt>
<trkpt lat="35.08527" lon="-85.111648"><ele>294.4</ele><time>2026-07-25T20:50:35Z</time></trkpt>
<trkpt lat="35.085259" lon="-85.111679"><ele>296.0</ele><time>2026-07-25T20:50:37Z</time></trkpt>
<trkpt lat="35.085227" lon="-85.111709"><ele>295.4</ele><time>2026-07-25T20:50:40Z</time></trkpt>
<trkpt lat="35.085201" lon="-85.111722"><ele>295.7</ele><time>2026-07-25T20:50:42Z</time></trkpt>
<trkpt lat="35.085171" lon="-85.111725"><ele>297.5</ele><time>2026-07-25T20:50:44Z</time></trkpt>
<trkpt lat="35.085134" lon="-85.111734"><ele>296.3</ele><time>2026-07-25T20:50:47Z</time></trkpt>
<trkpt lat="35.085098" lon="-85.111747"><ele>296.0</ele><time>2026-07-25T20:50:50Z</time></trkpt>
<trkpt lat="35.085066" lon="-85.111769"><ele>294.7</ele><time>2026-07-25T20:50:53Z</time></trkpt>
<trkpt lat="35.085047" lon="-85.111795"><ele>295.4</ele><time>2026-07-25T20:50:55Z</time></trkpt>
<trkpt lat="35.085025" lon="-85.111823"><ele>295.4</ele><time>2026-07-25T20:50:57Z</time></trkpt>
<trkpt lat="35.085007" lon="-85.111861"><ele>294.7</ele><time>2026-07-25T20:51:00Z</time></trkpt>
<trkpt lat="35.084993" lon="-85.111901"><ele>294.7</ele><time>2026-07-25T20:51:03Z</time></trkpt>
<trkpt lat="35.084991" lon="-85.111935"><ele>294.4</ele><time>2026-07-25T20:51:05Z</time></trkpt>
<trkpt lat="35.084978" lon="-85.111974"><ele>294.7</ele><time>2026-07-25T20:51:08Z</time></trkpt>
<trkpt lat="35.084964" lon="-85.112013"><ele>294.7</ele><time>2026-07-25T20:51:11Z</time></trkpt>
<trkpt lat="35.084963" lon="-85.112048"><ele>293.8</ele><time>2026-07-25T20:51:13Z</time></trkpt>
<trkpt lat="35.084964" lon="-85.112098"><ele>293.8</ele><time>2026-07-25T20:51:16Z</time></trkpt>
<trkpt lat="35.084966" lon="-85.112133"><ele>292.9</ele><time>2026-07-25T20:51:18Z</time></trkpt>
<trkpt lat="35.084961" lon="-85.112179"><ele>293.8</ele><time>2026-07-25T20:51:21Z</time></trkpt>
<trkpt lat="35.084964" lon="-85.112226"><ele>293.5</ele><time>2026-07-25T20:51:24Z</time></trkpt>
<trkpt lat="35.084965" lon="-85.112275"><ele>291.7</ele><time>2026-07-25T20:51:27Z</time></trkpt>
<trkpt lat="35.084961" lon="-85.112322"><ele>290.5</ele><time>2026-07-25T20:51:30Z</time></trkpt>
<trkpt lat="35.084955" lon="-85.112367"><ele>290.2</ele><time>2026-07-25T20:51:33Z</time></trkpt>
<trkpt lat="35.084959" lon="-85.112414"><ele>290.5</ele><time>2026-07-25T20:51:36Z</time></trkpt>
<trkpt lat="35.084966" lon="-85.112447"><ele>289.3</ele><time>2026-07-25T20:51:38Z</time></trkpt>
<trkpt lat="35.084977" lon="-85.112494"><ele>288.6</ele><time>2026-07-25T20:51:41Z</time></trkpt>
<trkpt lat="35.084967" lon="-85.11253"><ele>289.9</ele><time>2026-07-25T20:51:43Z</time></trkpt>
<trkpt lat="35.084947" lon="-85.112571"><ele>289.0</ele><time>2026-07-25T20:51:46Z</time></trkpt>
<trkpt lat="35.084928" lon="-85.112599"><ele>289.9</ele><time>2026-07-25T20:51:48Z</time></trkpt>
<trkpt lat="35.084908" lon="-85.112624"><ele>292.0</ele><time>2026-07-25T20:51:50Z</time></trkpt>
<trkpt lat="35.084893" lon="-85.112655"><ele>292.6</ele><time>2026-07-25T20:51:52Z</time></trkpt>
<trkpt lat="35.084875" lon="-85.112701"><ele>292.9</ele><time>2026-07-25T20:51:55Z</time></trkpt>
<trkpt lat="35.084858" lon="-85.112728"><ele>293.2</ele><time>2026-07-25T20:51:57Z</time></trkpt>
<trkpt lat="35.084831" lon="-85.112764"><ele>295.4</ele><time>2026-07-25T20:52:00Z</time></trkpt>
<trkpt lat="35.084811" lon="-85.112788"><ele>297.2</ele><time>2026-07-25T20:52:02Z</time></trkpt>
<trkpt lat="35.084785" lon="-85.112826"><ele>298.7</ele><time>2026-07-25T20:52:05Z</time></trkpt>
<trkpt lat="35.084764" lon="-85.112849"><ele>299.3</ele><time>2026-07-25T20:52:07Z</time></trkpt>
<trkpt lat="35.084753" lon="-85.112882"><ele>298.1</ele><time>2026-07-25T20:52:09Z</time></trkpt>
<trkpt lat="35.084735" lon="-85.11291"><ele>297.5</ele><time>2026-07-25T20:52:11Z</time></trkpt>
<trkpt lat="35.084728" lon="-85.112942"><ele>296.6</ele><time>2026-07-25T20:52:13Z</time></trkpt>
<trkpt lat="35.084723" lon="-85.112976"><ele>296.6</ele><time>2026-07-25T20:52:15Z</time></trkpt>
<trkpt lat="35.084704" lon="-85.113006"><ele>298.4</ele><time>2026-07-25T20:52:17Z</time></trkpt>
<trkpt lat="35.084694" lon="-85.113038"><ele>298.7</ele><time>2026-07-25T20:52:19Z</time></trkpt>
<trkpt lat="35.084692" lon="-85.113072"><ele>299.9</ele><time>2026-07-25T20:52:21Z</time></trkpt>
<trkpt lat="35.084699" lon="-85.113108"><ele>299.6</ele><time>2026-07-25T20:52:23Z</time></trkpt>
<trkpt lat="35.084711" lon="-85.11314"><ele>300.5</ele><time>2026-07-25T20:52:25Z</time></trkpt>
<trkpt lat="35.084713" lon="-85.113175"><ele>301.4</ele><time>2026-07-25T20:52:27Z</time></trkpt>
<trkpt lat="35.084724" lon="-85.113211"><ele>302.1</ele><time>2026-07-25T20:52:29Z</time></trkpt>
<trkpt lat="35.084739" lon="-85.113243"><ele>298.1</ele><time>2026-07-25T20:52:31Z</time></trkpt>
<trkpt lat="35.084748" lon="-85.113276"><ele>296.9</ele><time>2026-07-25T20:52:33Z</time></trkpt>
<trkpt lat="35.084755" lon="-85.113311"><ele>296.6</ele><time>2026-07-25T20:52:35Z</time></trkpt>
<trkpt lat="35.084774" lon="-85.113355"><ele>296.0</ele><time>2026-07-25T20:52:38Z</time></trkpt>
<trkpt lat="35.084789" lon="-85.113384"><ele>295.4</ele><time>2026-07-25T20:52:40Z</time></trkpt>
<trkpt lat="35.084797" lon="-85.113417"><ele>294.4</ele><time>2026-07-25T20:52:42Z</time></trkpt>
<trkpt lat="35.084801" lon="-85.113453"><ele>293.8</ele><time>2026-07-25T20:52:44Z</time></trkpt>
<trkpt lat="35.084794" lon="-85.113488"><ele>294.1</ele><time>2026-07-25T20:52:46Z</time></trkpt>
<trkpt lat="35.084788" lon="-85.113536"><ele>295.7</ele><time>2026-07-25T20:52:49Z</time></trkpt>
<trkpt lat="35.084779" lon="-85.11357"><ele>295.4</ele><time>2026-07-25T20:52:51Z</time></trkpt>
<trkpt lat="35.084766" lon="-85.113601"><ele>295.7</ele><time>2026-07-25T20:52:53Z</time></trkpt>
<trkpt lat="35.084751" lon="-85.113635"><ele>295.7</ele><time>2026-07-25T20:52:55Z</time></trkpt>
<trkpt lat="35.08474" lon="-85.113668"><ele>295.4</ele><time>2026-07-25T20:52:57Z</time></trkpt>
<trkpt lat="35.084729" lon="-85.113713"><ele>294.1</ele><time>2026-07-25T20:53:00Z</time></trkpt>
<trkpt lat="35.084732" lon="-85.113748"><ele>292.9</ele><time>2026-07-25T20:53:02Z</time></trkpt>
<trkpt lat="35.084743" lon="-85.113794"><ele>292.9</ele><time>2026-07-25T20:53:05Z</time></trkpt>
<trkpt lat="35.084762" lon="-85.113833"><ele>297.2</ele><time>2026-07-25T20:53:08Z</time></trkpt>
<trkpt lat="35.084792" lon="-85.113856"><ele>299.9</ele><time>2026-07-25T20:53:11Z</time></trkpt>
<trkpt lat="35.084821" lon="-85.113889"><ele>300.5</ele><time>2026-07-25T20:53:14Z</time></trkpt>
<trkpt lat="35.08484" lon="-85.113932"><ele>301.1</ele><time>2026-07-25T20:53:17Z</time></trkpt>
<trkpt lat="35.084852" lon="-85.113964"><ele>302.1</ele><time>2026-07-25T20:53:19Z</time></trkpt>
<trkpt lat="35.084858" lon="-85.113998"><ele>300.2</ele><time>2026-07-25T20:53:21Z</time></trkpt>
<trkpt lat="35.084872" lon="-85.114027"><ele>300.2</ele><time>2026-07-25T20:53:23Z</time></trkpt>
<trkpt lat="35.084875" lon="-85.114077"><ele>299.6</ele><time>2026-07-25T20:53:26Z</time></trkpt>
<trkpt lat="35.084876" lon="-85.114113"><ele>301.1</ele><time>2026-07-25T20:53:28Z</time></trkpt>
<trkpt lat="35.084886" lon="-85.114158"><ele>301.8</ele><time>2026-07-25T20:53:31Z</time></trkpt>
<trkpt lat="35.084901" lon="-85.114202"><ele>301.1</ele><time>2026-07-25T20:53:34Z</time></trkpt>
<trkpt lat="35.084914" lon="-85.114234"><ele>303.0</ele><time>2026-07-25T20:53:36Z</time></trkpt>
<trkpt lat="35.084925" lon="-85.114278"><ele>303.3</ele><time>2026-07-25T20:53:39Z</time></trkpt>
<trkpt lat="35.084941" lon="-85.114322"><ele>304.2</ele><time>2026-07-25T20:53:42Z</time></trkpt>
<trkpt lat="35.084964" lon="-85.114363"><ele>303.0</ele><time>2026-07-25T20:53:45Z</time></trkpt>
<trkpt lat="35.084994" lon="-85.114395"><ele>303.6</ele><time>2026-07-25T20:53:48Z</time></trkpt>
<trkpt lat="35.085019" lon="-85.114432"><ele>304.8</ele><time>2026-07-25T20:53:51Z</time></trkpt>
<trkpt lat="35.085046" lon="-85.114442"><ele>305.4</ele><time>2026-07-25T20:53:53Z</time></trkpt>
<trkpt lat="35.085082" lon="-85.114464"><ele>305.4</ele><time>2026-07-25T20:53:56Z</time></trkpt>
<trkpt lat="35.085109" lon="-85.114475"><ele>305.4</ele><time>2026-07-25T20:53:58Z</time></trkpt>
<trkpt lat="35.085144" lon="-85.1145"><ele>305.4</ele><time>2026-07-25T20:54:01Z</time></trkpt>
<trkpt lat="35.085179" lon="-85.114527"><ele>303.0</ele><time>2026-07-25T20:54:04Z</time></trkpt>
<trkpt lat="35.085209" lon="-85.114558"><ele>302.7</ele><time>2026-07-25T20:54:07Z</time></trkpt>
<trkpt lat="35.08523" lon="-85.114581"><ele>303.3</ele><time>2026-07-25T20:54:09Z</time></trkpt>
<trkpt lat="35.085258" lon="-85.114587"><ele>302.7</ele><time>2026-07-25T20:54:11Z</time></trkpt>
<trkpt lat="35.085297" lon="-85.11459"><ele>303.0</ele><time>2026-07-25T20:54:14Z</time></trkpt>
<trkpt lat="35.085336" lon="-85.114577"><ele>303.3</ele><time>2026-07-25T20:54:17Z</time></trkpt>
<trkpt lat="35.08537" lon="-85.114554"><ele>304.8</ele><time>2026-07-25T20:54:20Z</time></trkpt>
<trkpt lat="35.085406" lon="-85.114533"><ele>305.1</ele><time>2026-07-25T20:54:23Z</time></trkpt>
<trkpt lat="35.085431" lon="-85.114516"><ele>304.2</ele><time>2026-07-25T20:54:25Z</time></trkpt>
<trkpt lat="35.085469" lon="-85.114499"><ele>303.6</ele><time>2026-07-25T20:54:28Z</time></trkpt>
<trkpt lat="35.085491" lon="-85.11448"><ele>303.3</ele><time>2026-07-25T20:54:30Z</time></trkpt>
<trkpt lat="35.085522" lon="-85.114455"><ele>301.8</ele><time>2026-07-25T20:54:33Z</time></trkpt>
<trkpt lat="35.085562" lon="-85.114442"><ele>302.1</ele><time>2026-07-25T20:54:36Z</time></trkpt>
<trkpt lat="35.085603" lon="-85.114434"><ele>301.4</ele><time>2026-07-25T20:54:39Z</time></trkpt>
<trkpt lat="35.085642" lon="-85.114424"><ele>299.9</ele><time>2026-07-25T20:54:42Z</time></trkpt>
<trkpt lat="35.085669" lon="-85.114416"><ele>299.9</ele><time>2026-07-25T20:54:44Z</time></trkpt>
<trkpt lat="35.085693" lon="-85.1144"><ele>299.9</ele><time>2026-07-25T20:54:46Z</time></trkpt>
<trkpt lat="35.085714" lon="-85.114376"><ele>299.6</ele><time>2026-07-25T20:54:48Z</time></trkpt>
<trkpt lat="35.085739" lon="-85.114357"><ele>299.3</ele><time>2026-07-25T20:54:50Z</time></trkpt>
<trkpt lat="35.085769" lon="-85.11433"><ele>299.9</ele><time>2026-07-25T20:54:53Z</time></trkpt>
<trkpt lat="35.085793" lon="-85.114312"><ele>300.8</ele><time>2026-07-25T20:54:55Z</time></trkpt>
<trkpt lat="35.085813" lon="-85.114287"><ele>301.4</ele><time>2026-07-25T20:54:57Z</time></trkpt>
<trkpt lat="35.085818" lon="-85.114238"><ele>302.1</ele><time>2026-07-25T20:55:00Z</time></trkpt>
<trkpt lat="35.085805" lon="-85.114191"><ele>301.4</ele><time>2026-07-25T20:55:03Z</time></trkpt>
<trkpt lat="35.085795" lon="-85.114159"><ele>302.1</ele><time>2026-07-25T20:55:05Z</time></trkpt>
<trkpt lat="35.085786" lon="-85.114126"><ele>303.0</ele><time>2026-07-25T20:55:07Z</time></trkpt>
<trkpt lat="35.085779" lon="-85.114082"><ele>305.1</ele><time>2026-07-25T20:55:10Z</time></trkpt>
<trkpt lat="35.085783" lon="-85.114038"><ele>306.0</ele><time>2026-07-25T20:55:13Z</time></trkpt>
<trkpt lat="35.085796" lon="-85.113992"><ele>306.6</ele><time>2026-07-25T20:55:16Z</time></trkpt>
<trkpt lat="35.085823" lon="-85.113955"><ele>305.4</ele><time>2026-07-25T20:55:19Z</time></trkpt>
<trkpt lat="35.085859" lon="-85.113941"><ele>304.8</ele><time>2026-07-25T20:55:22Z</time></trkpt>
<trkpt lat="35.085888" lon="-85.113946"><ele>304.2</ele><time>2026-07-25T20:55:24Z</time></trkpt>
<trkpt lat="35.085929" lon="-85.113954"><ele>304.5</ele><time>2026-07-25T20:55:27Z</time></trkpt>
<trkpt lat="35.085969" lon="-85.113951"><ele>303.3</ele><time>2026-07-25T20:55:30Z</time></trkpt>
<trkpt lat="35.086003" lon="-85.113926"><ele>303.6</ele><time>2026-07-25T20:55:33Z</time></trkpt>
<trkpt lat="35.086028" lon="-85.113908"><ele>302.7</ele><time>2026-07-25T20:55:35Z</time></trkpt>
<trkpt lat="35.086059" lon="-85.113877"><ele>303.0</ele><time>2026-07-25T20:55:38Z</time></trkpt>
<trkpt lat="35.086081" lon="-85.113857"><ele>303.0</ele><time>2026-07-25T20:55:40Z</time></trkpt>
<trkpt lat="35.086112" lon="-85.113826"><ele>304.2</ele><time>2026-07-25T20:55:43Z</time></trkpt>
<trkpt lat="35.086146" lon="-85.113804"><ele>304.5</ele><time>2026-07-25T20:55:46Z</time></trkpt>
<trkpt lat="35.086185" lon="-85.113794"><ele>304.2</ele><time>2026-07-25T20:55:49Z</time></trkpt>
<trkpt lat="35.086225" lon="-85.113796"><ele>303.3</ele><time>2026-07-25T20:55:52Z</time></trkpt>
<trkpt lat="35.086265" lon="-85.113806"><ele>303.3</ele><time>2026-07-25T20:55:55Z</time></trkpt>
<trkpt lat="35.086292" lon="-85.113814"><ele>303.6</ele><time>2026-07-25T20:55:57Z</time></trkpt>
<trkpt lat="35.08632" lon="-85.113816"><ele>303.9</ele><time>2026-07-25T20:55:59Z</time></trkpt>
<trkpt lat="35.086348" lon="-85.113821"><ele>304.5</ele><time>2026-07-25T20:56:01Z</time></trkpt>
<trkpt lat="35.086377" lon="-85.11383"><ele>305.4</ele><time>2026-07-25T20:56:03Z</time></trkpt>
<trkpt lat="35.086406" lon="-85.113834"><ele>305.4</ele><time>2026-07-25T20:56:05Z</time></trkpt>
<trkpt lat="35.086433" lon="-85.113841"><ele>305.4</ele><time>2026-07-25T20:56:07Z</time></trkpt>
<trkpt lat="35.086462" lon="-85.113844"><ele>305.1</ele><time>2026-07-25T20:56:09Z</time></trkpt>
<trkpt lat="35.086502" lon="-85.113857"><ele>303.6</ele><time>2026-07-25T20:56:12Z</time></trkpt>
<trkpt lat="35.08653" lon="-85.113872"><ele>303.3</ele><time>2026-07-25T20:56:14Z</time></trkpt>
<trkpt lat="35.086556" lon="-85.113886"><ele>302.1</ele><time>2026-07-25T20:56:16Z</time></trkpt>
<trkpt lat="35.086581" lon="-85.113909"><ele>302.1</ele><time>2026-07-25T20:56:18Z</time></trkpt>
<trkpt lat="35.086603" lon="-85.11393"><ele>302.4</ele><time>2026-07-25T20:56:20Z</time></trkpt>
<trkpt lat="35.086627" lon="-85.113951"><ele>301.8</ele><time>2026-07-25T20:56:22Z</time></trkpt>
<trkpt lat="35.086655" lon="-85.113969"><ele>300.8</ele><time>2026-07-25T20:56:24Z</time></trkpt>
<trkpt lat="35.086684" lon="-85.113976"><ele>301.1</ele><time>2026-07-25T20:56:26Z</time></trkpt>
<trkpt lat="35.086724" lon="-85.113981"><ele>300.5</ele><time>2026-07-25T20:56:29Z</time></trkpt>
<trkpt lat="35.086763" lon="-85.113995"><ele>301.1</ele><time>2026-07-25T20:56:32Z</time></trkpt>
<trkpt lat="35.086801" lon="-85.113995"><ele>301.1</ele><time>2026-07-25T20:56:35Z</time></trkpt>
<trkpt lat="35.086828" lon="-85.113984"><ele>301.4</ele><time>2026-07-25T20:56:37Z</time></trkpt>
<trkpt lat="35.08686" lon="-85.113952"><ele>301.8</ele><time>2026-07-25T20:56:40Z</time></trkpt>
<trkpt lat="35.086882" lon="-85.113928"><ele>300.8</ele><time>2026-07-25T20:56:42Z</time></trkpt>
<trkpt lat="35.086905" lon="-85.113906"><ele>298.7</ele><time>2026-07-25T20:56:44Z</time></trkpt>
<trkpt lat="35.086934" lon="-85.1139"><ele>298.4</ele><time>2026-07-25T20:56:46Z</time></trkpt>
<trkpt lat="35.086958" lon="-85.113937"><ele>299.3</ele><time>2026-07-25T20:56:48Z</time></trkpt>
<trkpt lat="35.086957" lon="-85.113972"><ele>299.3</ele><time>2026-07-25T20:56:50Z</time></trkpt>
<trkpt lat="35.086958" lon="-85.114021"><ele>299.3</ele><time>2026-07-25T20:56:53Z</time></trkpt>
<trkpt lat="35.086963" lon="-85.114069"><ele>299.9</ele><time>2026-07-25T20:56:56Z</time></trkpt>
<trkpt lat="35.086953" lon="-85.114113"><ele>299.9</ele><time>2026-07-25T20:56:59Z</time></trkpt>
<trkpt lat="35.086934" lon="-85.114154"><ele>299.0</ele><time>2026-07-25T20:57:02Z</time></trkpt>
<trkpt lat="35.086922" lon="-85.114185"><ele>299.3</ele><time>2026-07-25T20:57:04Z</time></trkpt>
<trkpt lat="35.086893" lon="-85.114217"><ele>300.2</ele><time>2026-07-25T20:57:07Z</time></trkpt>
<trkpt lat="35.086871" lon="-85.114253"><ele>299.0</ele><time>2026-07-25T20:57:10Z</time></trkpt>
<trkpt lat="35.086853" lon="-85.114295"><ele>299.6</ele><time>2026-07-25T20:57:13Z</time></trkpt>
<trkpt lat="35.086831" lon="-85.114334"><ele>300.2</ele><time>2026-07-25T20:57:16Z</time></trkpt>
<trkpt lat="35.086796" lon="-85.114357"><ele>299.0</ele><time>2026-07-25T20:57:19Z</time></trkpt>
<trkpt lat="35.086766" lon="-85.114388"><ele>300.2</ele><time>2026-07-25T20:57:22Z</time></trkpt>
<trkpt lat="35.086742" lon="-85.114423"><ele>300.5</ele><time>2026-07-25T20:57:25Z</time></trkpt>
<trkpt lat="35.086721" lon="-85.11446"><ele>302.1</ele><time>2026-07-25T20:57:28Z</time></trkpt>
<trkpt lat="35.086709" lon="-85.114491"><ele>301.1</ele><time>2026-07-25T20:57:30Z</time></trkpt>
<trkpt lat="35.086686" lon="-85.114531"><ele>301.4</ele><time>2026-07-25T20:57:33Z</time></trkpt>
<trkpt lat="35.086665" lon="-85.114557"><ele>302.1</ele><time>2026-07-25T20:57:35Z</time></trkpt>
<trkpt lat="35.086644" lon="-85.114579"><ele>301.1</ele><time>2026-07-25T20:57:37Z</time></trkpt>
<trkpt lat="35.086628" lon="-85.114606"><ele>299.9</ele><time>2026-07-25T20:57:39Z</time></trkpt>
<trkpt lat="35.086612" lon="-85.114634"><ele>299.9</ele><time>2026-07-25T20:57:41Z</time></trkpt>
<trkpt lat="35.086579" lon="-85.114664"><ele>300.2</ele><time>2026-07-25T20:57:44Z</time></trkpt>
<trkpt lat="35.086551" lon="-85.114691"><ele>298.4</ele><time>2026-07-25T20:57:47Z</time></trkpt>
<trkpt lat="35.086518" lon="-85.114718"><ele>298.7</ele><time>2026-07-25T20:57:50Z</time></trkpt>
<trkpt lat="35.086495" lon="-85.11474"><ele>298.7</ele><time>2026-07-25T20:57:52Z</time></trkpt>
<trkpt lat="35.08647" lon="-85.114759"><ele>298.4</ele><time>2026-07-25T20:57:54Z</time></trkpt>
<trkpt lat="35.086435" lon="-85.114785"><ele>299.6</ele><time>2026-07-25T20:57:57Z</time></trkpt>
<trkpt lat="35.086407" lon="-85.114817"><ele>299.3</ele><time>2026-07-25T20:58:00Z</time></trkpt>
<trkpt lat="35.086386" lon="-85.114856"><ele>298.4</ele><time>2026-07-25T20:58:03Z</time></trkpt>
<trkpt lat="35.086376" lon="-85.114889"><ele>297.5</ele><time>2026-07-25T20:58:05Z</time></trkpt>
<trkpt lat="35.086377" lon="-85.114938"><ele>296.6</ele><time>2026-07-25T20:58:08Z</time></trkpt>
<trkpt lat="35.086383" lon="-85.114971"><ele>296.6</ele><time>2026-07-25T20:58:10Z</time></trkpt>
<trkpt lat="35.086399" lon="-85.114999"><ele>296.3</ele><time>2026-07-25T20:58:12Z</time></trkpt>
<trkpt lat="35.086412" lon="-85.115048"><ele>296.9</ele><time>2026-07-25T20:58:15Z</time></trkpt>
<trkpt lat="35.086417" lon="-85.115082"><ele>296.6</ele><time>2026-07-25T20:58:17Z</time></trkpt>
<trkpt lat="35.086416" lon="-85.115118"><ele>296.6</ele><time>2026-07-25T20:58:19Z</time></trkpt>
<trkpt lat="35.086404" lon="-85.11515"><ele>296.3</ele><time>2026-07-25T20:58:21Z</time></trkpt>
<trkpt lat="35.086371" lon="-85.115181"><ele>295.7</ele><time>2026-07-25T20:58:24Z</time></trkpt>
<trkpt lat="35.086344" lon="-85.115195"><ele>296.0</ele><time>2026-07-25T20:58:26Z</time></trkpt>
<trkpt lat="35.086316" lon="-85.115199"><ele>295.4</ele><time>2026-07-25T20:58:28Z</time></trkpt>
<trkpt lat="35.086287" lon="-85.115193"><ele>296.0</ele><time>2026-07-25T20:58:30Z</time></trkpt>
<trkpt lat="35.086256" lon="-85.115166"><ele>296.6</ele><time>2026-07-25T20:58:33Z</time></trkpt>
<trkpt lat="35.08623" lon="-85.115133"><ele>298.4</ele><time>2026-07-25T20:58:36Z</time></trkpt>
<trkpt lat="35.086213" lon="-85.115088"><ele>299.0</ele><time>2026-07-25T20:58:39Z</time></trkpt>
<trkpt lat="35.086201" lon="-85.115041"><ele>300.2</ele><time>2026-07-25T20:58:42Z</time></trkpt>
<trkpt lat="35.0862" lon="-85.115007"><ele>299.0</ele><time>2026-07-25T20:58:44Z</time></trkpt>
<trkpt lat="35.086214" lon="-85.114964"><ele>298.7</ele><time>2026-07-25T20:58:47Z</time></trkpt>
<trkpt lat="35.08624" lon="-85.114933"><ele>296.6</ele><time>2026-07-25T20:58:50Z</time></trkpt>
<trkpt lat="35.086264" lon="-85.114897"><ele>296.6</ele><time>2026-07-25T20:58:53Z</time></trkpt>
<trkpt lat="35.086284" lon="-85.114856"><ele>294.7</ele><time>2026-07-25T20:58:56Z</time></trkpt>
<trkpt lat="35.086302" lon="-85.114816"><ele>294.4</ele><time>2026-07-25T20:58:59Z</time></trkpt>
<trkpt lat="35.086311" lon="-85.114773"><ele>295.7</ele><time>2026-07-25T20:59:02Z</time></trkpt>
<trkpt lat="35.086319" lon="-85.114725"><ele>295.0</ele><time>2026-07-25T20:59:05Z</time></trkpt>
<trkpt lat="35.086316" lon="-85.114681"><ele>295.4</ele><time>2026-07-25T20:59:08Z</time></trkpt>
<trkpt lat="35.086298" lon="-85.114641"><ele>295.7</ele><time>2026-07-25T20:59:11Z</time></trkpt>
<trkpt lat="35.086272" lon="-85.114621"><ele>295.0</ele><time>2026-07-25T20:59:13Z</time></trkpt>
<trkpt lat="35.086247" lon="-85.114602"><ele>295.4</ele><time>2026-07-25T20:59:15Z</time></trkpt>
<trkpt lat="35.086224" lon="-85.11458"><ele>296.0</ele><time>2026-07-25T20:59:17Z</time></trkpt>
<trkpt lat="35.086196" lon="-85.114558"><ele>295.7</ele><time>2026-07-25T20:59:19Z</time></trkpt>
<trkpt lat="35.086173" lon="-85.114532"><ele>296.0</ele><time>2026-07-25T20:59:21Z</time></trkpt>
<trkpt lat="35.086148" lon="-85.11451"><ele>296.6</ele><time>2026-07-25T20:59:23Z</time></trkpt>
<trkpt lat="35.086118" lon="-85.114494"><ele>297.5</ele><time>2026-07-25T20:59:25Z</time></trkpt>
<trkpt lat="35.086088" lon="-85.114489"><ele>298.1</ele><time>2026-07-25T20:59:27Z</time></trkpt>
<trkpt lat="35.086056" lon="-85.114491"><ele>299.6</ele><time>2026-07-25T20:59:29Z</time></trkpt>
<trkpt lat="35.086026" lon="-85.114496"><ele>300.8</ele><time>2026-07-25T20:59:31Z</time></trkpt>
<trkpt lat="35.085998" lon="-85.114502"><ele>301.1</ele><time>2026-07-25T20:59:33Z</time></trkpt>
<trkpt lat="35.085967" lon="-85.114513"><ele>300.8</ele><time>2026-07-25T20:59:35Z</time></trkpt>
<trkpt lat="35.085938" lon="-85.114524"><ele>301.8</ele><time>2026-07-25T20:59:37Z</time></trkpt>
<trkpt lat="35.085906" lon="-85.114525"><ele>303.0</ele><time>2026-07-25T20:59:39Z</time></trkpt>
<trkpt lat="35.085878" lon="-85.114524"><ele>303.0</ele><time>2026-07-25T20:59:41Z</time></trkpt>
<trkpt lat="35.085849" lon="-85.114516"><ele>303.9</ele><time>2026-07-25T20:59:43Z</time></trkpt>
<trkpt lat="35.085821" lon="-85.114517"><ele>304.2</ele><time>2026-07-25T20:59:45Z</time></trkpt>
<trkpt lat="35.085783" lon="-85.114533"><ele>305.4</ele><time>2026-07-25T20:59:48Z</time></trkpt>
<trkpt lat="35.085769" lon="-85.114567"><ele>303.6</ele><time>2026-07-25T20:59:50Z</time></trkpt>
<trkpt lat="35.085751" lon="-85.114594"><ele>303.3</ele><time>2026-07-25T20:59:52Z</time></trkpt>
<trkpt lat="35.085734" lon="-85.114625"><ele>303.6</ele><time>2026-07-25T20:59:54Z</time></trkpt>
<trkpt lat="35.085714" lon="-85.114653"><ele>303.3</ele><time>2026-07-25T20:59:56Z</time></trkpt>
<trkpt lat="35.085693" lon="-85.114683"><ele>302.7</ele><time>2026-07-25T20:59:58Z</time></trkpt>
<trkpt lat="35.085675" lon="-85.114711"><ele>302.4</ele><time>2026-07-25T21:00:00Z</time></trkpt>
<trkpt lat="35.085664" lon="-85.114721"><ele>302.7</ele><time>2026-07-25T21:00:01Z</time></trkpt>
<trkpt lat="35.085663" lon="-85.114721"><ele>302.7</ele><time>2026-07-25T21:00:02Z</time></trkpt>
<trkpt lat="35.085663" lon="-85.114719"><ele>303.3</ele><time>2026-07-25T21:01:05Z</time></trkpt>
<trkpt lat="35.08566" lon="-85.114721"><ele>303.3</ele><time>2026-07-25T21:01:06Z</time></trkpt>
<trkpt lat="35.085625" lon="-85.114744"><ele>303.6</ele><time>2026-07-25T21:01:09Z</time></trkpt>
<trkpt lat="35.085588" lon="-85.114767"><ele>303.0</ele><time>2026-07-25T21:01:12Z</time></trkpt>
<trkpt lat="35.085577" lon="-85.114806"><ele>303.3</ele><time>2026-07-25T21:01:14Z</time></trkpt>
<trkpt lat="35.085602" lon="-85.114847"><ele>302.7</ele><time>2026-07-25T21:01:16Z</time></trkpt>
<trkpt lat="35.085636" lon="-85.114871"><ele>301.8</ele><time>2026-07-25T21:01:18Z</time></trkpt>
<trkpt lat="35.085675" lon="-85.114882"><ele>299.3</ele><time>2026-07-25T21:01:20Z</time></trkpt>
<trkpt lat="35.085709" lon="-85.114884"><ele>299.3</ele><time>2026-07-25T21:01:22Z</time></trkpt>
<trkpt lat="35.085741" lon="-85.114878"><ele>297.8</ele><time>2026-07-25T21:01:24Z</time></trkpt>
<trkpt lat="35.085771" lon="-85.114878"><ele>296.6</ele><time>2026-07-25T21:01:26Z</time></trkpt>
<trkpt lat="35.085801" lon="-85.11488"><ele>295.0</ele><time>2026-07-25T21:01:28Z</time></trkpt>
<trkpt lat="35.08583" lon="-85.114876"><ele>295.4</ele><time>2026-07-25T21:01:30Z</time></trkpt>
<trkpt lat="35.085859" lon="-85.114871"><ele>296.0</ele><time>2026-07-25T21:01:32Z</time></trkpt>
<trkpt lat="35.085888" lon="-85.114864"><ele>295.4</ele><time>2026-07-25T21:01:34Z</time></trkpt>
<trkpt lat="35.085925" lon="-85.114877"><ele>296.9</ele><time>2026-07-25T21:01:36Z</time></trkpt>
<trkpt lat="35.085945" lon="-85.114935"><ele>297.8</ele><time>2026-07-25T21:01:38Z</time></trkpt>
<trkpt lat="35.085929" lon="-85.114968"><ele>295.0</ele><time>2026-07-25T21:01:40Z</time></trkpt>
<trkpt lat="35.085901" lon="-85.114985"><ele>292.9</ele><time>2026-07-25T21:01:42Z</time></trkpt>
<trkpt lat="35.085875" lon="-85.115007"><ele>291.4</ele><time>2026-07-25T21:01:44Z</time></trkpt>
<trkpt lat="35.085847" lon="-85.115022"><ele>290.8</ele><time>2026-07-25T21:01:46Z</time></trkpt>
<trkpt lat="35.085817" lon="-85.115033"><ele>292.0</ele><time>2026-07-25T21:01:48Z</time></trkpt>
<trkpt lat="35.08579" lon="-85.115045"><ele>291.4</ele><time>2026-07-25T21:01:50Z</time></trkpt>
<trkpt lat="35.085763" lon="-85.11506"><ele>291.1</ele><time>2026-07-25T21:01:52Z</time></trkpt>
<trkpt lat="35.085739" lon="-85.115081"><ele>291.7</ele><time>2026-07-25T21:01:54Z</time></trkpt>
<trkpt lat="35.085711" lon="-85.115094"><ele>292.3</ele><time>2026-07-25T21:01:56Z</time></trkpt>
<trkpt lat="35.085689" lon="-85.115121"><ele>291.4</ele><time>2026-07-25T21:01:58Z</time></trkpt>
<trkpt lat="35.085664" lon="-85.115159"><ele>290.2</ele><time>2026-07-25T21:02:01Z</time></trkpt>
<trkpt lat="35.085633" lon="-85.115191"><ele>291.4</ele><time>2026-07-25T21:02:04Z</time></trkpt>
<trkpt lat="35.085625" lon="-85.115224"><ele>291.4</ele><time>2026-07-25T21:02:06Z</time></trkpt>
<trkpt lat="35.085637" lon="-85.115261"><ele>290.2</ele><time>2026-07-25T21:02:08Z</time></trkpt>
<trkpt lat="35.085648" lon="-85.115297"><ele>290.5</ele><time>2026-07-25T21:02:10Z</time></trkpt>
<trkpt lat="35.085674" lon="-85.115322"><ele>292.0</ele><time>2026-07-25T21:02:12Z</time></trkpt>
<trkpt lat="35.085696" lon="-85.115349"><ele>291.7</ele><time>2026-07-25T21:02:14Z</time></trkpt>
<trkpt lat="35.085698" lon="-85.115383"><ele>292.0</ele><time>2026-07-25T21:02:16Z</time></trkpt>
<trkpt lat="35.085693" lon="-85.115426"><ele>290.8</ele><time>2026-07-25T21:02:19Z</time></trkpt>
<trkpt lat="35.085696" lon="-85.115463"><ele>291.7</ele><time>2026-07-25T21:02:21Z</time></trkpt>
<trkpt lat="35.085696" lon="-85.115503"><ele>291.7</ele><time>2026-07-25T21:02:23Z</time></trkpt>
<trkpt lat="35.085675" lon="-85.115532"><ele>289.3</ele><time>2026-07-25T21:02:26Z</time></trkpt>
<trkpt lat="35.085678" lon="-85.115576"><ele>290.8</ele><time>2026-07-25T21:02:30Z</time></trkpt>
<trkpt lat="35.085675" lon="-85.115587"><ele>291.4</ele><time>2026-07-25T21:02:31Z</time></trkpt>
<trkpt lat="35.085673" lon="-85.115585"><ele>291.1</ele><time>2026-07-25T21:02:32Z</time></trkpt>
<trkpt lat="35.085673" lon="-85.115584"><ele>291.1</ele><time>2026-07-25T21:02:33Z</time></trkpt>
<trkpt lat="35.085674" lon="-85.115587"><ele>291.1</ele><time>2026-07-25T21:02:34Z</time></trkpt>
<trkpt lat="35.085673" lon="-85.115585"><ele>291.1</ele><time>2026-07-25T21:02:35Z</time></trkpt>
<trkpt lat="35.085674" lon="-85.115585"><ele>291.1</ele><time>2026-07-25T21:02:37Z</time></trkpt>
<trkpt lat="35.085678" lon="-85.115595"><ele>290.5</ele><time>2026-07-25T21:02:38Z</time></trkpt>
<trkpt lat="35.0857" lon="-85.115636"><ele>288.6</ele><time>2026-07-25T21:02:41Z</time></trkpt>
<trkpt lat="35.085723" lon="-85.115676"><ele>287.4</ele><time>2026-07-25T21:02:44Z</time></trkpt>
<trkpt lat="35.085751" lon="-85.115712"><ele>285.9</ele><time>2026-07-25T21:02:47Z</time></trkpt>
<trkpt lat="35.085773" lon="-85.115738"><ele>285.6</ele><time>2026-07-25T21:02:49Z</time></trkpt>
<trkpt lat="35.085789" lon="-85.115766"><ele>285.6</ele><time>2026-07-25T21:02:51Z</time></trkpt>
<trkpt lat="35.085809" lon="-85.115793"><ele>285.3</ele><time>2026-07-25T21:02:53Z</time></trkpt>
<trkpt lat="35.085824" lon="-85.115823"><ele>285.0</ele><time>2026-07-25T21:02:55Z</time></trkpt>
<trkpt lat="35.085835" lon="-85.115868"><ele>284.7</ele><time>2026-07-25T21:02:58Z</time></trkpt>
<trkpt lat="35.085832" lon="-85.115914"><ele>283.8</ele><time>2026-07-25T21:03:01Z</time></trkpt>
<trkpt lat="35.085829" lon="-85.115952"><ele>282.2</ele><time>2026-07-25T21:03:04Z</time></trkpt>
<trkpt lat="35.085837" lon="-85.115995"><ele>282.5</ele><time>2026-07-25T21:03:07Z</time></trkpt>
<trkpt lat="35.08584" lon="-85.116038"><ele>282.2</ele><time>2026-07-25T21:03:10Z</time></trkpt>
<trkpt lat="35.085841" lon="-85.116081"><ele>282.5</ele><time>2026-07-25T21:03:13Z</time></trkpt>
<trkpt lat="35.085845" lon="-85.116122"><ele>281.9</ele><time>2026-07-25T21:03:16Z</time></trkpt>
<trkpt lat="35.08584" lon="-85.116158"><ele>281.9</ele><time>2026-07-25T21:03:19Z</time></trkpt>
<trkpt lat="35.085841" lon="-85.116198"><ele>281.0</ele><time>2026-07-25T21:03:22Z</time></trkpt>
<trkpt lat="35.085846" lon="-85.116239"><ele>281.3</ele><time>2026-07-25T21:03:25Z</time></trkpt>
<trkpt lat="35.085847" lon="-85.116284"><ele>281.3</ele><time>2026-07-25T21:03:28Z</time></trkpt>
<trkpt lat="35.085845" lon="-85.116331"><ele>281.0</ele><time>2026-07-25T21:03:31Z</time></trkpt>
<trkpt lat="35.08583" lon="-85.116377"><ele>280.7</ele><time>2026-07-25T21:03:34Z</time></trkpt>
<trkpt lat="35.085816" lon="-85.116407"><ele>281.0</ele><time>2026-07-25T21:03:36Z</time></trkpt>
<trkpt lat="35.085806" lon="-85.11644"><ele>281.9</ele><time>2026-07-25T21:03:38Z</time></trkpt>
<trkpt lat="35.085787" lon="-85.116479"><ele>280.1</ele><time>2026-07-25T21:03:41Z</time></trkpt>
<trkpt lat="35.085768" lon="-85.116516"><ele>278.6</ele><time>2026-07-25T21:03:44Z</time></trkpt>
<trkpt lat="35.085746" lon="-85.116553"><ele>278.9</ele><time>2026-07-25T21:03:47Z</time></trkpt>
<trkpt lat="35.085715" lon="-85.116586"><ele>279.8</ele><time>2026-07-25T21:03:50Z</time></trkpt>
<trkpt lat="35.085695" lon="-85.116609"><ele>278.9</ele><time>2026-07-25T21:03:52Z</time></trkpt>
<trkpt lat="35.085672" lon="-85.11663"><ele>278.3</ele><time>2026-07-25T21:03:54Z</time></trkpt>
<trkpt lat="35.085652" lon="-85.116653"><ele>278.6</ele><time>2026-07-25T21:03:56Z</time></trkpt>
<trkpt lat="35.085623" lon="-85.116682"><ele>278.3</ele><time>2026-07-25T21:03:59Z</time></trkpt>
<trkpt lat="35.085589" lon="-85.116705"><ele>277.1</ele><time>2026-07-25T21:04:02Z</time></trkpt>
<trkpt lat="35.08556" lon="-85.116702"><ele>280.7</ele><time>2026-07-25T21:04:04Z</time></trkpt>
<trkpt lat="35.085531" lon="-85.116696"><ele>281.9</ele><time>2026-07-25T21:04:06Z</time></trkpt>
<trkpt lat="35.085504" lon="-85.116685"><ele>281.3</ele><time>2026-07-25T21:04:08Z</time></trkpt>
<trkpt lat="35.085464" lon="-85.116672"><ele>281.3</ele><time>2026-07-25T21:04:11Z</time></trkpt>
<trkpt lat="35.085436" lon="-85.116669"><ele>280.4</ele><time>2026-07-25T21:04:13Z</time></trkpt>
<trkpt lat="35.085408" lon="-85.11667"><ele>280.4</ele><time>2026-07-25T21:04:15Z</time></trkpt>
<trkpt lat="35.08538" lon="-85.116674"><ele>280.7</ele><time>2026-07-25T21:04:17Z</time></trkpt>
<trkpt lat="35.085344" lon="-85.116691"><ele>281.0</ele><time>2026-07-25T21:04:20Z</time></trkpt>
<trkpt lat="35.085323" lon="-85.116714"><ele>280.1</ele><time>2026-07-25T21:04:22Z</time></trkpt>
<trkpt lat="35.085303" lon="-85.116739"><ele>280.4</ele><time>2026-07-25T21:04:24Z</time></trkpt>
<trkpt lat="35.085279" lon="-85.116759"><ele>280.1</ele><time>2026-07-25T21:04:26Z</time></trkpt>
<trkpt lat="35.085243" lon="-85.116784"><ele>279.5</ele><time>2026-07-25T21:04:29Z</time></trkpt>
<trkpt lat="35.085206" lon="-85.116801"><ele>279.5</ele><time>2026-07-25T21:04:32Z</time></trkpt>
<trkpt lat="35.085172" lon="-85.11682"><ele>277.7</ele><time>2026-07-25T21:04:35Z</time></trkpt>
<trkpt lat="35.085136" lon="-85.116844"><ele>277.7</ele><time>2026-07-25T21:04:38Z</time></trkpt>
<trkpt lat="35.085113" lon="-85.116863"><ele>276.8</ele><time>2026-07-25T21:04:40Z</time></trkpt>
<trkpt lat="35.085084" lon="-85.116886"><ele>275.8</ele><time>2026-07-25T21:04:43Z</time></trkpt>
<trkpt lat="35.085052" lon="-85.116898"><ele>275.2</ele><time>2026-07-25T21:04:46Z</time></trkpt>
<trkpt lat="35.085012" lon="-85.1169"><ele>275.2</ele><time>2026-07-25T21:04:49Z</time></trkpt>
<trkpt lat="35.084986" lon="-85.116893"><ele>277.7</ele><time>2026-07-25T21:04:51Z</time></trkpt>
<trkpt lat="35.084956" lon="-85.116886"><ele>278.3</ele><time>2026-07-25T21:04:53Z</time></trkpt>
<trkpt lat="35.084927" lon="-85.116893"><ele>278.9</ele><time>2026-07-25T21:04:55Z</time></trkpt>
<trkpt lat="35.084901" lon="-85.11691"><ele>279.2</ele><time>2026-07-25T21:04:57Z</time></trkpt>
<trkpt lat="35.084862" lon="-85.116932"><ele>279.8</ele><time>2026-07-25T21:05:00Z</time></trkpt>
<trkpt lat="35.084837" lon="-85.116951"><ele>278.6</ele><time>2026-07-25T21:05:02Z</time></trkpt>
<trkpt lat="35.084815" lon="-85.116975"><ele>277.7</ele><time>2026-07-25T21:05:04Z</time></trkpt>
<trkpt lat="35.084791" lon="-85.116996"><ele>276.8</ele><time>2026-07-25T21:05:06Z</time></trkpt>
<trkpt lat="35.084766" lon="-85.117013"><ele>276.8</ele><time>2026-07-25T21:05:08Z</time></trkpt>
<trkpt lat="35.084739" lon="-85.11702"><ele>277.1</ele><time>2026-07-25T21:05:10Z</time></trkpt>
<trkpt lat="35.084698" lon="-85.11702"><ele>276.5</ele><time>2026-07-25T21:05:13Z</time></trkpt>
<trkpt lat="35.084668" lon="-85.117019"><ele>276.1</ele><time>2026-07-25T21:05:15Z</time></trkpt>
<trkpt lat="35.08463" lon="-85.117014"><ele>276.5</ele><time>2026-07-25T21:05:18Z</time></trkpt>
<trkpt lat="35.08459" lon="-85.117013"><ele>276.8</ele><time>2026-07-25T21:05:21Z</time></trkpt>
<trkpt lat="35.084562" lon="-85.117016"><ele>277.1</ele><time>2026-07-25T21:05:23Z</time></trkpt>
<trkpt lat="35.084534" lon="-85.117016"><ele>277.4</ele><time>2026-07-25T21:05:25Z</time></trkpt>
<trkpt lat="35.084506" lon="-85.117021"><ele>277.7</ele><time>2026-07-25T21:05:27Z</time></trkpt>
<trkpt lat="35.084468" lon="-85.117026"><ele>279.8</ele><time>2026-07-25T21:05:29Z</time></trkpt>
<trkpt lat="35.084437" lon="-85.117041"><ele>279.8</ele><time>2026-07-25T21:05:31Z</time></trkpt>
<trkpt lat="35.084417" lon="-85.117071"><ele>278.9</ele><time>2026-07-25T21:05:33Z</time></trkpt>
<trkpt lat="35.084385" lon="-85.117102"><ele>276.8</ele><time>2026-07-25T21:05:36Z</time></trkpt>
<trkpt lat="35.084353" lon="-85.11713"><ele>273.4</ele><time>2026-07-25T21:05:39Z</time></trkpt>
<trkpt lat="35.084325" lon="-85.117153"><ele>274.6</ele><time>2026-07-25T21:05:41Z</time></trkpt>
<trkpt lat="35.084297" lon="-85.117168"><ele>273.7</ele><time>2026-07-25T21:05:43Z</time></trkpt>
<trkpt lat="35.084266" lon="-85.117196"><ele>275.2</ele><time>2026-07-25T21:05:46Z</time></trkpt>
<trkpt lat="35.084228" lon="-85.117206"><ele>275.2</ele><time>2026-07-25T21:05:49Z</time></trkpt>
<trkpt lat="35.084193" lon="-85.117199"><ele>275.2</ele><time>2026-07-25T21:05:52Z</time></trkpt>
<trkpt lat="35.084159" lon="-85.117196"><ele>275.8</ele><time>2026-07-25T21:05:55Z</time></trkpt>
<trkpt lat="35.084127" lon="-85.117202"><ele>275.8</ele><time>2026-07-25T21:05:58Z</time></trkpt>
<trkpt lat="35.084099" lon="-85.117213"><ele>276.1</ele><time>2026-07-25T21:06:00Z</time></trkpt>
<trkpt lat="35.084071" lon="-85.117224"><ele>277.1</ele><time>2026-07-25T21:06:02Z</time></trkpt>
<trkpt lat="35.084046" lon="-85.117239"><ele>278.9</ele><time>2026-07-25T21:06:04Z</time></trkpt>
<trkpt lat="35.08402" lon="-85.117256"><ele>280.7</ele><time>2026-07-25T21:06:06Z</time></trkpt>
<trkpt lat="35.083985" lon="-85.117283"><ele>281.0</ele><time>2026-07-25T21:06:09Z</time></trkpt>
<trkpt lat="35.083967" lon="-85.117309"><ele>280.7</ele><time>2026-07-25T21:06:11Z</time></trkpt>
<trkpt lat="35.083947" lon="-85.117349"><ele>279.5</ele><time>2026-07-25T21:06:14Z</time></trkpt>
<trkpt lat="35.083934" lon="-85.11738"><ele>278.6</ele><time>2026-07-25T21:06:16Z</time></trkpt>
<trkpt lat="35.083923" lon="-85.117411"><ele>276.5</ele><time>2026-07-25T21:06:18Z</time></trkpt>
<trkpt lat="35.083902" lon="-85.117435"><ele>276.5</ele><time>2026-07-25T21:06:20Z</time></trkpt>
<trkpt lat="35.08387" lon="-85.117458"><ele>274.6</ele><time>2026-07-25T21:06:23Z</time></trkpt>
<trkpt lat="35.08383" lon="-85.11746"><ele>273.1</ele><time>2026-07-25T21:06:26Z</time></trkpt>
<trkpt lat="35.083791" lon="-85.117462"><ele>272.5</ele><time>2026-07-25T21:06:29Z</time></trkpt>
<trkpt lat="35.08376" lon="-85.117457"><ele>272.8</ele><time>2026-07-25T21:06:31Z</time></trkpt>
<trkpt lat="35.08373" lon="-85.117457"><ele>273.1</ele><time>2026-07-25T21:06:33Z</time></trkpt>
<trkpt lat="35.083691" lon="-85.117458"><ele>271.0</ele><time>2026-07-25T21:06:36Z</time></trkpt>
<trkpt lat="35.083651" lon="-85.117451"><ele>271.9</ele><time>2026-07-25T21:06:39Z</time></trkpt>
<trkpt lat="35.083624" lon="-85.117458"><ele>271.9</ele><time>2026-07-25T21:06:41Z</time></trkpt>
<trkpt lat="35.083589" lon="-85.117482"><ele>273.1</ele><time>2026-07-25T21:06:44Z</time></trkpt>
<trkpt lat="35.083561" lon="-85.117512"><ele>273.7</ele><time>2026-07-25T21:06:47Z</time></trkpt>
<trkpt lat="35.08354" lon="-85.117533"><ele>274.0</ele><time>2026-07-25T21:06:49Z</time></trkpt>
<trkpt lat="35.083506" lon="-85.117552"><ele>275.2</ele><time>2026-07-25T21:06:52Z</time></trkpt>
<trkpt lat="35.083477" lon="-85.117546"><ele>275.2</ele><time>2026-07-25T21:06:54Z</time></trkpt>
<trkpt lat="35.083448" lon="-85.117545"><ele>275.8</ele><time>2026-07-25T21:06:56Z</time></trkpt>
<trkpt lat="35.083421" lon="-85.117551"><ele>274.9</ele><time>2026-07-25T21:06:58Z</time></trkpt>
<trkpt lat="35.083394" lon="-85.117564"><ele>275.5</ele><time>2026-07-25T21:07:00Z</time></trkpt>
<trkpt lat="35.083365" lon="-85.117574"><ele>276.1</ele><time>2026-07-25T21:07:02Z</time></trkpt>
<trkpt lat="35.083335" lon="-85.117588"><ele>277.1</ele><time>2026-07-25T21:07:04Z</time></trkpt>
<trkpt lat="35.083316" lon="-85.117617"><ele>277.1</ele><time>2026-07-25T21:07:06Z</time></trkpt>
<trkpt lat="35.083302" lon="-85.117647"><ele>275.2</ele><time>2026-07-25T21:07:08Z</time></trkpt>
<trkpt lat="35.083286" lon="-85.117677"><ele>275.2</ele><time>2026-07-25T21:07:10Z</time></trkpt>
<trkpt lat="35.083272" lon="-85.117708"><ele>276.1</ele><time>2026-07-25T21:07:12Z</time></trkpt>
<trkpt lat="35.083259" lon="-85.11774"><ele>275.2</ele><time>2026-07-25T21:07:14Z</time></trkpt>
<trkpt lat="35.083236" lon="-85.117764"><ele>276.5</ele><time>2026-07-25T21:07:16Z</time></trkpt>
<trkpt lat="35.083212" lon="-85.117786"><ele>276.5</ele><time>2026-07-25T21:07:18Z</time></trkpt>
<trkpt lat="35.083189" lon="-85.117804"><ele>275.8</ele><time>2026-07-25T21:07:20Z</time></trkpt>
<trkpt lat="35.083161" lon="-85.117806"><ele>275.8</ele><time>2026-07-25T21:07:22Z</time></trkpt>
<trkpt lat="35.083133" lon="-85.117806"><ele>275.5</ele><time>2026-07-25T21:07:24Z</time></trkpt>
<trkpt lat="35.083093" lon="-85.11779"><ele>273.4</ele><time>2026-07-25T21:07:27Z</time></trkpt>
<trkpt lat="35.083062" lon="-85.11778"><ele>274.0</ele><time>2026-07-25T21:07:29Z</time></trkpt>
<trkpt lat="35.083022" lon="-85.117769"><ele>274.3</ele><time>2026-07-25T21:07:32Z</time></trkpt>
<trkpt lat="35.082983" lon="-85.117769"><ele>274.3</ele><time>2026-07-25T21:07:35Z</time></trkpt>
<trkpt lat="35.082959" lon="-85.117788"><ele>273.7</ele><time>2026-07-25T21:07:37Z</time></trkpt>
<trkpt lat="35.082936" lon="-85.117809"><ele>273.1</ele><time>2026-07-25T21:07:39Z</time></trkpt>
<trkpt lat="35.082914" lon="-85.117832"><ele>273.1</ele><time>2026-07-25T21:07:41Z</time></trkpt>
<trkpt lat="35.082881" lon="-85.11785"><ele>269.4</ele><time>2026-07-25T21:07:44Z</time></trkpt>
<trkpt lat="35.082844" lon="-85.117872"><ele>269.4</ele><time>2026-07-25T21:07:47Z</time></trkpt>
<trkpt lat="35.082817" lon="-85.117884"><ele>271.0</ele><time>2026-07-25T21:07:49Z</time></trkpt>
<trkpt lat="35.082787" lon="-85.117895"><ele>271.6</ele><time>2026-07-25T21:07:51Z</time></trkpt>
<trkpt lat="35.08276" lon="-85.117908"><ele>273.1</ele><time>2026-07-25T21:07:53Z</time></trkpt>
<trkpt lat="35.082736" lon="-85.117929"><ele>273.1</ele><time>2026-07-25T21:07:55Z</time></trkpt>
<trkpt lat="35.082712" lon="-85.117947"><ele>273.1</ele><time>2026-07-25T21:07:57Z</time></trkpt>
<trkpt lat="35.082688" lon="-85.117964"><ele>273.1</ele><time>2026-07-25T21:07:59Z</time></trkpt>
<trkpt lat="35.082664" lon="-85.117983"><ele>273.7</ele><time>2026-07-25T21:08:01Z</time></trkpt>
<trkpt lat="35.08264" lon="-85.118002"><ele>272.8</ele><time>2026-07-25T21:08:03Z</time></trkpt>
<trkpt lat="35.082617" lon="-85.118024"><ele>272.2</ele><time>2026-07-25T21:08:05Z</time></trkpt>
<trkpt lat="35.082596" lon="-85.118049"><ele>272.5</ele><time>2026-07-25T21:08:07Z</time></trkpt>
<trkpt lat="35.082572" lon="-85.118068"><ele>271.9</ele><time>2026-07-25T21:08:09Z</time></trkpt>
<trkpt lat="35.082539" lon="-85.118093"><ele>271.3</ele><time>2026-07-25T21:08:12Z</time></trkpt>
<trkpt lat="35.082503" lon="-85.118112"><ele>271.6</ele><time>2026-07-25T21:08:15Z</time></trkpt>
<trkpt lat="35.082469" lon="-85.118139"><ele>272.8</ele><time>2026-07-25T21:08:18Z</time></trkpt>
<trkpt lat="35.082454" lon="-85.118171"><ele>272.2</ele><time>2026-07-25T21:08:20Z</time></trkpt>
<trkpt lat="35.082439" lon="-85.118199"><ele>272.8</ele><time>2026-07-25T21:08:22Z</time></trkpt>
<trkpt lat="35.082422" lon="-85.118228"><ele>272.8</ele><time>2026-07-25T21:08:24Z</time></trkpt>
<trkpt lat="35.08241" lon="-85.11826"><ele>274.0</ele><time>2026-07-25T21:08:26Z</time></trkpt>
<trkpt lat="35.082391" lon="-85.118287"><ele>274.3</ele><time>2026-07-25T21:08:28Z</time></trkpt>
<trkpt lat="35.082369" lon="-85.118314"><ele>274.0</ele><time>2026-07-25T21:08:30Z</time></trkpt>
<trkpt lat="35.082348" lon="-85.118338"><ele>273.7</ele><time>2026-07-25T21:08:32Z</time></trkpt>
<trkpt lat="35.082313" lon="-85.118365"><ele>274.0</ele><time>2026-07-25T21:08:35Z</time></trkpt>
<trkpt lat="35.082276" lon="-85.118381"><ele>270.7</ele><time>2026-07-25T21:08:38Z</time></trkpt>
<trkpt lat="35.082241" lon="-85.118392"><ele>268.5</ele><time>2026-07-25T21:08:41Z</time></trkpt>
<trkpt lat="35.082219" lon="-85.118412"><ele>268.2</ele><time>2026-07-25T21:08:43Z</time></trkpt>
<trkpt lat="35.082201" lon="-85.118443"><ele>267.9</ele><time>2026-07-25T21:08:45Z</time></trkpt>
<trkpt lat="35.082184" lon="-85.118475"><ele>266.1</ele><time>2026-07-25T21:08:47Z</time></trkpt>
<trkpt lat="35.082164" lon="-85.118506"><ele>266.7</ele><time>2026-07-25T21:08:49Z</time></trkpt>
<trkpt lat="35.082144" lon="-85.118535"><ele>266.4</ele><time>2026-07-25T21:08:51Z</time></trkpt>
<trkpt lat="35.08212" lon="-85.11856"><ele>267.6</ele><time>2026-07-25T21:08:53Z</time></trkpt>
<trkpt lat="35.082096" lon="-85.118582"><ele>267.9</ele><time>2026-07-25T21:08:55Z</time></trkpt>
<trkpt lat="35.082059" lon="-85.118595"><ele>268.2</ele><time>2026-07-25T21:08:58Z</time></trkpt>
<trkpt lat="35.082022" lon="-85.118612"><ele>268.5</ele><time>2026-07-25T21:09:01Z</time></trkpt>
<trkpt lat="35.081989" lon="-85.118641"><ele>269.1</ele><time>2026-07-25T21:09:04Z</time></trkpt>
<trkpt lat="35.081955" lon="-85.118669"><ele>269.4</ele><time>2026-07-25T21:09:07Z</time></trkpt>
<trkpt lat="35.081928" lon="-85.118704"><ele>267.6</ele><time>2026-07-25T21:09:10Z</time></trkpt>
<trkpt lat="35.081905" lon="-85.118743"><ele>268.2</ele><time>2026-07-25T21:09:13Z</time></trkpt>
<trkpt lat="35.081887" lon="-85.118787"><ele>267.0</ele><time>2026-07-25T21:09:16Z</time></trkpt>
<trkpt lat="35.081881" lon="-85.118821"><ele>267.3</ele><time>2026-07-25T21:09:18Z</time></trkpt>
<trkpt lat="35.08187" lon="-85.118853"><ele>267.6</ele><time>2026-07-25T21:09:20Z</time></trkpt>
<trkpt lat="35.08186" lon="-85.118884"><ele>266.7</ele><time>2026-07-25T21:09:22Z</time></trkpt>
<trkpt lat="35.081849" lon="-85.118918"><ele>266.7</ele><time>2026-07-25T21:09:24Z</time></trkpt>
<trkpt lat="35.081824" lon="-85.118954"><ele>268.8</ele><time>2026-07-25T21:09:27Z</time></trkpt>
<trkpt lat="35.081799" lon="-85.118988"><ele>268.8</ele><time>2026-07-25T21:09:30Z</time></trkpt>
<trkpt lat="35.08179" lon="-85.11902"><ele>267.6</ele><time>2026-07-25T21:09:32Z</time></trkpt>
<trkpt lat="35.081776" lon="-85.119067"><ele>267.0</ele><time>2026-07-25T21:09:35Z</time></trkpt>
<trkpt lat="35.081761" lon="-85.119099"><ele>267.9</ele><time>2026-07-25T21:09:37Z</time></trkpt>
<trkpt lat="35.081744" lon="-85.119127"><ele>267.6</ele><time>2026-07-25T21:09:39Z</time></trkpt>
<trkpt lat="35.081723" lon="-85.119149"><ele>267.6</ele><time>2026-07-25T21:09:41Z</time></trkpt>
<trkpt lat="35.081689" lon="-85.119171"><ele>268.2</ele><time>2026-07-25T21:09:44Z</time></trkpt>
<trkpt lat="35.081664" lon="-85.11919"><ele>268.2</ele><time>2026-07-25T21:09:46Z</time></trkpt>
<trkpt lat="35.081644" lon="-85.119215"><ele>268.2</ele><time>2026-07-25T21:09:48Z</time></trkpt>
<trkpt lat="35.081619" lon="-85.119253"><ele>269.1</ele><time>2026-07-25T21:09:51Z</time></trkpt>
<trkpt lat="35.081587" lon="-85.119278"><ele>269.4</ele><time>2026-07-25T21:09:54Z</time></trkpt>
<trkpt lat="35.081566" lon="-85.119305"><ele>268.8</ele><time>2026-07-25T21:09:57Z</time></trkpt>
<trkpt lat="35.081539" lon="-85.119337"><ele>269.4</ele><time>2026-07-25T21:10:00Z</time></trkpt>
<trkpt lat="35.081519" lon="-85.119365"><ele>269.1</ele><time>2026-07-25T21:10:02Z</time></trkpt>
<trkpt lat="35.081485" lon="-85.119395"><ele>268.8</ele><time>2026-07-25T21:10:05Z</time></trkpt>
<trkpt lat="35.08146" lon="-85.119416"><ele>268.5</ele><time>2026-07-25T21:10:07Z</time></trkpt>
<trkpt lat="35.081435" lon="-85.11944"><ele>269.1</ele><time>2026-07-25T21:10:09Z</time></trkpt>
<trkpt lat="35.081404" lon="-85.11947"><ele>269.7</ele><time>2026-07-25T21:10:12Z</time></trkpt>
<trkpt lat="35.081385" lon="-85.119495"><ele>270.4</ele><time>2026-07-25T21:10:14Z</time></trkpt>
<trkpt lat="35.081363" lon="-85.119532"><ele>269.1</ele><time>2026-07-25T21:10:17Z</time></trkpt>
<trkpt lat="35.081346" lon="-85.119577"><ele>267.6</ele><time>2026-07-25T21:10:20Z</time></trkpt>
<trkpt lat="35.081322" lon="-85.119617"><ele>267.9</ele><time>2026-07-25T21:10:23Z</time></trkpt>
<trkpt lat="35.081307" lon="-85.119646"><ele>266.4</ele><time>2026-07-25T21:10:25Z</time></trkpt>
<trkpt lat="35.081286" lon="-85.119671"><ele>266.7</ele><time>2026-07-25T21:10:27Z</time></trkpt>
<trkpt lat="35.081261" lon="-85.119686"><ele>267.9</ele><time>2026-07-25T21:10:29Z</time></trkpt>
<trkpt lat="35.08123" lon="-85.119715"><ele>267.6</ele><time>2026-07-25T21:10:32Z</time></trkpt>
<trkpt lat="35.081199" lon="-85.119748"><ele>266.7</ele><time>2026-07-25T21:10:35Z</time></trkpt>
<trkpt lat="35.081177" lon="-85.119774"><ele>265.8</ele><time>2026-07-25T21:10:37Z</time></trkpt>
<trkpt lat="35.081164" lon="-85.119816"><ele>264.3</ele><time>2026-07-25T21:10:40Z</time></trkpt>
<trkpt lat="35.081134" lon="-85.119838"><ele>262.7</ele><time>2026-07-25T21:10:43Z</time></trkpt>
<trkpt lat="35.081107" lon="-85.119849"><ele>262.4</ele><time>2026-07-25T21:10:45Z</time></trkpt>
<trkpt lat="35.08108" lon="-85.119853"><ele>262.1</ele><time>2026-07-25T21:10:47Z</time></trkpt>
<trkpt lat="35.081051" lon="-85.119867"><ele>260.0</ele><time>2026-07-25T21:10:50Z</time></trkpt>
<trkpt lat="35.081026" lon="-85.119906"><ele>260.3</ele><time>2026-07-25T21:10:53Z</time></trkpt>
<trkpt lat="35.081011" lon="-85.119948"><ele>260.9</ele><time>2026-07-25T21:10:56Z</time></trkpt>
<trkpt lat="35.080999" lon="-85.119981"><ele>259.4</ele><time>2026-07-25T21:10:58Z</time></trkpt>
<trkpt lat="35.080983" lon="-85.120013"><ele>259.1</ele><time>2026-07-25T21:11:00Z</time></trkpt>
<trkpt lat="35.080962" lon="-85.120043"><ele>258.8</ele><time>2026-07-25T21:11:02Z</time></trkpt>
<trkpt lat="35.080942" lon="-85.120071"><ele>260.3</ele><time>2026-07-25T21:11:04Z</time></trkpt>
<trkpt lat="35.080914" lon="-85.120098"><ele>260.0</ele><time>2026-07-25T21:11:07Z</time></trkpt>
<trkpt lat="35.080889" lon="-85.120136"><ele>259.7</ele><time>2026-07-25T21:11:10Z</time></trkpt>
<trkpt lat="35.08086" lon="-85.120171"><ele>259.4</ele><time>2026-07-25T21:11:13Z</time></trkpt>
<trkpt lat="35.080838" lon="-85.120195"><ele>259.1</ele><time>2026-07-25T21:11:15Z</time></trkpt>
<trkpt lat="35.080814" lon="-85.120217"><ele>260.0</ele><time>2026-07-25T21:11:17Z</time></trkpt>
<trkpt lat="35.080778" lon="-85.120235"><ele>258.8</ele><time>2026-07-25T21:11:20Z</time></trkpt>
<trkpt lat="35.080741" lon="-85.120255"><ele>258.8</ele><time>2026-07-25T21:11:23Z</time></trkpt>
<trkpt lat="35.080715" lon="-85.120273"><ele>259.7</ele><time>2026-07-25T21:11:25Z</time></trkpt>
<trkpt lat="35.08069" lon="-85.120294"><ele>259.4</ele><time>2026-07-25T21:11:27Z</time></trkpt>
<trkpt lat="35.080667" lon="-85.120321"><ele>259.4</ele><time>2026-07-25T21:11:29Z</time></trkpt>
<trkpt lat="35.080641" lon="-85.120348"><ele>260.3</ele><time>2026-07-25T21:11:31Z</time></trkpt>
<trkpt lat="35.080616" lon="-85.120368"><ele>261.5</ele><time>2026-07-25T21:11:33Z</time></trkpt>
<trkpt lat="35.080593" lon="-85.120387"><ele>261.2</ele><time>2026-07-25T21:11:35Z</time></trkpt>
<trkpt lat="35.08057" lon="-85.120406"><ele>260.9</ele><time>2026-07-25T21:11:37Z</time></trkpt>
<trkpt lat="35.080545" lon="-85.120424"><ele>260.3</ele><time>2026-07-25T21:11:39Z</time></trkpt>
<trkpt lat="35.08052" lon="-85.120443"><ele>260.6</ele><time>2026-07-25T21:11:41Z</time></trkpt>
<trkpt lat="35.080504" lon="-85.120472"><ele>260.3</ele><time>2026-07-25T21:11:43Z</time></trkpt>
<trkpt lat="35.08049" lon="-85.120501"><ele>261.2</ele><time>2026-07-25T21:11:45Z</time></trkpt>
<trkpt lat="35.080468" lon="-85.120527"><ele>262.1</ele><time>2026-07-25T21:11:47Z</time></trkpt>
<trkpt lat="35.080445" lon="-85.120555"><ele>262.7</ele><time>2026-07-25T21:11:49Z</time></trkpt>
<trkpt lat="35.080416" lon="-85.120568"><ele>262.7</ele><time>2026-07-25T21:11:51Z</time></trkpt>
<trkpt lat="35.080388" lon="-85.120581"><ele>262.7</ele><time>2026-07-25T21:11:53Z</time></trkpt>
<trkpt lat="35.080355" lon="-85.120612"><ele>263.0</ele><time>2026-07-25T21:11:56Z</time></trkpt>
<trkpt lat="35.080343" lon="-85.120644"><ele>263.3</ele><time>2026-07-25T21:11:58Z</time></trkpt>
<trkpt lat="35.080359" lon="-85.120677"><ele>265.2</ele><time>2026-07-25T21:12:00Z</time></trkpt>
<trkpt lat="35.080382" lon="-85.120709"><ele>265.5</ele><time>2026-07-25T21:12:02Z</time></trkpt>
<trkpt lat="35.0804" lon="-85.120737"><ele>265.2</ele><time>2026-07-25T21:12:04Z</time></trkpt>
<trkpt lat="35.080406" lon="-85.120772"><ele>264.6</ele><time>2026-07-25T21:12:06Z</time></trkpt>
<trkpt lat="35.080411" lon="-85.120807"><ele>265.2</ele><time>2026-07-25T21:12:08Z</time></trkpt>
<trkpt lat="35.080403" lon="-85.120842"><ele>266.7</ele><time>2026-07-25T21:12:10Z</time></trkpt>
<trkpt lat="35.080384" lon="-85.120875"><ele>267.0</ele><time>2026-07-25T21:12:12Z</time></trkpt>
<trkpt lat="35.080356" lon="-85.120901"><ele>266.7</ele><time>2026-07-25T21:12:14Z</time></trkpt>
<trkpt lat="35.080334" lon="-85.120922"><ele>265.8</ele><time>2026-07-25T21:12:16Z</time></trkpt>
<trkpt lat="35.080301" lon="-85.120944"><ele>266.4</ele><time>2026-07-25T21:12:19Z</time></trkpt>
<trkpt lat="35.080278" lon="-85.120963"><ele>266.4</ele><time>2026-07-25T21:12:21Z</time></trkpt>
<trkpt lat="35.08024" lon="-85.120979"><ele>265.5</ele><time>2026-07-25T21:12:24Z</time></trkpt>
<trkpt lat="35.080209" lon="-85.121003"><ele>265.5</ele><time>2026-07-25T21:12:27Z</time></trkpt>
<trkpt lat="35.080175" lon="-85.121026"><ele>265.8</ele><time>2026-07-25T21:12:30Z</time></trkpt>
<trkpt lat="35.080152" lon="-85.121044"><ele>265.8</ele><time>2026-07-25T21:12:32Z</time></trkpt>
<trkpt lat="35.080135" lon="-85.121089"><ele>265.5</ele><time>2026-07-25T21:12:35Z</time></trkpt>
<trkpt lat="35.080123" lon="-85.121119"><ele>265.5</ele><time>2026-07-25T21:12:37Z</time></trkpt>
<trkpt lat="35.080101" lon="-85.121145"><ele>265.2</ele><time>2026-07-25T21:12:39Z</time></trkpt>
<trkpt lat="35.080075" lon="-85.121167"><ele>266.4</ele><time>2026-07-25T21:12:41Z</time></trkpt>
<trkpt lat="35.080049" lon="-85.121186"><ele>265.8</ele><time>2026-07-25T21:12:43Z</time></trkpt>
<trkpt lat="35.080016" lon="-85.121212"><ele>264.0</ele><time>2026-07-25T21:12:46Z</time></trkpt>
<trkpt lat="35.079986" lon="-85.121238"><ele>264.3</ele><time>2026-07-25T21:12:49Z</time></trkpt>
<trkpt lat="35.079965" lon="-85.121262"><ele>264.3</ele><time>2026-07-25T21:12:51Z</time></trkpt>
<trkpt lat="35.079942" lon="-85.121286"><ele>264.6</ele><time>2026-07-25T21:12:53Z</time></trkpt>
<trkpt lat="35.079916" lon="-85.121305"><ele>266.1</ele><time>2026-07-25T21:12:55Z</time></trkpt>
<trkpt lat="35.079892" lon="-85.121323"><ele>266.1</ele><time>2026-07-25T21:12:57Z</time></trkpt>
<trkpt lat="35.079864" lon="-85.121335"><ele>267.6</ele><time>2026-07-25T21:12:59Z</time></trkpt>
<trkpt lat="35.079826" lon="-85.121342"><ele>267.6</ele><time>2026-07-25T21:13:02Z</time></trkpt>
<trkpt lat="35.079798" lon="-85.121349"><ele>267.9</ele><time>2026-07-25T21:13:04Z</time></trkpt>
<trkpt lat="35.07976" lon="-85.121368"><ele>268.2</ele><time>2026-07-25T21:13:07Z</time></trkpt>
<trkpt lat="35.079736" lon="-85.121387"><ele>267.3</ele><time>2026-07-25T21:13:09Z</time></trkpt>
<trkpt lat="35.079704" lon="-85.121414"><ele>266.4</ele><time>2026-07-25T21:13:12Z</time></trkpt>
<trkpt lat="35.07967" lon="-85.121438"><ele>265.8</ele><time>2026-07-25T21:13:15Z</time></trkpt>
<trkpt lat="35.079638" lon="-85.121463"><ele>265.8</ele><time>2026-07-25T21:13:18Z</time></trkpt>
<trkpt lat="35.079606" lon="-85.121486"><ele>265.2</ele><time>2026-07-25T21:13:21Z</time></trkpt>
<trkpt lat="35.079573" lon="-85.121512"><ele>265.2</ele><time>2026-07-25T21:13:24Z</time></trkpt>
<trkpt lat="35.079543" lon="-85.121541"><ele>263.7</ele><time>2026-07-25T21:13:27Z</time></trkpt>
<trkpt lat="35.079522" lon="-85.121563"><ele>264.6</ele><time>2026-07-25T21:13:29Z</time></trkpt>
<trkpt lat="35.079494" lon="-85.121599"><ele>263.0</ele><time>2026-07-25T21:13:32Z</time></trkpt>
<trkpt lat="35.079464" lon="-85.12163"><ele>263.7</ele><time>2026-07-25T21:13:35Z</time></trkpt>
<trkpt lat="35.079444" lon="-85.121653"><ele>264.0</ele><time>2026-07-25T21:13:37Z</time></trkpt>
<trkpt lat="35.079424" lon="-85.121676"><ele>265.2</ele><time>2026-07-25T21:13:39Z</time></trkpt>
<trkpt lat="35.079403" lon="-85.121701"><ele>264.6</ele><time>2026-07-25T21:13:41Z</time></trkpt>
<trkpt lat="35.079384" lon="-85.121727"><ele>265.2</ele><time>2026-07-25T21:13:43Z</time></trkpt>
<trkpt lat="35.079371" lon="-85.121759"><ele>263.7</ele><time>2026-07-25T21:13:45Z</time></trkpt>
<trkpt lat="35.079361" lon="-85.121791"><ele>262.7</ele><time>2026-07-25T21:13:47Z</time></trkpt>
<trkpt lat="35.079353" lon="-85.121827"><ele>262.1</ele><time>2026-07-25T21:13:49Z</time></trkpt>
<trkpt lat="35.079348" lon="-85.121879"><ele>262.4</ele><time>2026-07-25T21:13:52Z</time></trkpt>
<trkpt lat="35.079347" lon="-85.121914"><ele>263.0</ele><time>2026-07-25T21:13:54Z</time></trkpt>
<trkpt lat="35.079347" lon="-85.121951"><ele>262.1</ele><time>2026-07-25T21:13:56Z</time></trkpt>
<trkpt lat="35.079347" lon="-85.121986"><ele>261.8</ele><time>2026-07-25T21:13:58Z</time></trkpt>
<trkpt lat="35.079335" lon="-85.122021"><ele>261.8</ele><time>2026-07-25T21:14:00Z</time></trkpt>
<trkpt lat="35.079325" lon="-85.122055"><ele>261.5</ele><time>2026-07-25T21:14:02Z</time></trkpt>
<trkpt lat="35.079308" lon="-85.122089"><ele>261.8</ele><time>2026-07-25T21:14:04Z</time></trkpt>
<trkpt lat="35.0793" lon="-85.122122"><ele>261.2</ele><time>2026-07-25T21:14:06Z</time></trkpt>
<trkpt lat="35.07929" lon="-85.12217"><ele>260.9</ele><time>2026-07-25T21:14:09Z</time></trkpt>
<trkpt lat="35.079271" lon="-85.122199"><ele>261.8</ele><time>2026-07-25T21:14:11Z</time></trkpt>
<trkpt lat="35.079259" lon="-85.12223"><ele>262.1</ele><time>2026-07-25T21:14:13Z</time></trkpt>
<trkpt lat="35.079247" lon="-85.122263"><ele>261.8</ele><time>2026-07-25T21:14:15Z</time></trkpt>
<trkpt lat="35.079239" lon="-85.122295"><ele>261.8</ele><time>2026-07-25T21:14:17Z</time></trkpt>
<trkpt lat="35.079232" lon="-85.122328"><ele>262.1</ele><time>2026-07-25T21:14:19Z</time></trkpt>
<trkpt lat="35.079224" lon="-85.122375"><ele>260.9</ele><time>2026-07-25T21:14:22Z</time></trkpt>
<trkpt lat="35.079216" lon="-85.122422"><ele>261.8</ele><time>2026-07-25T21:14:25Z</time></trkpt>
<trkpt lat="35.079215" lon="-85.122458"><ele>260.9</ele><time>2026-07-25T21:14:27Z</time></trkpt>
<trkpt lat="35.079212" lon="-85.122496"><ele>261.5</ele><time>2026-07-25T21:14:29Z</time></trkpt>
<trkpt lat="35.079214" lon="-85.122532"><ele>261.5</ele><time>2026-07-25T21:14:31Z</time></trkpt>
<trkpt lat="35.079214" lon="-85.122568"><ele>261.2</ele><time>2026-07-25T21:14:33Z</time></trkpt>
<trkpt lat="35.079219" lon="-85.122603"><ele>262.7</ele><time>2026-07-25T21:14:35Z</time></trkpt>
<trkpt lat="35.079217" lon="-85.122638"><ele>262.7</ele><time>2026-07-25T21:14:37Z</time></trkpt>
<trkpt lat="35.07921" lon="-85.122673"><ele>263.3</ele><time>2026-07-25T21:14:39Z</time></trkpt>
<trkpt lat="35.079209" lon="-85.122709"><ele>263.0</ele><time>2026-07-25T21:14:41Z</time></trkpt>
<trkpt lat="35.079206" lon="-85.122744"><ele>261.5</ele><time>2026-07-25T21:14:43Z</time></trkpt>
<trkpt lat="35.079203" lon="-85.122777"><ele>262.4</ele><time>2026-07-25T21:14:45Z</time></trkpt>
<trkpt lat="35.079196" lon="-85.122822"><ele>264.3</ele><time>2026-07-25T21:14:48Z</time></trkpt>
<trkpt lat="35.079199" lon="-85.122869"><ele>262.7</ele><time>2026-07-25T21:14:51Z</time></trkpt>
<trkpt lat="35.079194" lon="-85.122919"><ele>265.2</ele><time>2026-07-25T21:14:54Z</time></trkpt>
<trkpt lat="35.079186" lon="-85.122955"><ele>263.7</ele><time>2026-07-25T21:14:56Z</time></trkpt>
<trkpt lat="35.079173" lon="-85.122984"><ele>262.7</ele><time>2026-07-25T21:14:58Z</time></trkpt>
<trkpt lat="35.079154" lon="-85.123026"><ele>263.0</ele><time>2026-07-25T21:15:01Z</time></trkpt>
<trkpt lat="35.07915" lon="-85.12306"><ele>263.3</ele><time>2026-07-25T21:15:03Z</time></trkpt>
<trkpt lat="35.079137" lon="-85.123106"><ele>262.7</ele><time>2026-07-25T21:15:06Z</time></trkpt>
<trkpt lat="35.07913" lon="-85.12314"><ele>262.4</ele><time>2026-07-25T21:15:08Z</time></trkpt>
<trkpt lat="35.079119" lon="-85.123172"><ele>262.4</ele><time>2026-07-25T21:15:10Z</time></trkpt>
<trkpt lat="35.079104" lon="-85.123205"><ele>262.7</ele><time>2026-07-25T21:15:12Z</time></trkpt>
<trkpt lat="35.079091" lon="-85.123236"><ele>263.0</ele><time>2026-07-25T21:15:14Z</time></trkpt>
<trkpt lat="35.079072" lon="-85.12328"><ele>260.3</ele><time>2026-07-25T21:15:17Z</time></trkpt>
<trkpt lat="35.079055" lon="-85.123307"><ele>260.3</ele><time>2026-07-25T21:15:19Z</time></trkpt>
<trkpt lat="35.079041" lon="-85.123337"><ele>261.5</ele><time>2026-07-25T21:15:21Z</time></trkpt>
<trkpt lat="35.079039" lon="-85.123371"><ele>262.7</ele><time>2026-07-25T21:15:23Z</time></trkpt>
<trkpt lat="35.079041" lon="-85.123409"><ele>262.7</ele><time>2026-07-25T21:15:25Z</time></trkpt>
<trkpt lat="35.079038" lon="-85.12346"><ele>260.9</ele><time>2026-07-25T21:15:28Z</time></trkpt>
<trkpt lat="35.079033" lon="-85.123497"><ele>260.3</ele><time>2026-07-25T21:15:30Z</time></trkpt>
<trkpt lat="35.079023" lon="-85.123529"><ele>261.8</ele><time>2026-07-25T21:15:32Z</time></trkpt>
<trkpt lat="35.079009" lon="-85.123577"><ele>262.1</ele><time>2026-07-25T21:15:35Z</time></trkpt>
<trkpt lat="35.079006" lon="-85.123611"><ele>262.7</ele><time>2026-07-25T21:15:37Z</time></trkpt>
<trkpt lat="35.079009" lon="-85.123661"><ele>263.7</ele><time>2026-07-25T21:15:40Z</time></trkpt>
<trkpt lat="35.079007" lon="-85.123696"><ele>263.7</ele><time>2026-07-25T21:15:42Z</time></trkpt>
<trkpt lat="35.07901" lon="-85.123733"><ele>260.9</ele><time>2026-07-25T21:15:44Z</time></trkpt>
<trkpt lat="35.079013" lon="-85.123768"><ele>260.6</ele><time>2026-07-25T21:15:46Z</time></trkpt>
<trkpt lat="35.079014" lon="-85.123816"><ele>260.3</ele><time>2026-07-25T21:15:49Z</time></trkpt>
<trkpt lat="35.079003" lon="-85.123863"><ele>262.1</ele><time>2026-07-25T21:15:52Z</time></trkpt>
<trkpt lat="35.078992" lon="-85.123895"><ele>262.7</ele><time>2026-07-25T21:15:54Z</time></trkpt>
<trkpt lat="35.07898" lon="-85.123928"><ele>264.0</ele><time>2026-07-25T21:15:56Z</time></trkpt>
<trkpt lat="35.078968" lon="-85.12396"><ele>263.3</ele><time>2026-07-25T21:15:58Z</time></trkpt>
<trkpt lat="35.078958" lon="-85.123992"><ele>263.7</ele><time>2026-07-25T21:16:00Z</time></trkpt>
<trkpt lat="35.078941" lon="-85.124035"><ele>261.8</ele><time>2026-07-25T21:16:03Z</time></trkpt>
<trkpt lat="35.078926" lon="-85.12408"><ele>262.1</ele><time>2026-07-25T21:16:06Z</time></trkpt>
<trkpt lat="35.078912" lon="-85.124111"><ele>261.8</ele><time>2026-07-25T21:16:08Z</time></trkpt>
<trkpt lat="35.078897" lon="-85.124158"><ele>261.5</ele><time>2026-07-25T21:16:11Z</time></trkpt>
<trkpt lat="35.078891" lon="-85.124195"><ele>261.2</ele><time>2026-07-25T21:16:13Z</time></trkpt>
<trkpt lat="35.078881" lon="-85.124226"><ele>260.0</ele><time>2026-07-25T21:16:15Z</time></trkpt>
<trkpt lat="35.078862" lon="-85.124266"><ele>259.4</ele><time>2026-07-25T21:16:18Z</time></trkpt>
<trkpt lat="35.078841" lon="-85.124306"><ele>258.5</ele><time>2026-07-25T21:16:21Z</time></trkpt>
<trkpt lat="35.078828" lon="-85.124337"><ele>258.2</ele><time>2026-07-25T21:16:23Z</time></trkpt>
<trkpt lat="35.078815" lon="-85.124369"><ele>258.2</ele><time>2026-07-25T21:16:25Z</time></trkpt>
<trkpt lat="35.078803" lon="-85.124404"><ele>258.5</ele><time>2026-07-25T21:16:27Z</time></trkpt>
<trkpt lat="35.078786" lon="-85.12443"><ele>256.6</ele><time>2026-07-25T21:16:29Z</time></trkpt>
<trkpt lat="35.078755" lon="-85.124462"><ele>254.8</ele><time>2026-07-25T21:16:32Z</time></trkpt>
<trkpt lat="35.078729" lon="-85.12448"><ele>255.7</ele><time>2026-07-25T21:16:34Z</time></trkpt>
<trkpt lat="35.078709" lon="-85.124504"><ele>256.9</ele><time>2026-07-25T21:16:36Z</time></trkpt>
<trkpt lat="35.078672" lon="-85.124527"><ele>255.1</ele><time>2026-07-25T21:16:39Z</time></trkpt>
<trkpt lat="35.078645" lon="-85.124543"><ele>256.9</ele><time>2026-07-25T21:16:41Z</time></trkpt>
<trkpt lat="35.078616" lon="-85.124557"><ele>258.8</ele><time>2026-07-25T21:16:43Z</time></trkpt>
<trkpt lat="35.078582" lon="-85.124566"><ele>260.0</ele><time>2026-07-25T21:16:45Z</time></trkpt>
<trkpt lat="35.07855" lon="-85.124569"><ele>260.3</ele><time>2026-07-25T21:16:47Z</time></trkpt>
<trkpt lat="35.078522" lon="-85.124565"><ele>259.7</ele><time>2026-07-25T21:16:49Z</time></trkpt>
<trkpt lat="35.078482" lon="-85.124574"><ele>259.1</ele><time>2026-07-25T21:16:52Z</time></trkpt>
<trkpt lat="35.078455" lon="-85.124582"><ele>259.7</ele><time>2026-07-25T21:16:54Z</time></trkpt>
<trkpt lat="35.078417" lon="-85.124597"><ele>258.8</ele><time>2026-07-25T21:16:57Z</time></trkpt>
<trkpt lat="35.07838" lon="-85.12462"><ele>258.8</ele><time>2026-07-25T21:17:00Z</time></trkpt>
<trkpt lat="35.078347" lon="-85.124651"><ele>259.1</ele><time>2026-07-25T21:17:03Z</time></trkpt>
<trkpt lat="35.078321" lon="-85.124672"><ele>259.7</ele><time>2026-07-25T21:17:05Z</time></trkpt>
<trkpt lat="35.078301" lon="-85.124696"><ele>261.2</ele><time>2026-07-25T21:17:07Z</time></trkpt>
<trkpt lat="35.078277" lon="-85.124714"><ele>260.3</ele><time>2026-07-25T21:17:09Z</time></trkpt>
<trkpt lat="35.078253" lon="-85.124751"><ele>259.7</ele><time>2026-07-25T21:17:12Z</time></trkpt>
<trkpt lat="35.078246" lon="-85.124784"><ele>259.1</ele><time>2026-07-25T21:17:14Z</time></trkpt>
<trkpt lat="35.07825" lon="-85.124822"><ele>256.0</ele><time>2026-07-25T21:17:16Z</time></trkpt>
<trkpt lat="35.078258" lon="-85.124869"><ele>256.0</ele><time>2026-07-25T21:17:19Z</time></trkpt>
<trkpt lat="35.078277" lon="-85.124902"><ele>253.0</ele><time>2026-07-25T21:17:21Z</time></trkpt>
<trkpt lat="35.078304" lon="-85.124938"><ele>247.8</ele><time>2026-07-25T21:17:23Z</time></trkpt>
<trkpt lat="35.078326" lon="-85.124967"><ele>247.5</ele><time>2026-07-25T21:17:25Z</time></trkpt>
<trkpt lat="35.07834" lon="-85.124999"><ele>247.8</ele><time>2026-07-25T21:17:27Z</time></trkpt>
<trkpt lat="35.07835" lon="-85.125031"><ele>248.1</ele><time>2026-07-25T21:17:29Z</time></trkpt>
<trkpt lat="35.078355" lon="-85.125066"><ele>248.7</ele><time>2026-07-25T21:17:31Z</time></trkpt>
<trkpt lat="35.078358" lon="-85.125104"><ele>249.9</ele><time>2026-07-25T21:17:33Z</time></trkpt>
<trkpt lat="35.078355" lon="-85.125142"><ele>250.2</ele><time>2026-07-25T21:17:35Z</time></trkpt>
<trkpt lat="35.078354" lon="-85.125179"><ele>250.9</ele><time>2026-07-25T21:17:37Z</time></trkpt>
<trkpt lat="35.078353" lon="-85.12523"><ele>251.5</ele><time>2026-07-25T21:17:40Z</time></trkpt>
<trkpt lat="35.078359" lon="-85.125265"><ele>250.2</ele><time>2026-07-25T21:17:42Z</time></trkpt>
<trkpt lat="35.078373" lon="-85.125296"><ele>249.9</ele><time>2026-07-25T21:17:44Z</time></trkpt>
<trkpt lat="35.07839" lon="-85.125324"><ele>249.9</ele><time>2026-07-25T21:17:46Z</time></trkpt>
<trkpt lat="35.078411" lon="-85.125352"><ele>249.3</ele><time>2026-07-25T21:17:48Z</time></trkpt>
<trkpt lat="35.078423" lon="-85.125385"><ele>248.4</ele><time>2026-07-25T21:17:50Z</time></trkpt>
<trkpt lat="35.07843" lon="-85.125433"><ele>248.7</ele><time>2026-07-25T21:17:53Z</time></trkpt>
<trkpt lat="35.078446" lon="-85.125475"><ele>248.4</ele><time>2026-07-25T21:17:56Z</time></trkpt>
<trkpt lat="35.078462" lon="-85.125519"><ele>249.0</ele><time>2026-07-25T21:17:59Z</time></trkpt>
<trkpt lat="35.078479" lon="-85.125546"><ele>247.8</ele><time>2026-07-25T21:18:01Z</time></trkpt>
<trkpt lat="35.078482" lon="-85.125587"><ele>247.8</ele><time>2026-07-25T21:18:04Z</time></trkpt>
<trkpt lat="35.078461" lon="-85.125611"><ele>246.6</ele><time>2026-07-25T21:18:06Z</time></trkpt>
<trkpt lat="35.078426" lon="-85.125613"><ele>246.9</ele><time>2026-07-25T21:18:08Z</time></trkpt>
</trkseg></trk></gpx>